<?xml version='1.0' encoding='UTF-8'?>
<gpx version="1.1" creator="https://www.komoot.de" xmlns="http://www.topografix.com/GPX/1/1" xmlns:xsi="http://www.w3.org/2001/XMLSchema-instance" xsi:schemaLocation="http://www.topografix.com/GPX/1/1 http://www.topografix.com/GPX/1/1/gpx.xsd">
  <metadata>
    <name>78_1020RaichLehnacker</name>
    <author>
      <link href="https://www.komoot.de">
        <text>komoot</text>
        <type>text/html</type>
      </link>
    </author>
  </metadata>
  <trk>
    <name>78_1020RaichLehnacker</name>
    <trkseg>
      <trkpt lat="47.541413" lon="7.870788">
        <ele>339.094950</ele>
        <time>2021-11-21T21:29:29.771Z</time>
      </trkpt>
      <trkpt lat="47.541576" lon="7.870664">
        <ele>339.094950</ele>
        <time>2021-11-21T21:29:32.231Z</time>
      </trkpt>
      <trkpt lat="47.541550" lon="7.870601">
        <ele>339.094950</ele>
        <time>2021-11-21T21:29:33.041Z</time>
      </trkpt>
      <trkpt lat="47.541521" lon="7.870517">
        <ele>339.094950</ele>
        <time>2021-11-21T21:29:34.098Z</time>
      </trkpt>
      <trkpt lat="47.541606" lon="7.870424">
        <ele>339.094950</ele>
        <time>2021-11-21T21:29:35.808Z</time>
      </trkpt>
      <trkpt lat="47.541910" lon="7.870106">
        <ele>339.094950</ele>
        <time>2021-11-21T21:29:41.650Z</time>
      </trkpt>
      <trkpt lat="47.542014" lon="7.870126">
        <ele>339.094950</ele>
        <time>2021-11-21T21:29:43.178Z</time>
      </trkpt>
      <trkpt lat="47.542118" lon="7.870135">
        <ele>339.012451</ele>
        <time>2021-11-21T21:29:44.934Z</time>
      </trkpt>
      <trkpt lat="47.542181" lon="7.870131">
        <ele>338.950760</ele>
        <time>2021-11-21T21:29:45.823Z</time>
      </trkpt>
      <trkpt lat="47.542317" lon="7.870012">
        <ele>338.796231</ele>
        <time>2021-11-21T21:29:48.008Z</time>
      </trkpt>
      <trkpt lat="47.542348" lon="7.869983">
        <ele>338.760362</ele>
        <time>2021-11-21T21:29:48.456Z</time>
      </trkpt>
      <trkpt lat="47.542329" lon="7.869820">
        <ele>338.651122</ele>
        <time>2021-11-21T21:29:50.255Z</time>
      </trkpt>
      <trkpt lat="47.542372" lon="7.869746">
        <ele>338.586639</ele>
        <time>2021-11-21T21:29:51.079Z</time>
      </trkpt>
      <trkpt lat="47.542657" lon="7.869354">
        <ele>338.206163</ele>
        <time>2021-11-21T21:29:55.938Z</time>
      </trkpt>
      <trkpt lat="47.542696" lon="7.869257">
        <ele>338.131602</ele>
        <time>2021-11-21T21:29:56.873Z</time>
      </trkpt>
      <trkpt lat="47.542722" lon="7.869201">
        <ele>338.086716</ele>
        <time>2021-11-21T21:29:57.465Z</time>
      </trkpt>
      <trkpt lat="47.543049" lon="7.868759">
        <ele>337.653646</ele>
        <time>2021-11-21T21:30:02.378Z</time>
      </trkpt>
      <trkpt lat="47.543105" lon="7.868711">
        <ele>337.590350</ele>
        <time>2021-11-21T21:30:03.116Z</time>
      </trkpt>
      <trkpt lat="47.543201" lon="7.868657">
        <ele>337.489888</ele>
        <time>2021-11-21T21:30:04.194Z</time>
      </trkpt>
      <trkpt lat="47.543657" lon="7.868359">
        <ele>336.905043</ele>
        <time>2021-11-21T21:30:09.990Z</time>
      </trkpt>
      <trkpt lat="47.543801" lon="7.868269">
        <ele>336.707486</ele>
        <time>2021-11-21T21:30:12.469Z</time>
      </trkpt>
      <trkpt lat="47.544214" lon="7.867988">
        <ele>336.133012</ele>
        <time>2021-11-21T21:30:20.086Z</time>
      </trkpt>
      <trkpt lat="47.544246" lon="7.867967">
        <ele>336.088772</ele>
        <time>2021-11-21T21:30:20.682Z</time>
      </trkpt>
      <trkpt lat="47.544410" lon="7.867825">
        <ele>335.848660</ele>
        <time>2021-11-21T21:30:23.935Z</time>
      </trkpt>
      <trkpt lat="47.544469" lon="7.867776">
        <ele>335.763162</ele>
        <time>2021-11-21T21:30:24.957Z</time>
      </trkpt>
      <trkpt lat="47.544568" lon="7.867693">
        <ele>335.619373</ele>
        <time>2021-11-21T21:30:26.884Z</time>
      </trkpt>
      <trkpt lat="47.545003" lon="7.867278">
        <ele>335.112430</ele>
        <time>2021-11-21T21:30:35.733Z</time>
      </trkpt>
      <trkpt lat="47.545160" lon="7.866985">
        <ele>335.280301</ele>
        <time>2021-11-21T21:30:40.383Z</time>
      </trkpt>
      <trkpt lat="47.545240" lon="7.866887">
        <ele>335.349311</ele>
        <time>2021-11-21T21:30:42.657Z</time>
      </trkpt>
      <trkpt lat="47.546096" lon="7.866147">
        <ele>336.008171</ele>
        <time>2021-11-21T21:31:07.727Z</time>
      </trkpt>
      <trkpt lat="47.546327" lon="7.865959">
        <ele>336.183383</ele>
        <time>2021-11-21T21:31:14.147Z</time>
      </trkpt>
      <trkpt lat="47.546510" lon="7.865766">
        <ele>336.265207</ele>
        <time>2021-11-21T21:31:20.533Z</time>
      </trkpt>
      <trkpt lat="47.546819" lon="7.865489">
        <ele>336.289914</ele>
        <time>2021-11-21T21:31:28.687Z</time>
      </trkpt>
      <trkpt lat="47.546889" lon="7.865225">
        <ele>336.303012</ele>
        <time>2021-11-21T21:31:32.473Z</time>
      </trkpt>
      <trkpt lat="47.546894" lon="7.864837">
        <ele>336.320931</ele>
        <time>2021-11-21T21:31:37.650Z</time>
      </trkpt>
      <trkpt lat="47.546885" lon="7.864500">
        <ele>336.336504</ele>
        <time>2021-11-21T21:31:43.289Z</time>
      </trkpt>
      <trkpt lat="47.546974" lon="7.864423">
        <ele>336.343555</ele>
        <time>2021-11-21T21:31:44.877Z</time>
      </trkpt>
      <trkpt lat="47.547320" lon="7.863864">
        <ele>336.378577</ele>
        <time>2021-11-21T21:31:54.802Z</time>
      </trkpt>
      <trkpt lat="47.547568" lon="7.863151">
        <ele>335.559014</ele>
        <time>2021-11-21T21:32:03.815Z</time>
      </trkpt>
      <trkpt lat="47.547930" lon="7.861711">
        <ele>333.898664</ele>
        <time>2021-11-21T21:32:20.189Z</time>
      </trkpt>
      <trkpt lat="47.548049" lon="7.860929">
        <ele>333.151880</ele>
        <time>2021-11-21T21:32:28.889Z</time>
      </trkpt>
      <trkpt lat="47.548334" lon="7.859801">
        <ele>332.181949</ele>
        <time>2021-11-21T21:32:42.370Z</time>
      </trkpt>
      <trkpt lat="47.548611" lon="7.858381">
        <ele>331.307561</ele>
        <time>2021-11-21T21:33:00.327Z</time>
      </trkpt>
      <trkpt lat="47.548686" lon="7.857973">
        <ele>331.262885</ele>
        <time>2021-11-21T21:33:05.716Z</time>
      </trkpt>
      <trkpt lat="47.548701" lon="7.857893">
        <ele>331.254112</ele>
        <time>2021-11-21T21:33:06.836Z</time>
      </trkpt>
      <trkpt lat="47.548743" lon="7.857692">
        <ele>331.231882</ele>
        <time>2021-11-21T21:33:09.610Z</time>
      </trkpt>
      <trkpt lat="47.548887" lon="7.857308">
        <ele>331.185470</ele>
        <time>2021-11-21T21:33:15.644Z</time>
      </trkpt>
      <trkpt lat="47.549362" lon="7.855774">
        <ele>330.876139</ele>
        <time>2021-11-21T21:33:39.689Z</time>
      </trkpt>
      <trkpt lat="47.549566" lon="7.855225">
        <ele>330.679608</ele>
        <time>2021-11-21T21:33:48.306Z</time>
      </trkpt>
      <trkpt lat="47.549883" lon="7.854434">
        <ele>330.391123</ele>
        <time>2021-11-21T21:33:59.760Z</time>
      </trkpt>
      <trkpt lat="47.550221" lon="7.853833">
        <ele>329.733457</ele>
        <time>2021-11-21T21:34:06.153Z</time>
      </trkpt>
      <trkpt lat="47.551516" lon="7.851950">
        <ele>324.967631</ele>
        <time>2021-11-21T21:34:24.951Z</time>
      </trkpt>
      <trkpt lat="47.551660" lon="7.851725">
        <ele>324.285240</ele>
        <time>2021-11-21T21:34:26.982Z</time>
      </trkpt>
      <trkpt lat="47.551830" lon="7.851603">
        <ele>323.669321</ele>
        <time>2021-11-21T21:34:28.902Z</time>
      </trkpt>
      <trkpt lat="47.551880" lon="7.851729">
        <ele>323.347653</ele>
        <time>2021-11-21T21:34:29.850Z</time>
      </trkpt>
      <trkpt lat="47.551925" lon="7.851845">
        <ele>323.053204</ele>
        <time>2021-11-21T21:34:30.750Z</time>
      </trkpt>
      <trkpt lat="47.552042" lon="7.852007">
        <ele>322.531048</ele>
        <time>2021-11-21T21:34:32.395Z</time>
      </trkpt>
      <trkpt lat="47.552097" lon="7.852063">
        <ele>322.313446</ele>
        <time>2021-11-21T21:34:33.027Z</time>
      </trkpt>
      <trkpt lat="47.552272" lon="7.852167">
        <ele>321.698635</ele>
        <time>2021-11-21T21:34:34.932Z</time>
      </trkpt>
      <trkpt lat="47.552449" lon="7.852231">
        <ele>321.104554</ele>
        <time>2021-11-21T21:34:36.733Z</time>
      </trkpt>
      <trkpt lat="47.552678" lon="7.851709">
        <ele>319.759036</ele>
        <time>2021-11-21T21:34:41.007Z</time>
      </trkpt>
      <trkpt lat="47.552876" lon="7.851300">
        <ele>319.056698</ele>
        <time>2021-11-21T21:34:44.554Z</time>
      </trkpt>
      <trkpt lat="47.553283" lon="7.850634">
        <ele>317.803034</ele>
        <time>2021-11-21T21:34:51.221Z</time>
      </trkpt>
      <trkpt lat="47.553344" lon="7.850525">
        <ele>317.605454</ele>
        <time>2021-11-21T21:34:52.299Z</time>
      </trkpt>
      <trkpt lat="47.553380" lon="7.850453">
        <ele>317.480422</ele>
        <time>2021-11-21T21:34:52.986Z</time>
      </trkpt>
      <trkpt lat="47.553537" lon="7.849904">
        <ele>316.648445</ele>
        <time>2021-11-21T21:34:57.471Z</time>
      </trkpt>
      <trkpt lat="47.553605" lon="7.849629">
        <ele>316.239781</ele>
        <time>2021-11-21T21:34:59.762Z</time>
      </trkpt>
      <trkpt lat="47.553725" lon="7.849291">
        <ele>315.829493</ele>
        <time>2021-11-21T21:35:02.684Z</time>
      </trkpt>
      <trkpt lat="47.554055" lon="7.848586">
        <ele>315.022606</ele>
        <time>2021-11-21T21:35:09.582Z</time>
      </trkpt>
      <trkpt lat="47.554209" lon="7.848300">
        <ele>314.678517</ele>
        <time>2021-11-21T21:35:12.545Z</time>
      </trkpt>
      <trkpt lat="47.554269" lon="7.848188">
        <ele>314.544036</ele>
        <time>2021-11-21T21:35:13.624Z</time>
      </trkpt>
      <trkpt lat="47.554351" lon="7.848049">
        <ele>314.370412</ele>
        <time>2021-11-21T21:35:15.084Z</time>
      </trkpt>
      <trkpt lat="47.554465" lon="7.847858">
        <ele>314.130617</ele>
        <time>2021-11-21T21:35:17.165Z</time>
      </trkpt>
      <trkpt lat="47.554618" lon="7.847626">
        <ele>313.825559</ele>
        <time>2021-11-21T21:35:19.664Z</time>
      </trkpt>
      <trkpt lat="47.554759" lon="7.847388">
        <ele>313.532841</ele>
        <time>2021-11-21T21:35:22.081Z</time>
      </trkpt>
      <trkpt lat="47.554892" lon="7.847148">
        <ele>313.271351</ele>
        <time>2021-11-21T21:35:24.513Z</time>
      </trkpt>
      <trkpt lat="47.554995" lon="7.846915">
        <ele>313.036813</ele>
        <time>2021-11-21T21:35:26.670Z</time>
      </trkpt>
      <trkpt lat="47.555068" lon="7.846672">
        <ele>312.812842</ele>
        <time>2021-11-21T21:35:28.730Z</time>
      </trkpt>
      <trkpt lat="47.555199" lon="7.846687">
        <ele>312.648908</ele>
        <time>2021-11-21T21:35:30.211Z</time>
      </trkpt>
      <trkpt lat="47.555727" lon="7.846715">
        <ele>311.989709</ele>
        <time>2021-11-21T21:35:36.669Z</time>
      </trkpt>
      <trkpt lat="47.555855" lon="7.846815">
        <ele>311.809167</ele>
        <time>2021-11-21T21:35:38.331Z</time>
      </trkpt>
      <trkpt lat="47.555892" lon="7.846856">
        <ele>311.751522</ele>
        <time>2021-11-21T21:35:38.889Z</time>
      </trkpt>
      <trkpt lat="47.555966" lon="7.846932">
        <ele>311.639184</ele>
        <time>2021-11-21T21:35:40.038Z</time>
      </trkpt>
      <trkpt lat="47.555990" lon="7.846965">
        <ele>311.598333</ele>
        <time>2021-11-21T21:35:40.470Z</time>
      </trkpt>
      <trkpt lat="47.556060" lon="7.846859">
        <ele>311.473456</ele>
        <time>2021-11-21T21:35:41.664Z</time>
      </trkpt>
      <trkpt lat="47.556636" lon="7.845928">
        <ele>310.791009</ele>
        <time>2021-11-21T21:35:52.050Z</time>
      </trkpt>
      <trkpt lat="47.557134" lon="7.845095">
        <ele>310.241024</ele>
        <time>2021-11-21T21:36:01.869Z</time>
      </trkpt>
      <trkpt lat="47.557282" lon="7.844832">
        <ele>310.071787</ele>
        <time>2021-11-21T21:36:05.009Z</time>
      </trkpt>
      <trkpt lat="47.557560" lon="7.844433">
        <ele>309.987378</ele>
        <time>2021-11-21T21:36:10.186Z</time>
      </trkpt>
      <trkpt lat="47.557715" lon="7.843940">
        <ele>309.954330</ele>
        <time>2021-11-21T21:36:15.191Z</time>
      </trkpt>
      <trkpt lat="47.557759" lon="7.843839">
        <ele>309.947025</ele>
        <time>2021-11-21T21:36:16.370Z</time>
      </trkpt>
      <trkpt lat="47.557846" lon="7.843756">
        <ele>309.937709</ele>
        <time>2021-11-21T21:36:17.718Z</time>
      </trkpt>
      <trkpt lat="47.557967" lon="7.843683">
        <ele>309.925945</ele>
        <time>2021-11-21T21:36:19.752Z</time>
      </trkpt>
      <trkpt lat="47.558136" lon="7.843582">
        <ele>309.909537</ele>
        <time>2021-11-21T21:36:22.439Z</time>
      </trkpt>
      <trkpt lat="47.558405" lon="7.843371">
        <ele>309.882132</ele>
        <time>2021-11-21T21:36:27.305Z</time>
      </trkpt>
      <trkpt lat="47.558471" lon="7.843365">
        <ele>309.876178</ele>
        <time>2021-11-21T21:36:28.156Z</time>
      </trkpt>
      <trkpt lat="47.558555" lon="7.843392">
        <ele>309.868439</ele>
        <time>2021-11-21T21:36:29.436Z</time>
      </trkpt>
      <trkpt lat="47.558668" lon="7.843545">
        <ele>309.854657</ele>
        <time>2021-11-21T21:36:32.127Z</time>
      </trkpt>
      <trkpt lat="47.558884" lon="7.843836">
        <ele>309.872118</ele>
        <time>2021-11-21T21:36:36.716Z</time>
      </trkpt>
      <trkpt lat="47.559060" lon="7.844197">
        <ele>309.892494</ele>
        <time>2021-11-21T21:36:41.542Z</time>
      </trkpt>
      <trkpt lat="47.559109" lon="7.844229">
        <ele>309.896125</ele>
        <time>2021-11-21T21:36:42.589Z</time>
      </trkpt>
      <trkpt lat="47.559158" lon="7.844233">
        <ele>309.899452</ele>
        <time>2021-11-21T21:36:43.538Z</time>
      </trkpt>
      <trkpt lat="47.559583" lon="7.843813">
        <ele>309.934086</ele>
        <time>2021-11-21T21:36:51.518Z</time>
      </trkpt>
      <trkpt lat="47.559847" lon="7.843604">
        <ele>309.954379</ele>
        <time>2021-11-21T21:36:55.917Z</time>
      </trkpt>
      <trkpt lat="47.560139" lon="7.843433">
        <ele>309.969468</ele>
        <time>2021-11-21T21:37:00.145Z</time>
      </trkpt>
      <trkpt lat="47.560209" lon="7.843393">
        <ele>309.894330</ele>
        <time>2021-11-21T21:37:01.097Z</time>
      </trkpt>
      <trkpt lat="47.560338" lon="7.843341">
        <ele>309.760438</ele>
        <time>2021-11-21T21:37:02.763Z</time>
      </trkpt>
      <trkpt lat="47.560430" lon="7.843341">
        <ele>309.668297</ele>
        <time>2021-11-21T21:37:04.305Z</time>
      </trkpt>
      <trkpt lat="47.560515" lon="7.843379">
        <ele>309.579378</ele>
        <time>2021-11-21T21:37:05.339Z</time>
      </trkpt>
      <trkpt lat="47.560812" lon="7.843560">
        <ele>309.257753</ele>
        <time>2021-11-21T21:37:09.398Z</time>
      </trkpt>
      <trkpt lat="47.560934" lon="7.843550">
        <ele>309.135380</ele>
        <time>2021-11-21T21:37:10.921Z</time>
      </trkpt>
      <trkpt lat="47.561038" lon="7.843502">
        <ele>309.026286</ele>
        <time>2021-11-21T21:37:12.209Z</time>
      </trkpt>
      <trkpt lat="47.561434" lon="7.843181">
        <ele>308.574225</ele>
        <time>2021-11-21T21:37:17.650Z</time>
      </trkpt>
      <trkpt lat="47.561498" lon="7.843130">
        <ele>308.501448</ele>
        <time>2021-11-21T21:37:18.414Z</time>
      </trkpt>
      <trkpt lat="47.562179" lon="7.842500">
        <ele>307.592476</ele>
        <time>2021-11-21T21:37:27.673Z</time>
      </trkpt>
      <trkpt lat="47.562300" lon="7.842326">
        <ele>307.386423</ele>
        <time>2021-11-21T21:37:29.624Z</time>
      </trkpt>
      <trkpt lat="47.562385" lon="7.842183">
        <ele>307.229266</ele>
        <time>2021-11-21T21:37:31.035Z</time>
      </trkpt>
      <trkpt lat="47.562440" lon="7.842083">
        <ele>307.122876</ele>
        <time>2021-11-21T21:37:32.151Z</time>
      </trkpt>
      <trkpt lat="47.562574" lon="7.841873">
        <ele>306.884527</ele>
        <time>2021-11-21T21:37:34.549Z</time>
      </trkpt>
      <trkpt lat="47.562904" lon="7.841632">
        <ele>306.434915</ele>
        <time>2021-11-21T21:37:39.038Z</time>
      </trkpt>
      <trkpt lat="47.562965" lon="7.841597">
        <ele>306.354973</ele>
        <time>2021-11-21T21:37:39.826Z</time>
      </trkpt>
      <trkpt lat="47.563016" lon="7.841568">
        <ele>306.288214</ele>
        <time>2021-11-21T21:37:40.527Z</time>
      </trkpt>
      <trkpt lat="47.563300" lon="7.841391">
        <ele>305.920127</ele>
        <time>2021-11-21T21:37:44.265Z</time>
      </trkpt>
      <trkpt lat="47.563483" lon="7.841269">
        <ele>305.707212</ele>
        <time>2021-11-21T21:37:46.823Z</time>
      </trkpt>
      <trkpt lat="47.563659" lon="7.841150">
        <ele>305.501949</ele>
        <time>2021-11-21T21:37:49.150Z</time>
      </trkpt>
      <trkpt lat="47.563805" lon="7.841046">
        <ele>305.330070</ele>
        <time>2021-11-21T21:37:51.212Z</time>
      </trkpt>
      <trkpt lat="47.563941" lon="7.840948">
        <ele>305.169613</ele>
        <time>2021-11-21T21:37:53.064Z</time>
      </trkpt>
      <trkpt lat="47.563986" lon="7.840916">
        <ele>305.116653</ele>
        <time>2021-11-21T21:37:53.685Z</time>
      </trkpt>
      <trkpt lat="47.564094" lon="7.840838">
        <ele>304.989176</ele>
        <time>2021-11-21T21:37:55.154Z</time>
      </trkpt>
      <trkpt lat="47.564463" lon="7.840580">
        <ele>304.556262</ele>
        <time>2021-11-21T21:38:00.141Z</time>
      </trkpt>
      <trkpt lat="47.564534" lon="7.840532">
        <ele>304.473459</ele>
        <time>2021-11-21T21:38:01.048Z</time>
      </trkpt>
      <trkpt lat="47.564558" lon="7.840516">
        <ele>304.445536</ele>
        <time>2021-11-21T21:38:01.372Z</time>
      </trkpt>
      <trkpt lat="47.564936" lon="7.840261">
        <ele>304.003614</ele>
        <time>2021-11-21T21:38:06.272Z</time>
      </trkpt>
      <trkpt lat="47.565057" lon="7.840213">
        <ele>303.868049</ele>
        <time>2021-11-21T21:38:07.687Z</time>
      </trkpt>
      <trkpt lat="47.565168" lon="7.840179">
        <ele>303.745378</ele>
        <time>2021-11-21T21:38:09.027Z</time>
      </trkpt>
      <trkpt lat="47.565233" lon="7.840176">
        <ele>303.674996</ele>
        <time>2021-11-21T21:38:09.764Z</time>
      </trkpt>
      <trkpt lat="47.565343" lon="7.840185">
        <ele>303.555765</ele>
        <time>2021-11-21T21:38:11.024Z</time>
      </trkpt>
      <trkpt lat="47.565906" lon="7.840272">
        <ele>302.943143</ele>
        <time>2021-11-21T21:38:17.884Z</time>
      </trkpt>
      <trkpt lat="47.566081" lon="7.840309">
        <ele>302.751828</ele>
        <time>2021-11-21T21:38:20.027Z</time>
      </trkpt>
      <trkpt lat="47.566142" lon="7.840322">
        <ele>302.685131</ele>
        <time>2021-11-21T21:38:20.709Z</time>
      </trkpt>
      <trkpt lat="47.566221" lon="7.840340">
        <ele>302.598627</ele>
        <time>2021-11-21T21:38:21.907Z</time>
      </trkpt>
      <trkpt lat="47.566350" lon="7.840350">
        <ele>302.458823</ele>
        <time>2021-11-21T21:38:23.596Z</time>
      </trkpt>
      <trkpt lat="47.566450" lon="7.840326">
        <ele>302.349186</ele>
        <time>2021-11-21T21:38:24.819Z</time>
      </trkpt>
      <trkpt lat="47.566515" lon="7.840312">
        <ele>302.278099</ele>
        <time>2021-11-21T21:38:25.565Z</time>
      </trkpt>
      <trkpt lat="47.566592" lon="7.840279">
        <ele>302.191350</ele>
        <time>2021-11-21T21:38:26.755Z</time>
      </trkpt>
      <trkpt lat="47.566826" lon="7.840179">
        <ele>301.987736</ele>
        <time>2021-11-21T21:38:29.689Z</time>
      </trkpt>
      <trkpt lat="47.567111" lon="7.839998">
        <ele>301.756479</ele>
        <time>2021-11-21T21:38:33.708Z</time>
      </trkpt>
      <trkpt lat="47.567406" lon="7.839778">
        <ele>301.510174</ele>
        <time>2021-11-21T21:38:37.893Z</time>
      </trkpt>
      <trkpt lat="47.567481" lon="7.839664">
        <ele>301.430048</ele>
        <time>2021-11-21T21:38:39.099Z</time>
      </trkpt>
      <trkpt lat="47.567510" lon="7.839548">
        <ele>301.367795</ele>
        <time>2021-11-21T21:38:40.332Z</time>
      </trkpt>
      <trkpt lat="47.567530" lon="7.839459">
        <ele>301.320589</ele>
        <time>2021-11-21T21:38:41.179Z</time>
      </trkpt>
      <trkpt lat="47.567564" lon="7.839283">
        <ele>301.228462</ele>
        <time>2021-11-21T21:38:42.788Z</time>
      </trkpt>
      <trkpt lat="47.567626" lon="7.839064">
        <ele>301.108947</ele>
        <time>2021-11-21T21:38:44.811Z</time>
      </trkpt>
      <trkpt lat="47.567634" lon="7.839037">
        <ele>301.094107</ele>
        <time>2021-11-21T21:38:45.047Z</time>
      </trkpt>
      <trkpt lat="47.567823" lon="7.838648">
        <ele>300.852879</ele>
        <time>2021-11-21T21:38:49.330Z</time>
      </trkpt>
      <trkpt lat="47.567846" lon="7.838609">
        <ele>300.826813</ele>
        <time>2021-11-21T21:38:49.771Z</time>
      </trkpt>
      <trkpt lat="47.567936" lon="7.838380">
        <ele>300.636138</ele>
        <time>2021-11-21T21:38:52.226Z</time>
      </trkpt>
      <trkpt lat="47.568042" lon="7.838436">
        <ele>300.496084</ele>
        <time>2021-11-21T21:38:54.155Z</time>
      </trkpt>
      <trkpt lat="47.568160" lon="7.838415">
        <ele>300.348171</ele>
        <time>2021-11-21T21:38:56.293Z</time>
      </trkpt>
      <trkpt lat="47.568420" lon="7.838300">
        <ele>300.010482</ele>
        <time>2021-11-21T21:39:00.905Z</time>
      </trkpt>
      <trkpt lat="47.568988" lon="7.838054">
        <ele>299.274007</ele>
        <time>2021-11-21T21:39:10.728Z</time>
      </trkpt>
      <trkpt lat="47.569310" lon="7.837922">
        <ele>298.858212</ele>
        <time>2021-11-21T21:39:16.235Z</time>
      </trkpt>
      <trkpt lat="47.569522" lon="7.837844">
        <ele>298.586356</ele>
        <time>2021-11-21T21:39:19.827Z</time>
      </trkpt>
      <trkpt lat="47.569665" lon="7.837789">
        <ele>298.394824</ele>
        <time>2021-11-21T21:39:22.264Z</time>
      </trkpt>
      <trkpt lat="47.569814" lon="7.837733">
        <ele>298.192900</ele>
        <time>2021-11-21T21:39:24.801Z</time>
      </trkpt>
      <trkpt lat="47.569907" lon="7.837696">
        <ele>298.066409</ele>
        <time>2021-11-21T21:39:26.376Z</time>
      </trkpt>
      <trkpt lat="47.570038" lon="7.837643">
        <ele>297.888029</ele>
        <time>2021-11-21T21:39:28.628Z</time>
      </trkpt>
      <trkpt lat="47.570298" lon="7.837528">
        <ele>297.531605</ele>
        <time>2021-11-21T21:39:33.080Z</time>
      </trkpt>
      <trkpt lat="47.570872" lon="7.837307">
        <ele>296.752563</ele>
        <time>2021-11-21T21:39:42.942Z</time>
      </trkpt>
      <trkpt lat="47.570985" lon="7.837265">
        <ele>296.599528</ele>
        <time>2021-11-21T21:39:44.869Z</time>
      </trkpt>
      <trkpt lat="47.571254" lon="7.837161">
        <ele>296.234341</ele>
        <time>2021-11-21T21:39:49.582Z</time>
      </trkpt>
      <trkpt lat="47.571771" lon="7.836971">
        <ele>295.885669</ele>
        <time>2021-11-21T21:39:59.088Z</time>
      </trkpt>
      <trkpt lat="47.571871" lon="7.836932">
        <ele>295.823961</ele>
        <time>2021-11-21T21:40:01.024Z</time>
      </trkpt>
      <trkpt lat="47.572139" lon="7.836834">
        <ele>295.659232</ele>
        <time>2021-11-21T21:40:06.220Z</time>
      </trkpt>
      <trkpt lat="47.572296" lon="7.836777">
        <ele>295.562769</ele>
        <time>2021-11-21T21:40:09.298Z</time>
      </trkpt>
      <trkpt lat="47.572760" lon="7.836606">
        <ele>295.277438</ele>
        <time>2021-11-21T21:40:18.316Z</time>
      </trkpt>
      <trkpt lat="47.573348" lon="7.836386">
        <ele>294.995911</ele>
        <time>2021-11-21T21:40:29.470Z</time>
      </trkpt>
      <trkpt lat="47.573815" lon="7.836215">
        <ele>294.830933</ele>
        <time>2021-11-21T21:40:38.282Z</time>
      </trkpt>
      <trkpt lat="47.574158" lon="7.836106">
        <ele>294.710623</ele>
        <time>2021-11-21T21:40:44.853Z</time>
      </trkpt>
      <trkpt lat="47.574568" lon="7.836025">
        <ele>294.568765</ele>
        <time>2021-11-21T21:40:50.545Z</time>
      </trkpt>
      <trkpt lat="47.575033" lon="7.835907">
        <ele>294.638266</ele>
        <time>2021-11-21T21:40:57.549Z</time>
      </trkpt>
      <trkpt lat="47.575959" lon="7.835718">
        <ele>295.236626</ele>
        <time>2021-11-21T21:41:13.166Z</time>
      </trkpt>
      <trkpt lat="47.576219" lon="7.835650">
        <ele>295.405632</ele>
        <time>2021-11-21T21:41:18.323Z</time>
      </trkpt>
      <trkpt lat="47.579073" lon="7.834987">
        <ele>298.485459</ele>
        <time>2021-11-21T21:42:17.160Z</time>
      </trkpt>
      <trkpt lat="47.580667" lon="7.834627">
        <ele>298.530911</ele>
        <time>2021-11-21T21:42:41.009Z</time>
      </trkpt>
      <trkpt lat="47.580816" lon="7.834599">
        <ele>298.378112</ele>
        <time>2021-11-21T21:42:43.106Z</time>
      </trkpt>
      <trkpt lat="47.582828" lon="7.834117">
        <ele>295.027357</ele>
        <time>2021-11-21T21:43:06.154Z</time>
      </trkpt>
      <trkpt lat="47.583163" lon="7.833942">
        <ele>294.177640</ele>
        <time>2021-11-21T21:43:09.983Z</time>
      </trkpt>
      <trkpt lat="47.583327" lon="7.833750">
        <ele>293.677723</ele>
        <time>2021-11-21T21:43:12.140Z</time>
      </trkpt>
      <trkpt lat="47.583401" lon="7.833658">
        <ele>293.446684</ele>
        <time>2021-11-21T21:43:13.072Z</time>
      </trkpt>
      <trkpt lat="47.583523" lon="7.833509">
        <ele>293.068544</ele>
        <time>2021-11-21T21:43:14.748Z</time>
      </trkpt>
      <trkpt lat="47.583696" lon="7.833171">
        <ele>291.942746</ele>
        <time>2021-11-21T21:43:17.585Z</time>
      </trkpt>
      <trkpt lat="47.583849" lon="7.832883">
        <ele>290.887635</ele>
        <time>2021-11-21T21:43:19.906Z</time>
      </trkpt>
      <trkpt lat="47.584029" lon="7.832543">
        <ele>289.643668</ele>
        <time>2021-11-21T21:43:22.640Z</time>
      </trkpt>
      <trkpt lat="47.584156" lon="7.832334">
        <ele>288.834052</ele>
        <time>2021-11-21T21:43:24.420Z</time>
      </trkpt>
      <trkpt lat="47.584367" lon="7.832247">
        <ele>287.899560</ele>
        <time>2021-11-21T21:43:26.479Z</time>
      </trkpt>
      <trkpt lat="47.584717" lon="7.832264">
        <ele>286.405335</ele>
        <time>2021-11-21T21:43:29.868Z</time>
      </trkpt>
      <trkpt lat="47.585027" lon="7.832425">
        <ele>285.101192</ele>
        <time>2021-11-21T21:43:33.132Z</time>
      </trkpt>
      <trkpt lat="47.585195" lon="7.832588">
        <ele>284.555448</ele>
        <time>2021-11-21T21:43:35.187Z</time>
      </trkpt>
      <trkpt lat="47.585247" lon="7.832651">
        <ele>284.372912</ele>
        <time>2021-11-21T21:43:35.835Z</time>
      </trkpt>
      <trkpt lat="47.585278" lon="7.832688">
        <ele>284.264737</ele>
        <time>2021-11-21T21:43:36.217Z</time>
      </trkpt>
      <trkpt lat="47.586276" lon="7.833601">
        <ele>281.077154</ele>
        <time>2021-11-21T21:43:48.235Z</time>
      </trkpt>
      <trkpt lat="47.586496" lon="7.833050">
        <ele>280.403277</ele>
        <time>2021-11-21T21:43:53.472Z</time>
      </trkpt>
      <trkpt lat="47.587168" lon="7.833639">
        <ele>280.492237</ele>
        <time>2021-11-21T21:44:05.178Z</time>
      </trkpt>
      <trkpt lat="47.587331" lon="7.833782">
        <ele>280.513820</ele>
        <time>2021-11-21T21:44:08.151Z</time>
      </trkpt>
      <trkpt lat="47.587848" lon="7.834235">
        <ele>280.582255</ele>
        <time>2021-11-21T21:44:17.812Z</time>
      </trkpt>
      <trkpt lat="47.587628" lon="7.835942">
        <ele>283.381611</ele>
        <time>2021-11-21T21:44:45.635Z</time>
      </trkpt>
      <trkpt lat="47.587903" lon="7.836007">
        <ele>284.075790</ele>
        <time>2021-11-21T21:44:53.261Z</time>
      </trkpt>
      <trkpt lat="47.588272" lon="7.836090">
        <ele>285.006160</ele>
        <time>2021-11-21T21:45:03.928Z</time>
      </trkpt>
      <trkpt lat="47.589181" lon="7.835983">
        <ele>288.032692</ele>
        <time>2021-11-21T21:45:31.741Z</time>
      </trkpt>
      <trkpt lat="47.590171" lon="7.835867">
        <ele>291.207281</ele>
        <time>2021-11-21T21:45:59.061Z</time>
      </trkpt>
      <trkpt lat="47.590263" lon="7.835856">
        <ele>291.347465</ele>
        <time>2021-11-21T21:46:01.749Z</time>
      </trkpt>
      <trkpt lat="47.590317" lon="7.835591">
        <ele>291.631032</ele>
        <time>2021-11-21T21:46:05.610Z</time>
      </trkpt>
      <trkpt lat="47.590421" lon="7.834731">
        <ele>292.526003</ele>
        <time>2021-11-21T21:46:17.735Z</time>
      </trkpt>
      <trkpt lat="47.590501" lon="7.833517">
        <ele>293.775456</ele>
        <time>2021-11-21T21:46:33.386Z</time>
      </trkpt>
      <trkpt lat="47.590514" lon="7.833031">
        <ele>294.219035</ele>
        <time>2021-11-21T21:46:38.853Z</time>
      </trkpt>
      <trkpt lat="47.590585" lon="7.832798">
        <ele>294.449558</ele>
        <time>2021-11-21T21:46:41.824Z</time>
      </trkpt>
      <trkpt lat="47.590805" lon="7.830509">
        <ele>296.547538</ele>
        <time>2021-11-21T21:47:14.481Z</time>
      </trkpt>
      <trkpt lat="47.590807" lon="7.830492">
        <ele>296.563762</ele>
        <time>2021-11-21T21:47:15.244Z</time>
      </trkpt>
      <trkpt lat="47.590905" lon="7.829431">
        <ele>297.570597</ele>
        <time>2021-11-21T21:47:31.051Z</time>
      </trkpt>
      <trkpt lat="47.590942" lon="7.829014">
        <ele>297.966027</ele>
        <time>2021-11-21T21:47:36.629Z</time>
      </trkpt>
      <trkpt lat="47.590997" lon="7.828435">
        <ele>298.515759</ele>
        <time>2021-11-21T21:47:44.359Z</time>
      </trkpt>
      <trkpt lat="47.591088" lon="7.827507">
        <ele>298.654581</ele>
        <time>2021-11-21T21:47:55.714Z</time>
      </trkpt>
      <trkpt lat="47.591121" lon="7.827210">
        <ele>298.622818</ele>
        <time>2021-11-21T21:47:58.645Z</time>
      </trkpt>
      <trkpt lat="47.591206" lon="7.826325">
        <ele>298.528486</ele>
        <time>2021-11-21T21:48:06.842Z</time>
      </trkpt>
      <trkpt lat="47.591232" lon="7.825464">
        <ele>298.420400</ele>
        <time>2021-11-21T21:48:13.942Z</time>
      </trkpt>
      <trkpt lat="47.591145" lon="7.824128">
        <ele>298.049195</ele>
        <time>2021-11-21T21:48:24.937Z</time>
      </trkpt>
      <trkpt lat="47.591059" lon="7.823571">
        <ele>297.891165</ele>
        <time>2021-11-21T21:48:29.760Z</time>
      </trkpt>
      <trkpt lat="47.591023" lon="7.823436">
        <ele>297.851016</ele>
        <time>2021-11-21T21:48:30.997Z</time>
      </trkpt>
      <trkpt lat="47.590993" lon="7.823343">
        <ele>297.822505</ele>
        <time>2021-11-21T21:48:31.902Z</time>
      </trkpt>
      <trkpt lat="47.590966" lon="7.823273">
        <ele>297.800203</ele>
        <time>2021-11-21T21:48:32.592Z</time>
      </trkpt>
      <trkpt lat="47.590938" lon="7.823202">
        <ele>297.777456</ele>
        <time>2021-11-21T21:48:33.335Z</time>
      </trkpt>
      <trkpt lat="47.590876" lon="7.823017">
        <ele>297.720323</ele>
        <time>2021-11-21T21:48:35.193Z</time>
      </trkpt>
      <trkpt lat="47.590820" lon="7.822776">
        <ele>298.477303</ele>
        <time>2021-11-21T21:48:40.291Z</time>
      </trkpt>
      <trkpt lat="47.590742" lon="7.822297">
        <ele>300.198655</ele>
        <time>2021-11-21T21:48:47.500Z</time>
      </trkpt>
      <trkpt lat="47.590684" lon="7.821940">
        <ele>301.481424</ele>
        <time>2021-11-21T21:48:54.776Z</time>
      </trkpt>
      <trkpt lat="47.590673" lon="7.821142">
        <ele>304.269629</ele>
        <time>2021-11-21T21:49:16.011Z</time>
      </trkpt>
      <trkpt lat="47.590665" lon="7.821069">
        <ele>304.527982</ele>
        <time>2021-11-21T21:49:17.907Z</time>
      </trkpt>
      <trkpt lat="47.590651" lon="7.821006">
        <ele>304.759696</ele>
        <time>2021-11-21T21:49:19.472Z</time>
      </trkpt>
      <trkpt lat="47.590626" lon="7.820946">
        <ele>305.006067</ele>
        <time>2021-11-21T21:49:21.138Z</time>
      </trkpt>
      <trkpt lat="47.590586" lon="7.820883">
        <ele>305.308323</ele>
        <time>2021-11-21T21:49:23.128Z</time>
      </trkpt>
      <trkpt lat="47.590612" lon="7.820777">
        <ele>305.702339</ele>
        <time>2021-11-21T21:49:26.155Z</time>
      </trkpt>
      <trkpt lat="47.590614" lon="7.820708">
        <ele>305.943597</ele>
        <time>2021-11-21T21:49:30.778Z</time>
      </trkpt>
      <trkpt lat="47.590554" lon="7.820052">
        <ele>309.721917</ele>
        <time>2021-11-21T21:49:53.572Z</time>
      </trkpt>
      <trkpt lat="47.590624" lon="7.819732">
        <ele>312.298304</ele>
        <time>2021-11-21T21:50:04.838Z</time>
      </trkpt>
      <trkpt lat="47.591075" lon="7.819121">
        <ele>319.235436</ele>
        <time>2021-11-21T21:50:45.085Z</time>
      </trkpt>
      <trkpt lat="47.591246" lon="7.818566">
        <ele>323.908372</ele>
        <time>2021-11-21T21:51:13.318Z</time>
      </trkpt>
      <trkpt lat="47.591346" lon="7.817303">
        <ele>332.779674</ele>
        <time>2021-11-21T21:52:05.505Z</time>
      </trkpt>
      <trkpt lat="47.591551" lon="7.815659">
        <ele>343.790459</ele>
        <time>2021-11-21T21:53:03.953Z</time>
      </trkpt>
      <trkpt lat="47.591546" lon="7.815266">
        <ele>345.936930</ele>
        <time>2021-11-21T21:53:16.242Z</time>
      </trkpt>
      <trkpt lat="47.591438" lon="7.814076">
        <ele>351.279453</ele>
        <time>2021-11-21T21:53:50.949Z</time>
      </trkpt>
      <trkpt lat="47.591515" lon="7.812852">
        <ele>356.749173</ele>
        <time>2021-11-21T21:54:23.477Z</time>
      </trkpt>
      <trkpt lat="47.591613" lon="7.812338">
        <ele>357.784206</ele>
        <time>2021-11-21T21:54:35.555Z</time>
      </trkpt>
      <trkpt lat="47.591696" lon="7.811913">
        <ele>358.575583</ele>
        <time>2021-11-21T21:54:44.439Z</time>
      </trkpt>
      <trkpt lat="47.591858" lon="7.811405">
        <ele>359.580640</ele>
        <time>2021-11-21T21:54:54.564Z</time>
      </trkpt>
      <trkpt lat="47.591916" lon="7.811092">
        <ele>360.161212</ele>
        <time>2021-11-21T21:54:59.512Z</time>
      </trkpt>
      <trkpt lat="47.591991" lon="7.810188">
        <ele>361.581973</ele>
        <time>2021-11-21T21:55:10.687Z</time>
      </trkpt>
      <trkpt lat="47.591999" lon="7.810096">
        <ele>361.496998</ele>
        <time>2021-11-21T21:55:11.559Z</time>
      </trkpt>
      <trkpt lat="47.592047" lon="7.809389">
        <ele>360.846076</ele>
        <time>2021-11-21T21:55:17.759Z</time>
      </trkpt>
      <trkpt lat="47.592088" lon="7.808946">
        <ele>360.436462</ele>
        <time>2021-11-21T21:55:21.198Z</time>
      </trkpt>
      <trkpt lat="47.592168" lon="7.807575">
        <ele>359.178214</ele>
        <time>2021-11-21T21:55:31.014Z</time>
      </trkpt>
      <trkpt lat="47.592169" lon="7.806682">
        <ele>358.417468</ele>
        <time>2021-11-21T21:55:37.743Z</time>
      </trkpt>
      <trkpt lat="47.592150" lon="7.806138">
        <ele>357.953415</ele>
        <time>2021-11-21T21:55:42.033Z</time>
      </trkpt>
      <trkpt lat="47.592165" lon="7.805229">
        <ele>357.178808</ele>
        <time>2021-11-21T21:55:49.583Z</time>
      </trkpt>
      <trkpt lat="47.591909" lon="7.803595">
        <ele>357.186610</ele>
        <time>2021-11-21T21:56:06.507Z</time>
      </trkpt>
      <trkpt lat="47.591811" lon="7.803249">
        <ele>357.253698</ele>
        <time>2021-11-21T21:56:10.734Z</time>
      </trkpt>
      <trkpt lat="47.591721" lon="7.802939">
        <ele>357.314034</ele>
        <time>2021-11-21T21:56:15.158Z</time>
      </trkpt>
      <trkpt lat="47.591292" lon="7.802648">
        <ele>357.500324</ele>
        <time>2021-11-21T21:56:23.069Z</time>
      </trkpt>
      <trkpt lat="47.591109" lon="7.802361">
        <ele>357.744429</ele>
        <time>2021-11-21T21:56:27.963Z</time>
      </trkpt>
      <trkpt lat="47.590927" lon="7.801871">
        <ele>358.090162</ele>
        <time>2021-11-21T21:56:34.794Z</time>
      </trkpt>
      <trkpt lat="47.590854" lon="7.801694">
        <ele>358.218390</ele>
        <time>2021-11-21T21:56:37.484Z</time>
      </trkpt>
      <trkpt lat="47.590431" lon="7.801257">
        <ele>358.690844</ele>
        <time>2021-11-21T21:56:46.354Z</time>
      </trkpt>
      <trkpt lat="47.590019" lon="7.800882">
        <ele>359.202878</ele>
        <time>2021-11-21T21:56:55.736Z</time>
      </trkpt>
      <trkpt lat="47.589959" lon="7.800811">
        <ele>359.341214</ele>
        <time>2021-11-21T21:56:57.843Z</time>
      </trkpt>
      <trkpt lat="47.589545" lon="7.800321">
        <ele>360.295811</ele>
        <time>2021-11-21T21:57:09.130Z</time>
      </trkpt>
      <trkpt lat="47.589168" lon="7.799966">
        <ele>361.100616</ele>
        <time>2021-11-21T21:57:18.726Z</time>
      </trkpt>
      <trkpt lat="47.589236" lon="7.799724">
        <ele>361.419245</ele>
        <time>2021-11-21T21:57:24.103Z</time>
      </trkpt>
      <trkpt lat="47.589230" lon="7.799281">
        <ele>361.957769</ele>
        <time>2021-11-21T21:57:32.756Z</time>
      </trkpt>
      <trkpt lat="47.589167" lon="7.798816">
        <ele>362.518132</ele>
        <time>2021-11-21T21:57:41.744Z</time>
      </trkpt>
      <trkpt lat="47.589153" lon="7.798651">
        <ele>362.706149</ele>
        <time>2021-11-21T21:57:45.080Z</time>
      </trkpt>
      <trkpt lat="47.589272" lon="7.798569">
        <ele>362.926122</ele>
        <time>2021-11-21T21:57:48.030Z</time>
      </trkpt>
      <trkpt lat="47.589486" lon="7.798387">
        <ele>363.339680</ele>
        <time>2021-11-21T21:57:53.853Z</time>
      </trkpt>
      <trkpt lat="47.589692" lon="7.798248">
        <ele>363.719080</ele>
        <time>2021-11-21T21:57:58.993Z</time>
      </trkpt>
      <trkpt lat="47.589924" lon="7.798072">
        <ele>364.155935</ele>
        <time>2021-11-21T21:58:05.171Z</time>
      </trkpt>
      <trkpt lat="47.590924" lon="7.797504">
        <ele>364.931009</ele>
        <time>2021-11-21T21:58:25.817Z</time>
      </trkpt>
      <trkpt lat="47.591349" lon="7.797193">
        <ele>364.443637</ele>
        <time>2021-11-21T21:58:32.528Z</time>
      </trkpt>
      <trkpt lat="47.591728" lon="7.796915">
        <ele>364.008813</ele>
        <time>2021-11-21T21:58:37.453Z</time>
      </trkpt>
      <trkpt lat="47.592114" lon="7.796545">
        <ele>363.536152</ele>
        <time>2021-11-21T21:58:42.305Z</time>
      </trkpt>
      <trkpt lat="47.592429" lon="7.796406">
        <ele>362.081591</ele>
        <time>2021-11-21T21:58:45.632Z</time>
      </trkpt>
      <trkpt lat="47.592802" lon="7.796368">
        <ele>360.113131</ele>
        <time>2021-11-21T21:58:49.222Z</time>
      </trkpt>
      <trkpt lat="47.593608" lon="7.796793">
        <ele>355.609251</ele>
        <time>2021-11-21T21:58:57.010Z</time>
      </trkpt>
      <trkpt lat="47.594060" lon="7.796856">
        <ele>353.193098</ele>
        <time>2021-11-21T21:59:01.175Z</time>
      </trkpt>
      <trkpt lat="47.594601" lon="7.796746">
        <ele>350.222686</ele>
        <time>2021-11-21T21:59:06.133Z</time>
      </trkpt>
      <trkpt lat="47.595007" lon="7.796558">
        <ele>347.908996</ele>
        <time>2021-11-21T21:59:11.773Z</time>
      </trkpt>
      <trkpt lat="47.595521" lon="7.796160">
        <ele>344.754757</ele>
        <time>2021-11-21T21:59:19.641Z</time>
      </trkpt>
      <trkpt lat="47.595654" lon="7.795987">
        <ele>344.053831</ele>
        <time>2021-11-21T21:59:22.061Z</time>
      </trkpt>
      <trkpt lat="47.595673" lon="7.795870">
        <ele>343.885247</ele>
        <time>2021-11-21T21:59:23.223Z</time>
      </trkpt>
      <trkpt lat="47.595693" lon="7.795743">
        <ele>343.702553</ele>
        <time>2021-11-21T21:59:24.476Z</time>
      </trkpt>
      <trkpt lat="47.595715" lon="7.795565">
        <ele>343.449049</ele>
        <time>2021-11-21T21:59:26.168Z</time>
      </trkpt>
      <trkpt lat="47.595782" lon="7.795169">
        <ele>342.877122</ele>
        <time>2021-11-21T21:59:30.377Z</time>
      </trkpt>
      <trkpt lat="47.595854" lon="7.795057">
        <ele>342.660360</ele>
        <time>2021-11-21T21:59:31.901Z</time>
      </trkpt>
      <trkpt lat="47.595854" lon="7.795057">
        <ele>342.660360</ele>
        <time>2021-11-21T21:59:31.916Z</time>
      </trkpt>
      <trkpt lat="47.595854" lon="7.795057">
        <ele>342.660360</ele>
        <time>2021-11-21T21:59:31.916Z</time>
      </trkpt>
      <trkpt lat="47.596382" lon="7.794640">
        <ele>341.417688</ele>
        <time>2021-11-21T21:59:43.007Z</time>
      </trkpt>
      <trkpt lat="47.596534" lon="7.794652">
        <ele>341.101491</ele>
        <time>2021-11-21T21:59:45.619Z</time>
      </trkpt>
      <trkpt lat="47.597144" lon="7.793996">
        <ele>340.985101</ele>
        <time>2021-11-21T22:00:00.733Z</time>
      </trkpt>
      <trkpt lat="47.597274" lon="7.793915">
        <ele>341.142328</ele>
        <time>2021-11-21T22:00:03.478Z</time>
      </trkpt>
      <trkpt lat="47.597463" lon="7.793850">
        <ele>341.358659</ele>
        <time>2021-11-21T22:00:08.437Z</time>
      </trkpt>
      <trkpt lat="47.597814" lon="7.793727">
        <ele>341.760808</ele>
        <time>2021-11-21T22:00:17.738Z</time>
      </trkpt>
      <trkpt lat="47.597954" lon="7.793533">
        <ele>341.974455</ele>
        <time>2021-11-21T22:00:22.792Z</time>
      </trkpt>
      <trkpt lat="47.597960" lon="7.793371">
        <ele>342.096444</ele>
        <time>2021-11-21T22:00:26.029Z</time>
      </trkpt>
      <trkpt lat="47.597950" lon="7.793239">
        <ele>342.196318</ele>
        <time>2021-11-21T22:00:28.767Z</time>
      </trkpt>
      <trkpt lat="47.597944" lon="7.793222">
        <ele>342.210745</ele>
        <time>2021-11-21T22:00:29.089Z</time>
      </trkpt>
      <trkpt lat="47.597897" lon="7.793092">
        <ele>342.321652</ele>
        <time>2021-11-21T22:00:31.633Z</time>
      </trkpt>
      <trkpt lat="47.597646" lon="7.792396">
        <ele>343.615906</ele>
        <time>2021-11-21T22:00:47.877Z</time>
      </trkpt>
      <trkpt lat="47.597848" lon="7.792115">
        <ele>344.427377</ele>
        <time>2021-11-21T22:00:55.342Z</time>
      </trkpt>
      <trkpt lat="47.598017" lon="7.791913">
        <ele>345.063337</ele>
        <time>2021-11-21T22:01:01.282Z</time>
      </trkpt>
      <trkpt lat="47.598252" lon="7.791731">
        <ele>345.840097</ele>
        <time>2021-11-21T22:01:08.970Z</time>
      </trkpt>
      <trkpt lat="47.598592" lon="7.791580">
        <ele>346.879966</ele>
        <time>2021-11-21T22:01:19.233Z</time>
      </trkpt>
      <trkpt lat="47.599667" lon="7.791105">
        <ele>349.465213</ele>
        <time>2021-11-21T22:01:48.143Z</time>
      </trkpt>
      <trkpt lat="47.600151" lon="7.790895">
        <ele>350.513201</ele>
        <time>2021-11-21T22:01:58.979Z</time>
      </trkpt>
      <trkpt lat="47.600211" lon="7.790869">
        <ele>350.643103</ele>
        <time>2021-11-21T22:02:00.277Z</time>
      </trkpt>
      <trkpt lat="47.600304" lon="7.790832">
        <ele>350.843205</ele>
        <time>2021-11-21T22:02:02.271Z</time>
      </trkpt>
      <trkpt lat="47.601073" lon="7.790573">
        <ele>351.971901</ele>
        <time>2021-11-21T22:02:17.727Z</time>
      </trkpt>
      <trkpt lat="47.601359" lon="7.790478">
        <ele>352.267091</ele>
        <time>2021-11-21T22:02:23.141Z</time>
      </trkpt>
      <trkpt lat="47.601768" lon="7.790511">
        <ele>352.679638</ele>
        <time>2021-11-21T22:02:30.606Z</time>
      </trkpt>
      <trkpt lat="47.601954" lon="7.790533">
        <ele>352.867569</ele>
        <time>2021-11-21T22:02:33.931Z</time>
      </trkpt>
      <trkpt lat="47.602292" lon="7.790564">
        <ele>353.208646</ele>
        <time>2021-11-21T22:02:40.139Z</time>
      </trkpt>
      <trkpt lat="47.603218" lon="7.790665">
        <ele>354.504995</ele>
        <time>2021-11-21T22:02:57.801Z</time>
      </trkpt>
      <trkpt lat="47.603379" lon="7.790683">
        <ele>354.737527</ele>
        <time>2021-11-21T22:03:01.198Z</time>
      </trkpt>
      <trkpt lat="47.603500" lon="7.790696">
        <ele>354.912249</ele>
        <time>2021-11-21T22:03:03.882Z</time>
      </trkpt>
      <trkpt lat="47.604020" lon="7.790669">
        <ele>355.661617</ele>
        <time>2021-11-21T22:03:15.264Z</time>
      </trkpt>
      <trkpt lat="47.604312" lon="7.790667">
        <ele>356.273685</ele>
        <time>2021-11-21T22:03:21.765Z</time>
      </trkpt>
      <trkpt lat="47.604673" lon="7.790747">
        <ele>357.334935</ele>
        <time>2021-11-21T22:03:30.226Z</time>
      </trkpt>
      <trkpt lat="47.604776" lon="7.790738">
        <ele>357.634924</ele>
        <time>2021-11-21T22:03:32.779Z</time>
      </trkpt>
      <trkpt lat="47.604861" lon="7.790465">
        <ele>358.224402</ele>
        <time>2021-11-21T22:03:37.881Z</time>
      </trkpt>
      <trkpt lat="47.604933" lon="7.789879">
        <ele>359.392075</ele>
        <time>2021-11-21T22:03:48.620Z</time>
      </trkpt>
      <trkpt lat="47.605245" lon="7.789093">
        <ele>361.195245</ele>
        <time>2021-11-21T22:04:06.659Z</time>
      </trkpt>
      <trkpt lat="47.606058" lon="7.787870">
        <ele>365.466457</ele>
        <time>2021-11-21T22:04:43.996Z</time>
      </trkpt>
      <trkpt lat="47.606236" lon="7.787573">
        <ele>366.454689</ele>
        <time>2021-11-21T22:04:51.432Z</time>
      </trkpt>
      <trkpt lat="47.606482" lon="7.786756">
        <ele>368.166313</ele>
        <time>2021-11-21T22:05:07.293Z</time>
      </trkpt>
      <trkpt lat="47.606894" lon="7.785802">
        <ele>369.414188</ele>
        <time>2021-11-21T22:05:23.510Z</time>
      </trkpt>
      <trkpt lat="47.607090" lon="7.785536">
        <ele>369.848204</ele>
        <time>2021-11-21T22:05:28.939Z</time>
      </trkpt>
      <trkpt lat="47.607244" lon="7.785405">
        <ele>370.138231</ele>
        <time>2021-11-21T22:05:32.129Z</time>
      </trkpt>
      <trkpt lat="47.607357" lon="7.785276">
        <ele>370.371186</ele>
        <time>2021-11-21T22:05:35.082Z</time>
      </trkpt>
      <trkpt lat="47.607784" lon="7.784501">
        <ele>371.763980</ele>
        <time>2021-11-21T22:05:46.608Z</time>
      </trkpt>
      <trkpt lat="47.607811" lon="7.784422">
        <ele>371.897988</ele>
        <time>2021-11-21T22:05:47.915Z</time>
      </trkpt>
      <trkpt lat="47.608000" lon="7.783873">
        <ele>372.830646</ele>
        <time>2021-11-21T22:05:56.667Z</time>
      </trkpt>
      <trkpt lat="47.608067" lon="7.783679">
        <ele>373.160436</ele>
        <time>2021-11-21T22:06:00.311Z</time>
      </trkpt>
      <trkpt lat="47.608293" lon="7.782840">
        <ele>374.527403</ele>
        <time>2021-11-21T22:06:17.126Z</time>
      </trkpt>
      <trkpt lat="47.608319" lon="7.782746">
        <ele>374.681127</ele>
        <time>2021-11-21T22:06:19.319Z</time>
      </trkpt>
      <trkpt lat="47.608448" lon="7.782041">
        <ele>377.505024</ele>
        <time>2021-11-21T22:06:35.234Z</time>
      </trkpt>
      <trkpt lat="47.608437" lon="7.781938">
        <ele>377.920192</ele>
        <time>2021-11-21T22:06:37.610Z</time>
      </trkpt>
      <trkpt lat="47.608309" lon="7.781587">
        <ele>379.508889</ele>
        <time>2021-11-21T22:06:47.522Z</time>
      </trkpt>
      <trkpt lat="47.608295" lon="7.781364">
        <ele>380.400523</ele>
        <time>2021-11-21T22:06:53.070Z</time>
      </trkpt>
      <trkpt lat="47.608399" lon="7.780950">
        <ele>382.159406</ele>
        <time>2021-11-21T22:07:05.094Z</time>
      </trkpt>
      <trkpt lat="47.608573" lon="7.780374">
        <ele>384.672198</ele>
        <time>2021-11-21T22:07:24.285Z</time>
      </trkpt>
      <trkpt lat="47.608894" lon="7.779407">
        <ele>390.285296</ele>
        <time>2021-11-21T22:07:58.898Z</time>
      </trkpt>
      <trkpt lat="47.609368" lon="7.778574">
        <ele>396.214281</ele>
        <time>2021-11-21T22:08:34.342Z</time>
      </trkpt>
      <trkpt lat="47.610133" lon="7.777501">
        <ele>403.884196</ele>
        <time>2021-11-21T22:09:23.203Z</time>
      </trkpt>
      <trkpt lat="47.610341" lon="7.777059">
        <ele>406.317016</ele>
        <time>2021-11-21T22:09:38.951Z</time>
      </trkpt>
      <trkpt lat="47.610448" lon="7.776605">
        <ele>408.487664</ele>
        <time>2021-11-21T22:09:52.163Z</time>
      </trkpt>
      <trkpt lat="47.610502" lon="7.776042">
        <ele>411.054246</ele>
        <time>2021-11-21T22:10:06.874Z</time>
      </trkpt>
      <trkpt lat="47.610473" lon="7.775477">
        <ele>412.808209</ele>
        <time>2021-11-21T22:10:20.324Z</time>
      </trkpt>
      <trkpt lat="47.610312" lon="7.774653">
        <ele>414.856038</ele>
        <time>2021-11-21T22:10:37.559Z</time>
      </trkpt>
      <trkpt lat="47.610139" lon="7.773592">
        <ele>417.461674</ele>
        <time>2021-11-21T22:10:56.757Z</time>
      </trkpt>
      <trkpt lat="47.610132" lon="7.773138">
        <ele>418.469317</ele>
        <time>2021-11-21T22:11:04.507Z</time>
      </trkpt>
      <trkpt lat="47.610187" lon="7.772679">
        <ele>419.268640</ele>
        <time>2021-11-21T22:11:12.203Z</time>
      </trkpt>
      <trkpt lat="47.610258" lon="7.772352">
        <ele>419.857664</ele>
        <time>2021-11-21T22:11:17.280Z</time>
      </trkpt>
      <trkpt lat="47.610490" lon="7.771899">
        <ele>420.833059</ele>
        <time>2021-11-21T22:11:26.394Z</time>
      </trkpt>
      <trkpt lat="47.611349" lon="7.770818">
        <ele>423.840656</ele>
        <time>2021-11-21T22:11:55.399Z</time>
      </trkpt>
      <trkpt lat="47.611495" lon="7.770538">
        <ele>424.549556</ele>
        <time>2021-11-21T22:12:02.691Z</time>
      </trkpt>
      <trkpt lat="47.611735" lon="7.769126">
        <ele>427.465792</ele>
        <time>2021-11-21T22:12:28.694Z</time>
      </trkpt>
      <trkpt lat="47.611843" lon="7.768871">
        <ele>428.068883</ele>
        <time>2021-11-21T22:12:34.253Z</time>
      </trkpt>
      <trkpt lat="47.611960" lon="7.768717">
        <ele>428.534953</ele>
        <time>2021-11-21T22:12:38.480Z</time>
      </trkpt>
      <trkpt lat="47.612502" lon="7.768119">
        <ele>430.549829</ele>
        <time>2021-11-21T22:12:55.913Z</time>
      </trkpt>
      <trkpt lat="47.612771" lon="7.767909">
        <ele>431.456548</ele>
        <time>2021-11-21T22:13:03.948Z</time>
      </trkpt>
      <trkpt lat="47.613003" lon="7.767758">
        <ele>432.212251</ele>
        <time>2021-11-21T22:13:10.741Z</time>
      </trkpt>
      <trkpt lat="47.613205" lon="7.767665">
        <ele>432.843138</ele>
        <time>2021-11-21T22:13:16.757Z</time>
      </trkpt>
      <trkpt lat="47.613763" lon="7.767578">
        <ele>434.659564</ele>
        <time>2021-11-21T22:13:31.755Z</time>
      </trkpt>
      <trkpt lat="47.614123" lon="7.767665">
        <ele>435.909491</ele>
        <time>2021-11-21T22:13:42.351Z</time>
      </trkpt>
      <trkpt lat="47.614663" lon="7.767520">
        <ele>437.790058</ele>
        <time>2021-11-21T22:13:59.274Z</time>
      </trkpt>
      <trkpt lat="47.614847" lon="7.767530">
        <ele>438.421019</ele>
        <time>2021-11-21T22:14:04.448Z</time>
      </trkpt>
      <trkpt lat="47.615034" lon="7.767629">
        <ele>439.101425</ele>
        <time>2021-11-21T22:14:10.198Z</time>
      </trkpt>
      <trkpt lat="47.615686" lon="7.768286">
        <ele>441.012291</ele>
        <time>2021-11-21T22:14:31.351Z</time>
      </trkpt>
      <trkpt lat="47.615847" lon="7.768379">
        <ele>441.379619</ele>
        <time>2021-11-21T22:14:35.389Z</time>
      </trkpt>
      <trkpt lat="47.616270" lon="7.768392">
        <ele>442.279131</ele>
        <time>2021-11-21T22:14:44.852Z</time>
      </trkpt>
      <trkpt lat="47.616428" lon="7.768317">
        <ele>442.631825</ele>
        <time>2021-11-21T22:14:48.655Z</time>
      </trkpt>
      <trkpt lat="47.616591" lon="7.768154">
        <ele>443.049754</ele>
        <time>2021-11-21T22:14:52.299Z</time>
      </trkpt>
      <trkpt lat="47.617229" lon="7.767356">
        <ele>444.255733</ele>
        <time>2021-11-21T22:15:08.510Z</time>
      </trkpt>
      <trkpt lat="47.617431" lon="7.767002">
        <ele>444.625149</ele>
        <time>2021-11-21T22:15:14.304Z</time>
      </trkpt>
      <trkpt lat="47.617587" lon="7.766558">
        <ele>445.023943</ele>
        <time>2021-11-21T22:15:20.652Z</time>
      </trkpt>
      <trkpt lat="47.617756" lon="7.765839">
        <ele>445.630429</ele>
        <time>2021-11-21T22:15:30.923Z</time>
      </trkpt>
      <trkpt lat="47.617927" lon="7.765048">
        <ele>446.086716</ele>
        <time>2021-11-21T22:15:42.339Z</time>
      </trkpt>
      <trkpt lat="47.618136" lon="7.764529">
        <ele>446.409263</ele>
        <time>2021-11-21T22:15:50.734Z</time>
      </trkpt>
      <trkpt lat="47.618356" lon="7.764125">
        <ele>446.686354</ele>
        <time>2021-11-21T22:15:57.466Z</time>
      </trkpt>
      <trkpt lat="47.618514" lon="7.763900">
        <ele>446.859700</ele>
        <time>2021-11-21T22:16:01.192Z</time>
      </trkpt>
      <trkpt lat="47.618753" lon="7.763750">
        <ele>447.065098</ele>
        <time>2021-11-21T22:16:05.125Z</time>
      </trkpt>
      <trkpt lat="47.619022" lon="7.763758">
        <ele>446.553610</ele>
        <time>2021-11-21T22:16:08.582Z</time>
      </trkpt>
      <trkpt lat="47.619329" lon="7.764008">
        <ele>445.741458</ele>
        <time>2021-11-21T22:16:12.632Z</time>
      </trkpt>
      <trkpt lat="47.619502" lon="7.764194">
        <ele>445.245985</ele>
        <time>2021-11-21T22:16:14.947Z</time>
      </trkpt>
      <trkpt lat="47.619627" lon="7.764641">
        <ele>444.489508</ele>
        <time>2021-11-21T22:16:18.366Z</time>
      </trkpt>
      <trkpt lat="47.619705" lon="7.765107">
        <ele>443.738954</ele>
        <time>2021-11-21T22:16:21.651Z</time>
      </trkpt>
      <trkpt lat="47.619832" lon="7.765722">
        <ele>442.591223</ele>
        <time>2021-11-21T22:16:25.927Z</time>
      </trkpt>
      <trkpt lat="47.620092" lon="7.767207">
        <ele>438.387856</ele>
        <time>2021-11-21T22:16:35.860Z</time>
      </trkpt>
      <trkpt lat="47.620307" lon="7.767734">
        <ele>436.700214</ele>
        <time>2021-11-21T22:16:39.881Z</time>
      </trkpt>
      <trkpt lat="47.620543" lon="7.768057">
        <ele>435.439805</ele>
        <time>2021-11-21T22:16:43.051Z</time>
      </trkpt>
      <trkpt lat="47.621839" lon="7.768898">
        <ele>430.873719</ele>
        <time>2021-11-21T22:16:57.264Z</time>
      </trkpt>
      <trkpt lat="47.622371" lon="7.769061">
        <ele>429.423987</ele>
        <time>2021-11-21T22:17:03.023Z</time>
      </trkpt>
      <trkpt lat="47.623349" lon="7.769241">
        <ele>427.651742</ele>
        <time>2021-11-21T22:17:13.820Z</time>
      </trkpt>
      <trkpt lat="47.624248" lon="7.769501">
        <ele>426.224984</ele>
        <time>2021-11-21T22:17:24.908Z</time>
      </trkpt>
      <trkpt lat="47.624611" lon="7.769610">
        <ele>425.817840</ele>
        <time>2021-11-21T22:17:29.516Z</time>
      </trkpt>
      <trkpt lat="47.624769" lon="7.769638">
        <ele>425.642913</ele>
        <time>2021-11-21T22:17:31.585Z</time>
      </trkpt>
      <trkpt lat="47.625096" lon="7.769705">
        <ele>425.280023</ele>
        <time>2021-11-21T22:17:35.602Z</time>
      </trkpt>
      <trkpt lat="47.625380" lon="7.769739">
        <ele>424.966801</ele>
        <time>2021-11-21T22:17:39.027Z</time>
      </trkpt>
      <trkpt lat="47.625663" lon="7.769773">
        <ele>424.654675</ele>
        <time>2021-11-21T22:17:42.338Z</time>
      </trkpt>
      <trkpt lat="47.626274" lon="7.769785">
        <ele>423.395428</ele>
        <time>2021-11-21T22:17:49.541Z</time>
      </trkpt>
      <trkpt lat="47.626675" lon="7.769973">
        <ele>422.488832</ele>
        <time>2021-11-21T22:17:54.191Z</time>
      </trkpt>
      <trkpt lat="47.627069" lon="7.770397">
        <ele>421.439576</ele>
        <time>2021-11-21T22:17:59.176Z</time>
      </trkpt>
      <trkpt lat="47.627589" lon="7.771292">
        <ele>419.913400</ele>
        <time>2021-11-21T22:18:07.453Z</time>
      </trkpt>
      <trkpt lat="47.627790" lon="7.771752">
        <ele>419.269670</ele>
        <time>2021-11-21T22:18:11.364Z</time>
      </trkpt>
      <trkpt lat="47.627843" lon="7.771878">
        <ele>419.095267</ele>
        <time>2021-11-21T22:18:12.383Z</time>
      </trkpt>
      <trkpt lat="47.628071" lon="7.772437">
        <ele>418.328040</ele>
        <time>2021-11-21T22:18:17.285Z</time>
      </trkpt>
      <trkpt lat="47.628459" lon="7.773585">
        <ele>417.770049</ele>
        <time>2021-11-21T22:18:30.068Z</time>
      </trkpt>
      <trkpt lat="47.628757" lon="7.774190">
        <ele>417.985745</ele>
        <time>2021-11-21T22:18:39.959Z</time>
      </trkpt>
      <trkpt lat="47.628835" lon="7.774386">
        <ele>418.051263</ele>
        <time>2021-11-21T22:18:42.563Z</time>
      </trkpt>
      <trkpt lat="47.628913" lon="7.774584">
        <ele>418.117277</ele>
        <time>2021-11-21T22:18:46.454Z</time>
      </trkpt>
      <trkpt lat="47.629477" lon="7.776561">
        <ele>416.320829</ele>
        <time>2021-11-21T22:19:07.259Z</time>
      </trkpt>
      <trkpt lat="47.629739" lon="7.777102">
        <ele>415.306909</ele>
        <time>2021-11-21T22:19:11.716Z</time>
      </trkpt>
      <trkpt lat="47.630120" lon="7.777463">
        <ele>414.280831</ele>
        <time>2021-11-21T22:19:16.029Z</time>
      </trkpt>
      <trkpt lat="47.630423" lon="7.777640">
        <ele>412.365596</ele>
        <time>2021-11-21T22:19:19.060Z</time>
      </trkpt>
      <trkpt lat="47.631619" lon="7.778161">
        <ele>405.034396</ele>
        <time>2021-11-21T22:19:30.459Z</time>
      </trkpt>
      <trkpt lat="47.631946" lon="7.778226">
        <ele>403.057775</ele>
        <time>2021-11-21T22:19:33.465Z</time>
      </trkpt>
      <trkpt lat="47.632866" lon="7.778126">
        <ele>397.313912</ele>
        <time>2021-11-21T22:19:41.895Z</time>
      </trkpt>
      <trkpt lat="47.633379" lon="7.777778">
        <ele>393.801711</ele>
        <time>2021-11-21T22:19:47.049Z</time>
      </trkpt>
      <trkpt lat="47.633928" lon="7.777200">
        <ele>389.545152</ele>
        <time>2021-11-21T22:19:53.187Z</time>
      </trkpt>
      <trkpt lat="47.634334" lon="7.777067">
        <ele>386.898080</ele>
        <time>2021-11-21T22:19:56.953Z</time>
      </trkpt>
      <trkpt lat="47.635865" lon="7.777362">
        <ele>377.481133</ele>
        <time>2021-11-21T22:20:11.013Z</time>
      </trkpt>
      <trkpt lat="47.636624" lon="7.777638">
        <ele>373.019754</ele>
        <time>2021-11-21T22:20:18.324Z</time>
      </trkpt>
      <trkpt lat="47.637701" lon="7.777589">
        <ele>366.717558</ele>
        <time>2021-11-21T22:20:28.320Z</time>
      </trkpt>
      <trkpt lat="47.638130" lon="7.777591">
        <ele>364.174308</ele>
        <time>2021-11-21T22:20:32.215Z</time>
      </trkpt>
      <trkpt lat="47.638523" lon="7.777631">
        <ele>361.839016</ele>
        <time>2021-11-21T22:20:35.805Z</time>
      </trkpt>
      <trkpt lat="47.638601" lon="7.777645">
        <ele>361.373240</ele>
        <time>2021-11-21T22:20:36.514Z</time>
      </trkpt>
      <trkpt lat="47.638857" lon="7.777693">
        <ele>359.925333</ele>
        <time>2021-11-21T22:20:38.908Z</time>
      </trkpt>
      <trkpt lat="47.639092" lon="7.777737">
        <ele>358.924673</ele>
        <time>2021-11-21T22:20:41.102Z</time>
      </trkpt>
      <trkpt lat="47.639551" lon="7.777821">
        <ele>356.970877</ele>
        <time>2021-11-21T22:20:45.407Z</time>
      </trkpt>
      <trkpt lat="47.639581" lon="7.777832">
        <ele>356.840327</ele>
        <time>2021-11-21T22:20:45.693Z</time>
      </trkpt>
      <trkpt lat="47.639647" lon="7.777857">
        <ele>356.552563</ele>
        <time>2021-11-21T22:20:46.334Z</time>
      </trkpt>
      <trkpt lat="47.639952" lon="7.778026">
        <ele>355.177175</ele>
        <time>2021-11-21T22:20:49.469Z</time>
      </trkpt>
      <trkpt lat="47.640214" lon="7.778094">
        <ele>354.053522</ele>
        <time>2021-11-21T22:20:52.136Z</time>
      </trkpt>
      <trkpt lat="47.640603" lon="7.778070">
        <ele>352.513220</ele>
        <time>2021-11-21T22:20:56.217Z</time>
      </trkpt>
      <trkpt lat="47.640774" lon="7.778034">
        <ele>352.414579</ele>
        <time>2021-11-21T22:20:58.165Z</time>
      </trkpt>
      <trkpt lat="47.640847" lon="7.778085">
        <ele>352.368499</ele>
        <time>2021-11-21T22:20:59.096Z</time>
      </trkpt>
      <trkpt lat="47.641101" lon="7.778647">
        <ele>352.108086</ele>
        <time>2021-11-21T22:21:05.127Z</time>
      </trkpt>
      <trkpt lat="47.641206" lon="7.778877">
        <ele>352.001177</ele>
        <time>2021-11-21T22:21:07.816Z</time>
      </trkpt>
      <trkpt lat="47.641301" lon="7.779088">
        <ele>351.903522</ele>
        <time>2021-11-21T22:21:10.448Z</time>
      </trkpt>
      <trkpt lat="47.641383" lon="7.779295">
        <ele>351.811119</ele>
        <time>2021-11-21T22:21:12.857Z</time>
      </trkpt>
      <trkpt lat="47.641504" lon="7.779524">
        <ele>351.699132</ele>
        <time>2021-11-21T22:21:15.918Z</time>
      </trkpt>
      <trkpt lat="47.641685" lon="7.779623">
        <ele>351.588962</ele>
        <time>2021-11-21T22:21:18.830Z</time>
      </trkpt>
      <trkpt lat="47.642281" lon="7.779841">
        <ele>351.570477</ele>
        <time>2021-11-21T22:21:28.696Z</time>
      </trkpt>
      <trkpt lat="47.642518" lon="7.779960">
        <ele>351.607391</ele>
        <time>2021-11-21T22:21:32.758Z</time>
      </trkpt>
      <trkpt lat="47.642942" lon="7.780152">
        <ele>351.672795</ele>
        <time>2021-11-21T22:21:39.581Z</time>
      </trkpt>
      <trkpt lat="47.643119" lon="7.780225">
        <ele>351.699900</ele>
        <time>2021-11-21T22:21:42.314Z</time>
      </trkpt>
      <trkpt lat="47.643396" lon="7.780339">
        <ele>351.742311</ele>
        <time>2021-11-21T22:21:46.611Z</time>
      </trkpt>
      <trkpt lat="47.643746" lon="7.780507">
        <ele>351.749829</ele>
        <time>2021-11-21T22:21:52.021Z</time>
      </trkpt>
      <trkpt lat="47.643785" lon="7.780623">
        <ele>351.741874</ele>
        <time>2021-11-21T22:21:53.253Z</time>
      </trkpt>
      <trkpt lat="47.643778" lon="7.781224">
        <ele>351.704991</ele>
        <time>2021-11-21T22:21:58.978Z</time>
      </trkpt>
      <trkpt lat="47.643834" lon="7.781566">
        <ele>351.683395</ele>
        <time>2021-11-21T22:22:02.336Z</time>
      </trkpt>
      <trkpt lat="47.643928" lon="7.781772">
        <ele>351.668129</ele>
        <time>2021-11-21T22:22:04.678Z</time>
      </trkpt>
      <trkpt lat="47.644146" lon="7.782149">
        <ele>351.637645</ele>
        <time>2021-11-21T22:22:09.493Z</time>
      </trkpt>
      <trkpt lat="47.644444" lon="7.782671">
        <ele>351.612902</ele>
        <time>2021-11-21T22:22:16.336Z</time>
      </trkpt>
      <trkpt lat="47.644569" lon="7.782891">
        <ele>351.632360</ele>
        <time>2021-11-21T22:22:19.181Z</time>
      </trkpt>
      <trkpt lat="47.644732" lon="7.783167">
        <ele>351.657174</ele>
        <time>2021-11-21T22:22:22.895Z</time>
      </trkpt>
      <trkpt lat="47.645408" lon="7.784254">
        <ele>351.757187</ele>
        <time>2021-11-21T22:22:38.189Z</time>
      </trkpt>
      <trkpt lat="47.645495" lon="7.784387">
        <ele>351.769720</ele>
        <time>2021-11-21T22:22:40.118Z</time>
      </trkpt>
      <trkpt lat="47.645924" lon="7.785043">
        <ele>351.986651</ele>
        <time>2021-11-21T22:22:50.035Z</time>
      </trkpt>
      <trkpt lat="47.646218" lon="7.785414">
        <ele>352.152724</ele>
        <time>2021-11-21T22:22:56.269Z</time>
      </trkpt>
      <trkpt lat="47.646561" lon="7.785746">
        <ele>352.328953</ele>
        <time>2021-11-21T22:23:02.969Z</time>
      </trkpt>
      <trkpt lat="47.647121" lon="7.786115">
        <ele>352.619492</ele>
        <time>2021-11-21T22:23:13.300Z</time>
      </trkpt>
      <trkpt lat="47.647217" lon="7.786135">
        <ele>352.693968</ele>
        <time>2021-11-21T22:23:15.207Z</time>
      </trkpt>
      <trkpt lat="47.647216" lon="7.786198">
        <ele>352.726585</ele>
        <time>2021-11-21T22:23:15.923Z</time>
      </trkpt>
      <trkpt lat="47.647326" lon="7.786370">
        <ele>352.849332</ele>
        <time>2021-11-21T22:23:18.700Z</time>
      </trkpt>
      <trkpt lat="47.647369" lon="7.786370">
        <ele>352.882368</ele>
        <time>2021-11-21T22:23:19.484Z</time>
      </trkpt>
      <trkpt lat="47.647379" lon="7.786512">
        <ele>352.956264</ele>
        <time>2021-11-21T22:23:21.560Z</time>
      </trkpt>
      <trkpt lat="47.647415" lon="7.786973">
        <ele>353.196463</ele>
        <time>2021-11-21T22:23:27.113Z</time>
      </trkpt>
      <trkpt lat="47.647437" lon="7.787254">
        <ele>353.342881</ele>
        <time>2021-11-21T22:23:30.452Z</time>
      </trkpt>
      <trkpt lat="47.647501" lon="7.788090">
        <ele>353.778357</ele>
        <time>2021-11-21T22:23:40.622Z</time>
      </trkpt>
      <trkpt lat="47.647498" lon="7.788274">
        <ele>353.873619</ele>
        <time>2021-11-21T22:23:42.788Z</time>
      </trkpt>
      <trkpt lat="47.647488" lon="7.788411">
        <ele>353.944426</ele>
        <time>2021-11-21T22:23:44.331Z</time>
      </trkpt>
      <trkpt lat="47.647471" lon="7.788455">
        <ele>353.967774</ele>
        <time>2021-11-21T22:23:44.988Z</time>
      </trkpt>
      <trkpt lat="47.647432" lon="7.788504">
        <ele>354.002687</ele>
        <time>2021-11-21T22:23:45.935Z</time>
      </trkpt>
      <trkpt lat="47.647405" lon="7.788568">
        <ele>354.037447</ele>
        <time>2021-11-21T22:23:47.092Z</time>
      </trkpt>
      <trkpt lat="47.647398" lon="7.788718">
        <ele>354.106661</ele>
        <time>2021-11-21T22:23:48.904Z</time>
      </trkpt>
      <trkpt lat="47.647419" lon="7.788788">
        <ele>354.141934</ele>
        <time>2021-11-21T22:23:49.893Z</time>
      </trkpt>
      <trkpt lat="47.647454" lon="7.788845">
        <ele>354.177436</ele>
        <time>2021-11-21T22:23:50.735Z</time>
      </trkpt>
      <trkpt lat="47.647500" lon="7.788882">
        <ele>354.213185</ele>
        <time>2021-11-21T22:23:51.740Z</time>
      </trkpt>
      <trkpt lat="47.647551" lon="7.788896">
        <ele>354.248624</ele>
        <time>2021-11-21T22:23:52.628Z</time>
      </trkpt>
      <trkpt lat="47.647612" lon="7.788984">
        <ele>354.306746</ele>
        <time>2021-11-21T22:23:54.215Z</time>
      </trkpt>
      <trkpt lat="47.647624" lon="7.789001">
        <ele>354.318080</ele>
        <time>2021-11-21T22:23:54.435Z</time>
      </trkpt>
      <trkpt lat="47.647704" lon="7.789138">
        <ele>354.401538</ele>
        <time>2021-11-21T22:23:56.718Z</time>
      </trkpt>
      <trkpt lat="47.647772" lon="7.789319">
        <ele>354.496935</ele>
        <time>2021-11-21T22:23:59.224Z</time>
      </trkpt>
      <trkpt lat="47.647846" lon="7.789831">
        <ele>354.737982</ele>
        <time>2021-11-21T22:24:05.478Z</time>
      </trkpt>
      <trkpt lat="47.647864" lon="7.790654">
        <ele>355.117025</ele>
        <time>2021-11-21T22:24:14.880Z</time>
      </trkpt>
      <trkpt lat="47.647873" lon="7.791582">
        <ele>355.266778</ele>
        <time>2021-11-21T22:24:24.995Z</time>
      </trkpt>
      <trkpt lat="47.647903" lon="7.793030">
        <ele>355.440196</ele>
        <time>2021-11-21T22:24:40.182Z</time>
      </trkpt>
      <trkpt lat="47.647916" lon="7.793798">
        <ele>355.537295</ele>
        <time>2021-11-21T22:24:47.751Z</time>
      </trkpt>
      <trkpt lat="47.647936" lon="7.794393">
        <ele>355.617066</ele>
        <time>2021-11-21T22:24:53.513Z</time>
      </trkpt>
      <trkpt lat="47.647966" lon="7.794923">
        <ele>355.688284</ele>
        <time>2021-11-21T22:24:58.958Z</time>
      </trkpt>
      <trkpt lat="47.647978" lon="7.795111">
        <ele>355.713570</ele>
        <time>2021-11-21T22:25:00.995Z</time>
      </trkpt>
      <trkpt lat="47.648078" lon="7.795921">
        <ele>355.823837</ele>
        <time>2021-11-21T22:25:10.008Z</time>
      </trkpt>
      <trkpt lat="47.648174" lon="7.796377">
        <ele>356.005527</ele>
        <time>2021-11-21T22:25:15.414Z</time>
      </trkpt>
      <trkpt lat="47.648315" lon="7.796884">
        <ele>356.287592</ele>
        <time>2021-11-21T22:25:22.074Z</time>
      </trkpt>
      <trkpt lat="47.648466" lon="7.797372">
        <ele>356.563747</ele>
        <time>2021-11-21T22:25:28.783Z</time>
      </trkpt>
      <trkpt lat="47.648660" lon="7.798005">
        <ele>356.921364</ele>
        <time>2021-11-21T22:25:37.714Z</time>
      </trkpt>
      <trkpt lat="47.648795" lon="7.798707">
        <ele>357.209901</ele>
        <time>2021-11-21T22:25:46.686Z</time>
      </trkpt>
      <trkpt lat="47.648795" lon="7.798723">
        <ele>357.208898</ele>
        <time>2021-11-21T22:25:46.947Z</time>
      </trkpt>
      <trkpt lat="47.648812" lon="7.799448">
        <ele>357.163451</ele>
        <time>2021-11-21T22:25:54.586Z</time>
      </trkpt>
      <trkpt lat="47.648778" lon="7.799781">
        <ele>357.142352</ele>
        <time>2021-11-21T22:25:57.887Z</time>
      </trkpt>
      <trkpt lat="47.648762" lon="7.799984">
        <ele>357.129547</ele>
        <time>2021-11-21T22:25:59.703Z</time>
      </trkpt>
      <trkpt lat="47.648758" lon="7.800042">
        <ele>357.125895</ele>
        <time>2021-11-21T22:26:00.230Z</time>
      </trkpt>
      <trkpt lat="47.648756" lon="7.800183">
        <ele>357.117060</ele>
        <time>2021-11-21T22:26:01.479Z</time>
      </trkpt>
      <trkpt lat="47.648756" lon="7.800267">
        <ele>357.111797</ele>
        <time>2021-11-21T22:26:02.314Z</time>
      </trkpt>
      <trkpt lat="47.648750" lon="7.800358">
        <ele>357.106069</ele>
        <time>2021-11-21T22:26:03.176Z</time>
      </trkpt>
      <trkpt lat="47.648725" lon="7.800411">
        <ele>357.102016</ele>
        <time>2021-11-21T22:26:03.736Z</time>
      </trkpt>
      <trkpt lat="47.648716" lon="7.800474">
        <ele>357.097981</ele>
        <time>2021-11-21T22:26:04.296Z</time>
      </trkpt>
      <trkpt lat="47.648722" lon="7.800528">
        <ele>357.094552</ele>
        <time>2021-11-21T22:26:04.778Z</time>
      </trkpt>
      <trkpt lat="47.648751" lon="7.800596">
        <ele>357.089511</ele>
        <time>2021-11-21T22:26:05.479Z</time>
      </trkpt>
      <trkpt lat="47.648773" lon="7.800620">
        <ele>357.086972</ele>
        <time>2021-11-21T22:26:05.827Z</time>
      </trkpt>
      <trkpt lat="47.648813" lon="7.800640">
        <ele>357.083047</ele>
        <time>2021-11-21T22:26:06.373Z</time>
      </trkpt>
      <trkpt lat="47.648813" lon="7.800640">
        <ele>357.083047</ele>
        <time>2021-11-21T22:26:06.377Z</time>
      </trkpt>
      <trkpt lat="47.648842" lon="7.800639">
        <ele>357.080349</ele>
        <time>2021-11-21T22:26:06.801Z</time>
      </trkpt>
      <trkpt lat="47.648906" lon="7.800592">
        <ele>357.073709</ele>
        <time>2021-11-21T22:26:07.914Z</time>
      </trkpt>
      <trkpt lat="47.648922" lon="7.800561">
        <ele>357.071262</ele>
        <time>2021-11-21T22:26:08.218Z</time>
      </trkpt>
      <trkpt lat="47.649025" lon="7.800505">
        <ele>357.061062</ele>
        <time>2021-11-21T22:26:09.626Z</time>
      </trkpt>
      <trkpt lat="47.649108" lon="7.800464">
        <ele>357.052927</ele>
        <time>2021-11-21T22:26:10.731Z</time>
      </trkpt>
      <trkpt lat="47.649137" lon="7.800450">
        <ele>357.053261</ele>
        <time>2021-11-21T22:26:11.126Z</time>
      </trkpt>
      <trkpt lat="47.649238" lon="7.800403">
        <ele>357.059164</ele>
        <time>2021-11-21T22:26:12.636Z</time>
      </trkpt>
      <trkpt lat="47.649238" lon="7.800402">
        <ele>357.059202</ele>
        <time>2021-11-21T22:26:12.640Z</time>
      </trkpt>
      <trkpt lat="47.649415" lon="7.800336">
        <ele>357.069379</ele>
        <time>2021-11-21T22:26:14.947Z</time>
      </trkpt>
      <trkpt lat="47.649440" lon="7.800327">
        <ele>357.070814</ele>
        <time>2021-11-21T22:26:15.256Z</time>
      </trkpt>
      <trkpt lat="47.649707" lon="7.800227">
        <ele>357.086170</ele>
        <time>2021-11-21T22:26:18.903Z</time>
      </trkpt>
      <trkpt lat="47.650046" lon="7.800072">
        <ele>357.105952</ele>
        <time>2021-11-21T22:26:23.931Z</time>
      </trkpt>
      <trkpt lat="47.650174" lon="7.800012">
        <ele>357.113438</ele>
        <time>2021-11-21T22:26:26.198Z</time>
      </trkpt>
      <trkpt lat="47.650249" lon="7.799977">
        <ele>357.117822</ele>
        <time>2021-11-21T22:26:27.479Z</time>
      </trkpt>
      <trkpt lat="47.650489" lon="7.799868">
        <ele>357.131819</ele>
        <time>2021-11-21T22:26:31.653Z</time>
      </trkpt>
      <trkpt lat="47.650602" lon="7.799816">
        <ele>357.138417</ele>
        <time>2021-11-21T22:26:33.639Z</time>
      </trkpt>
      <trkpt lat="47.650980" lon="7.799643">
        <ele>357.233478</ele>
        <time>2021-11-21T22:26:40.819Z</time>
      </trkpt>
      <trkpt lat="47.651021" lon="7.799621">
        <ele>357.257830</ele>
        <time>2021-11-21T22:26:41.568Z</time>
      </trkpt>
      <trkpt lat="47.651401" lon="7.799445">
        <ele>357.480181</ele>
        <time>2021-11-21T22:26:48.872Z</time>
      </trkpt>
      <trkpt lat="47.651510" lon="7.799390">
        <ele>357.544487</ele>
        <time>2021-11-21T22:26:51.974Z</time>
      </trkpt>
      <trkpt lat="47.651614" lon="7.799284">
        <ele>357.614953</ele>
        <time>2021-11-21T22:26:54.469Z</time>
      </trkpt>
      <trkpt lat="47.651827" lon="7.799068">
        <ele>357.759041</ele>
        <time>2021-11-21T22:27:00.745Z</time>
      </trkpt>
      <trkpt lat="47.652373" lon="7.798474">
        <ele>358.137156</ele>
        <time>2021-11-21T22:27:15.315Z</time>
      </trkpt>
      <trkpt lat="47.652486" lon="7.798377">
        <ele>358.131981</ele>
        <time>2021-11-21T22:27:17.620Z</time>
      </trkpt>
      <trkpt lat="47.652811" lon="7.798152">
        <ele>358.037199</ele>
        <time>2021-11-21T22:27:24.943Z</time>
      </trkpt>
      <trkpt lat="47.653088" lon="7.798043">
        <ele>357.961457</ele>
        <time>2021-11-21T22:27:30.570Z</time>
      </trkpt>
      <trkpt lat="47.653115" lon="7.798036">
        <ele>357.954213</ele>
        <time>2021-11-21T22:27:30.976Z</time>
      </trkpt>
      <trkpt lat="47.653274" lon="7.797996">
        <ele>357.911589</ele>
        <time>2021-11-21T22:27:33.965Z</time>
      </trkpt>
      <trkpt lat="47.653601" lon="7.798001">
        <ele>357.825155</ele>
        <time>2021-11-21T22:27:39.955Z</time>
      </trkpt>
      <trkpt lat="47.653659" lon="7.798008">
        <ele>357.809775</ele>
        <time>2021-11-21T22:27:41.131Z</time>
      </trkpt>
      <trkpt lat="47.653906" lon="7.798052">
        <ele>357.744023</ele>
        <time>2021-11-21T22:27:45.543Z</time>
      </trkpt>
      <trkpt lat="47.654126" lon="7.798108">
        <ele>357.685026</ele>
        <time>2021-11-21T22:27:50.080Z</time>
      </trkpt>
      <trkpt lat="47.654972" lon="7.798325">
        <ele>357.825651</ele>
        <time>2021-11-21T22:28:07.416Z</time>
      </trkpt>
      <trkpt lat="47.655261" lon="7.798389">
        <ele>357.875392</ele>
        <time>2021-11-21T22:28:13.836Z</time>
      </trkpt>
      <trkpt lat="47.655502" lon="7.798449">
        <ele>357.916991</ele>
        <time>2021-11-21T22:28:19.212Z</time>
      </trkpt>
      <trkpt lat="47.656074" lon="7.798592">
        <ele>358.069924</ele>
        <time>2021-11-21T22:28:31.907Z</time>
      </trkpt>
      <trkpt lat="47.656097" lon="7.798598">
        <ele>358.081625</ele>
        <time>2021-11-21T22:28:32.439Z</time>
      </trkpt>
      <trkpt lat="47.656579" lon="7.798702">
        <ele>358.325678</ele>
        <time>2021-11-21T22:28:43.269Z</time>
      </trkpt>
      <trkpt lat="47.656780" lon="7.798744">
        <ele>358.427386</ele>
        <time>2021-11-21T22:28:47.798Z</time>
      </trkpt>
      <trkpt lat="47.656989" lon="7.798756">
        <ele>358.532188</ele>
        <time>2021-11-21T22:28:52.451Z</time>
      </trkpt>
      <trkpt lat="47.657806" lon="7.798860">
        <ele>358.942177</ele>
        <time>2021-11-21T22:29:10.838Z</time>
      </trkpt>
      <trkpt lat="47.658094" lon="7.798895">
        <ele>359.084587</ele>
        <time>2021-11-21T22:29:17.157Z</time>
      </trkpt>
      <trkpt lat="47.658412" lon="7.798888">
        <ele>359.241325</ele>
        <time>2021-11-21T22:29:24.090Z</time>
      </trkpt>
      <trkpt lat="47.658617" lon="7.798885">
        <ele>359.342360</ele>
        <time>2021-11-21T22:29:28.730Z</time>
      </trkpt>
      <trkpt lat="47.658702" lon="7.798884">
        <ele>359.384252</ele>
        <time>2021-11-21T22:29:30.610Z</time>
      </trkpt>
      <trkpt lat="47.658990" lon="7.798898">
        <ele>359.526263</ele>
        <time>2021-11-21T22:29:37.072Z</time>
      </trkpt>
      <trkpt lat="47.659142" lon="7.798947">
        <ele>359.602919</ele>
        <time>2021-11-21T22:29:40.472Z</time>
      </trkpt>
      <trkpt lat="47.659353" lon="7.799038">
        <ele>359.711205</ele>
        <time>2021-11-21T22:29:45.406Z</time>
      </trkpt>
      <trkpt lat="47.659617" lon="7.799151">
        <ele>359.846682</ele>
        <time>2021-11-21T22:29:51.475Z</time>
      </trkpt>
      <trkpt lat="47.659695" lon="7.799185">
        <ele>359.886785</ele>
        <time>2021-11-21T22:29:53.297Z</time>
      </trkpt>
      <trkpt lat="47.659866" lon="7.799258">
        <ele>359.974562</ele>
        <time>2021-11-21T22:29:57.292Z</time>
      </trkpt>
      <trkpt lat="47.660413" lon="7.799490">
        <ele>360.255204</ele>
        <time>2021-11-21T22:30:09.712Z</time>
      </trkpt>
      <trkpt lat="47.660755" lon="7.799654">
        <ele>360.432502</ele>
        <time>2021-11-21T22:30:17.556Z</time>
      </trkpt>
      <trkpt lat="47.660793" lon="7.799673">
        <ele>360.452283</ele>
        <time>2021-11-21T22:30:18.472Z</time>
      </trkpt>
      <trkpt lat="47.661187" lon="7.799870">
        <ele>360.657378</ele>
        <time>2021-11-21T22:30:27.779Z</time>
      </trkpt>
      <trkpt lat="47.661224" lon="7.799885">
        <ele>360.683247</ele>
        <time>2021-11-21T22:30:28.740Z</time>
      </trkpt>
      <trkpt lat="47.661603" lon="7.800090">
        <ele>360.984928</ele>
        <time>2021-11-21T22:30:37.994Z</time>
      </trkpt>
      <trkpt lat="47.662007" lon="7.800299">
        <ele>361.304899</ele>
        <time>2021-11-21T22:30:47.780Z</time>
      </trkpt>
      <trkpt lat="47.662416" lon="7.800534">
        <ele>361.632899</ele>
        <time>2021-11-21T22:30:58.396Z</time>
      </trkpt>
      <trkpt lat="47.663470" lon="7.800659">
        <ele>362.263988</ele>
        <time>2021-11-21T22:31:22.588Z</time>
      </trkpt>
      <trkpt lat="47.663623" lon="7.800669">
        <ele>362.334515</ele>
        <time>2021-11-21T22:31:26.174Z</time>
      </trkpt>
      <trkpt lat="47.663648" lon="7.800671">
        <ele>362.346044</ele>
        <time>2021-11-21T22:31:26.728Z</time>
      </trkpt>
      <trkpt lat="47.663842" lon="7.800716">
        <ele>362.436468</ele>
        <time>2021-11-21T22:31:30.979Z</time>
      </trkpt>
      <trkpt lat="47.664106" lon="7.800746">
        <ele>362.558399</ele>
        <time>2021-11-21T22:31:36.791Z</time>
      </trkpt>
      <trkpt lat="47.664689" lon="7.800933">
        <ele>362.833071</ele>
        <time>2021-11-21T22:31:49.640Z</time>
      </trkpt>
      <trkpt lat="47.664798" lon="7.800967">
        <ele>362.839157</ele>
        <time>2021-11-21T22:31:51.922Z</time>
      </trkpt>
      <trkpt lat="47.664905" lon="7.801009">
        <ele>362.842126</ele>
        <time>2021-11-21T22:31:53.594Z</time>
      </trkpt>
      <trkpt lat="47.664978" lon="7.801054">
        <ele>362.844247</ele>
        <time>2021-11-21T22:31:54.914Z</time>
      </trkpt>
      <trkpt lat="47.665172" lon="7.801118">
        <ele>362.849578</ele>
        <time>2021-11-21T22:31:57.951Z</time>
      </trkpt>
      <trkpt lat="47.665245" lon="7.801124">
        <ele>362.851539</ele>
        <time>2021-11-21T22:31:59.019Z</time>
      </trkpt>
      <trkpt lat="47.665316" lon="7.801149">
        <ele>362.853497</ele>
        <time>2021-11-21T22:32:00.052Z</time>
      </trkpt>
      <trkpt lat="47.665387" lon="7.801168">
        <ele>362.855432</ele>
        <time>2021-11-21T22:32:01.064Z</time>
      </trkpt>
      <trkpt lat="47.665445" lon="7.801185">
        <ele>362.857018</ele>
        <time>2021-11-21T22:32:01.896Z</time>
      </trkpt>
      <trkpt lat="47.665568" lon="7.801222">
        <ele>362.860385</ele>
        <time>2021-11-21T22:32:03.632Z</time>
      </trkpt>
      <trkpt lat="47.665926" lon="7.801299">
        <ele>362.870089</ele>
        <time>2021-11-21T22:32:08.814Z</time>
      </trkpt>
      <trkpt lat="47.667457" lon="7.801591">
        <ele>363.095240</ele>
        <time>2021-11-21T22:32:32.402Z</time>
      </trkpt>
      <trkpt lat="47.667683" lon="7.801634">
        <ele>363.143126</ele>
        <time>2021-11-21T22:32:36.021Z</time>
      </trkpt>
      <trkpt lat="47.668115" lon="7.801731">
        <ele>363.234949</ele>
        <time>2021-11-21T22:32:42.890Z</time>
      </trkpt>
      <trkpt lat="47.668510" lon="7.801819">
        <ele>363.394094</ele>
        <time>2021-11-21T22:32:49.277Z</time>
      </trkpt>
      <trkpt lat="47.669789" lon="7.802222">
        <ele>364.036123</ele>
        <time>2021-11-21T22:33:11.370Z</time>
      </trkpt>
      <trkpt lat="47.670454" lon="7.802523">
        <ele>364.493157</ele>
        <time>2021-11-21T22:33:23.626Z</time>
      </trkpt>
      <trkpt lat="47.671719" lon="7.803219">
        <ele>365.488252</ele>
        <time>2021-11-21T22:33:47.638Z</time>
      </trkpt>
      <trkpt lat="47.672584" lon="7.803691">
        <ele>366.247237</ele>
        <time>2021-11-21T22:34:04.163Z</time>
      </trkpt>
      <trkpt lat="47.672895" lon="7.803860">
        <ele>366.519986</ele>
        <time>2021-11-21T22:34:10.121Z</time>
      </trkpt>
      <trkpt lat="47.673196" lon="7.804045">
        <ele>366.788283</ele>
        <time>2021-11-21T22:34:16.026Z</time>
      </trkpt>
      <trkpt lat="47.673946" lon="7.804566">
        <ele>367.638304</ele>
        <time>2021-11-21T22:34:31.785Z</time>
      </trkpt>
      <trkpt lat="47.674603" lon="7.805215">
        <ele>368.498707</ele>
        <time>2021-11-21T22:34:47.054Z</time>
      </trkpt>
      <trkpt lat="47.674775" lon="7.805343">
        <ele>368.708487</ele>
        <time>2021-11-21T22:34:50.885Z</time>
      </trkpt>
      <trkpt lat="47.674984" lon="7.805448">
        <ele>368.952188</ele>
        <time>2021-11-21T22:34:55.057Z</time>
      </trkpt>
      <trkpt lat="47.675373" lon="7.805530">
        <ele>369.417287</ele>
        <time>2021-11-21T22:35:02.679Z</time>
      </trkpt>
      <trkpt lat="47.675967" lon="7.805369">
        <ele>370.132055</ele>
        <time>2021-11-21T22:35:14.413Z</time>
      </trkpt>
      <trkpt lat="47.676130" lon="7.805401">
        <ele>370.326686</ele>
        <time>2021-11-21T22:35:17.700Z</time>
      </trkpt>
      <trkpt lat="47.678058" lon="7.806976">
        <ele>373.235763</ele>
        <time>2021-11-21T22:36:01.205Z</time>
      </trkpt>
      <trkpt lat="47.678361" lon="7.807188">
        <ele>373.802837</ele>
        <time>2021-11-21T22:36:08.725Z</time>
      </trkpt>
      <trkpt lat="47.678488" lon="7.807276">
        <ele>374.108259</ele>
        <time>2021-11-21T22:36:12.066Z</time>
      </trkpt>
      <trkpt lat="47.678718" lon="7.807469">
        <ele>374.683986</ele>
        <time>2021-11-21T22:36:17.943Z</time>
      </trkpt>
      <trkpt lat="47.679035" lon="7.807798">
        <ele>375.526809</ele>
        <time>2021-11-21T22:36:27.258Z</time>
      </trkpt>
      <trkpt lat="47.679093" lon="7.807855">
        <ele>375.678379</ele>
        <time>2021-11-21T22:36:29.032Z</time>
      </trkpt>
      <trkpt lat="47.679211" lon="7.807962">
        <ele>375.979685</ele>
        <time>2021-11-21T22:36:32.336Z</time>
      </trkpt>
      <trkpt lat="47.679337" lon="7.808074">
        <ele>376.299708</ele>
        <time>2021-11-21T22:36:35.846Z</time>
      </trkpt>
      <trkpt lat="47.679509" lon="7.808150">
        <ele>376.690799</ele>
        <time>2021-11-21T22:36:40.188Z</time>
      </trkpt>
      <trkpt lat="47.679852" lon="7.808259">
        <ele>377.455455</ele>
        <time>2021-11-21T22:36:48.643Z</time>
      </trkpt>
      <trkpt lat="47.680002" lon="7.808310">
        <ele>377.794077</ele>
        <time>2021-11-21T22:36:52.427Z</time>
      </trkpt>
      <trkpt lat="47.680190" lon="7.808369">
        <ele>378.216916</ele>
        <time>2021-11-21T22:36:57.458Z</time>
      </trkpt>
      <trkpt lat="47.680296" lon="7.808398">
        <ele>378.454099</ele>
        <time>2021-11-21T22:37:00.312Z</time>
      </trkpt>
      <trkpt lat="47.680998" lon="7.808558">
        <ele>380.016972</ele>
        <time>2021-11-21T22:37:17.537Z</time>
      </trkpt>
      <trkpt lat="47.681112" lon="7.808625">
        <ele>380.286761</ele>
        <time>2021-11-21T22:37:20.219Z</time>
      </trkpt>
      <trkpt lat="47.681354" lon="7.808953">
        <ele>381.007687</ele>
        <time>2021-11-21T22:37:27.323Z</time>
      </trkpt>
      <trkpt lat="47.681416" lon="7.808985">
        <ele>381.152124</ele>
        <time>2021-11-21T22:37:29.069Z</time>
      </trkpt>
      <trkpt lat="47.681479" lon="7.808934">
        <ele>381.310013</ele>
        <time>2021-11-21T22:37:30.503Z</time>
      </trkpt>
      <trkpt lat="47.681525" lon="7.808831">
        <ele>381.478940</ele>
        <time>2021-11-21T22:37:32.214Z</time>
      </trkpt>
      <trkpt lat="47.681566" lon="7.808766">
        <ele>381.592415</ele>
        <time>2021-11-21T22:37:33.657Z</time>
      </trkpt>
      <trkpt lat="47.681743" lon="7.808468">
        <ele>382.098687</ele>
        <time>2021-11-21T22:37:39.259Z</time>
      </trkpt>
      <trkpt lat="47.681980" lon="7.808264">
        <ele>382.617021</ele>
        <time>2021-11-21T22:37:45.032Z</time>
      </trkpt>
      <trkpt lat="47.682788" lon="7.807894">
        <ele>384.216996</ele>
        <time>2021-11-21T22:38:03.846Z</time>
      </trkpt>
      <trkpt lat="47.683018" lon="7.807663">
        <ele>384.742375</ele>
        <time>2021-11-21T22:38:10.206Z</time>
      </trkpt>
      <trkpt lat="47.683100" lon="7.807543">
        <ele>385.070604</ele>
        <time>2021-11-21T22:38:13.084Z</time>
      </trkpt>
      <trkpt lat="47.683227" lon="7.807391">
        <ele>385.585953</ele>
        <time>2021-11-21T22:38:16.478Z</time>
      </trkpt>
      <trkpt lat="47.683298" lon="7.807196">
        <ele>386.057546</ele>
        <time>2021-11-21T22:38:20.910Z</time>
      </trkpt>
      <trkpt lat="47.683414" lon="7.806933">
        <ele>386.726387</ele>
        <time>2021-11-21T22:38:25.893Z</time>
      </trkpt>
      <trkpt lat="47.683440" lon="7.806883">
        <ele>386.860783</ele>
        <time>2021-11-21T22:38:27.601Z</time>
      </trkpt>
      <trkpt lat="47.683762" lon="7.806139">
        <ele>388.742275</ele>
        <time>2021-11-21T22:38:44.505Z</time>
      </trkpt>
      <trkpt lat="47.684002" lon="7.805825">
        <ele>389.752840</ele>
        <time>2021-11-21T22:38:54.652Z</time>
      </trkpt>
      <trkpt lat="47.685433" lon="7.804734">
        <ele>394.229947</ele>
        <time>2021-11-21T22:39:39.972Z</time>
      </trkpt>
      <trkpt lat="47.685474" lon="7.804690">
        <ele>394.367563</ele>
        <time>2021-11-21T22:39:41.664Z</time>
      </trkpt>
      <trkpt lat="47.685544" lon="7.804620">
        <ele>394.597150</ele>
        <time>2021-11-21T22:39:42.842Z</time>
      </trkpt>
      <trkpt lat="47.686085" lon="7.803707">
        <ele>395.099181</ele>
        <time>2021-11-21T22:39:57.302Z</time>
      </trkpt>
      <trkpt lat="47.686282" lon="7.803470">
        <ele>394.969497</ele>
        <time>2021-11-21T22:40:00.806Z</time>
      </trkpt>
      <trkpt lat="47.686515" lon="7.803165">
        <ele>394.810625</ele>
        <time>2021-11-21T22:40:04.887Z</time>
      </trkpt>
      <trkpt lat="47.686861" lon="7.802763">
        <ele>394.585912</ele>
        <time>2021-11-21T22:40:09.810Z</time>
      </trkpt>
      <trkpt lat="47.686988" lon="7.802664">
        <ele>394.512541</ele>
        <time>2021-11-21T22:40:11.463Z</time>
      </trkpt>
      <trkpt lat="47.687345" lon="7.802442">
        <ele>394.001529</ele>
        <time>2021-11-21T22:40:15.792Z</time>
      </trkpt>
      <trkpt lat="47.687394" lon="7.802389">
        <ele>393.899994</ele>
        <time>2021-11-21T22:40:16.446Z</time>
      </trkpt>
      <trkpt lat="47.687529" lon="7.802242">
        <ele>393.619604</ele>
        <time>2021-11-21T22:40:18.308Z</time>
      </trkpt>
      <trkpt lat="47.688168" lon="7.801084">
        <ele>391.931138</ele>
        <time>2021-11-21T22:40:29.482Z</time>
      </trkpt>
      <trkpt lat="47.688515" lon="7.800635">
        <ele>391.690039</ele>
        <time>2021-11-21T22:40:34.864Z</time>
      </trkpt>
      <trkpt lat="47.688706" lon="7.800220">
        <ele>392.199769</ele>
        <time>2021-11-21T22:40:38.836Z</time>
      </trkpt>
      <trkpt lat="47.688835" lon="7.799732">
        <ele>392.731351</ele>
        <time>2021-11-21T22:40:44.964Z</time>
      </trkpt>
      <trkpt lat="47.688987" lon="7.799109">
        <ele>393.403240</ele>
        <time>2021-11-21T22:40:53.970Z</time>
      </trkpt>
      <trkpt lat="47.689229" lon="7.798474">
        <ele>394.143105</ele>
        <time>2021-11-21T22:41:06.498Z</time>
      </trkpt>
      <trkpt lat="47.689312" lon="7.798158">
        <ele>396.872677</ele>
        <time>2021-11-21T22:41:14.089Z</time>
      </trkpt>
      <trkpt lat="47.689375" lon="7.798016">
        <ele>398.259911</ele>
        <time>2021-11-21T22:41:17.580Z</time>
      </trkpt>
      <trkpt lat="47.689453" lon="7.798011">
        <ele>399.205961</ele>
        <time>2021-11-21T22:41:25.066Z</time>
      </trkpt>
      <trkpt lat="47.689913" lon="7.798189">
        <ele>404.966038</ele>
        <time>2021-11-21T22:41:58.546Z</time>
      </trkpt>
      <trkpt lat="47.690453" lon="7.798048">
        <ele>411.609831</ele>
        <time>2021-11-21T22:42:36.146Z</time>
      </trkpt>
      <trkpt lat="47.690750" lon="7.798123">
        <ele>415.260374</ele>
        <time>2021-11-21T22:43:01.175Z</time>
      </trkpt>
      <trkpt lat="47.690843" lon="7.798193">
        <ele>416.424786</ele>
        <time>2021-11-21T22:43:10.784Z</time>
      </trkpt>
      <trkpt lat="47.690896" lon="7.798268">
        <ele>417.160518</ele>
        <time>2021-11-21T22:43:18.666Z</time>
      </trkpt>
      <trkpt lat="47.691401" lon="7.799241">
        <ele>425.473442</ele>
        <time>2021-11-21T22:44:10.459Z</time>
      </trkpt>
      <trkpt lat="47.691651" lon="7.799515">
        <ele>428.596142</ele>
        <time>2021-11-21T22:44:30.191Z</time>
      </trkpt>
      <trkpt lat="47.691803" lon="7.799609">
        <ele>430.251052</ele>
        <time>2021-11-21T22:44:35.089Z</time>
      </trkpt>
      <trkpt lat="47.691891" lon="7.799651">
        <ele>431.180106</ele>
        <time>2021-11-21T22:44:41.433Z</time>
      </trkpt>
      <trkpt lat="47.691989" lon="7.799711">
        <ele>432.245520</ele>
        <time>2021-11-21T22:44:48.244Z</time>
      </trkpt>
      <trkpt lat="47.692114" lon="7.799774">
        <ele>433.572287</ele>
        <time>2021-11-21T22:44:50.279Z</time>
      </trkpt>
      <trkpt lat="47.692919" lon="7.800150">
        <ele>430.002387</ele>
        <time>2021-11-21T22:44:59.253Z</time>
      </trkpt>
      <trkpt lat="47.693323" lon="7.800215">
        <ele>427.957874</ele>
        <time>2021-11-21T22:45:02.796Z</time>
      </trkpt>
      <trkpt lat="47.693842" lon="7.800057">
        <ele>425.292394</ele>
        <time>2021-11-21T22:45:07.393Z</time>
      </trkpt>
      <trkpt lat="47.694177" lon="7.799825">
        <ele>423.031615</ele>
        <time>2021-11-21T22:45:10.606Z</time>
      </trkpt>
      <trkpt lat="47.694533" lon="7.799393">
        <ele>420.116630</ele>
        <time>2021-11-21T22:45:14.626Z</time>
      </trkpt>
      <trkpt lat="47.694748" lon="7.798935">
        <ele>417.733181</ele>
        <time>2021-11-21T22:45:17.934Z</time>
      </trkpt>
      <trkpt lat="47.694841" lon="7.798629">
        <ele>416.300059</ele>
        <time>2021-11-21T22:45:19.946Z</time>
      </trkpt>
      <trkpt lat="47.695210" lon="7.796547">
        <ele>416.642307</ele>
        <time>2021-11-21T22:45:39.433Z</time>
      </trkpt>
      <trkpt lat="47.695281" lon="7.796388">
        <ele>417.030265</ele>
        <time>2021-11-21T22:45:42.868Z</time>
      </trkpt>
      <trkpt lat="47.695384" lon="7.796279">
        <ele>417.412265</ele>
        <time>2021-11-21T22:45:49.121Z</time>
      </trkpt>
      <trkpt lat="47.695609" lon="7.796131">
        <ele>418.155577</ele>
        <time>2021-11-21T22:45:58.590Z</time>
      </trkpt>
      <trkpt lat="47.695641" lon="7.796119">
        <ele>418.255274</ele>
        <time>2021-11-21T22:46:00.426Z</time>
      </trkpt>
      <trkpt lat="47.695783" lon="7.796062">
        <ele>418.699607</ele>
        <time>2021-11-21T22:46:09.306Z</time>
      </trkpt>
      <trkpt lat="47.696810" lon="7.795970">
        <ele>426.457864</ele>
        <time>2021-11-21T22:47:06.284Z</time>
      </trkpt>
      <trkpt lat="47.697375" lon="7.796067">
        <ele>431.021826</ele>
        <time>2021-11-21T22:47:35.769Z</time>
      </trkpt>
      <trkpt lat="47.697776" lon="7.796266">
        <ele>433.283812</ele>
        <time>2021-11-21T22:47:50.398Z</time>
      </trkpt>
      <trkpt lat="47.698501" lon="7.797094">
        <ele>432.166680</ele>
        <time>2021-11-21T22:48:02.359Z</time>
      </trkpt>
      <trkpt lat="47.698783" lon="7.797250">
        <ele>431.799065</ele>
        <time>2021-11-21T22:48:05.774Z</time>
      </trkpt>
      <trkpt lat="47.699039" lon="7.797223">
        <ele>431.485530</ele>
        <time>2021-11-21T22:48:08.099Z</time>
      </trkpt>
      <trkpt lat="47.699769" lon="7.796637">
        <ele>427.747437</ele>
        <time>2021-11-21T22:48:15.737Z</time>
      </trkpt>
      <trkpt lat="47.699809" lon="7.796599">
        <ele>427.482591</ele>
        <time>2021-11-21T22:48:16.129Z</time>
      </trkpt>
      <trkpt lat="47.699950" lon="7.796524">
        <ele>426.647152</ele>
        <time>2021-11-21T22:48:17.856Z</time>
      </trkpt>
      <trkpt lat="47.700424" lon="7.796461">
        <ele>423.992424</ele>
        <time>2021-11-21T22:48:22.355Z</time>
      </trkpt>
      <trkpt lat="47.700757" lon="7.796605">
        <ele>422.057741</ele>
        <time>2021-11-21T22:48:25.544Z</time>
      </trkpt>
      <trkpt lat="47.701016" lon="7.796895">
        <ele>420.579775</ele>
        <time>2021-11-21T22:48:28.544Z</time>
      </trkpt>
      <trkpt lat="47.701286" lon="7.797436">
        <ele>418.929217</ele>
        <time>2021-11-21T22:48:32.910Z</time>
      </trkpt>
      <trkpt lat="47.701387" lon="7.797717">
        <ele>418.148536</ele>
        <time>2021-11-21T22:48:35.260Z</time>
      </trkpt>
      <trkpt lat="47.701603" lon="7.798419">
        <ele>416.256930</ele>
        <time>2021-11-21T22:48:40.585Z</time>
      </trkpt>
      <trkpt lat="47.701806" lon="7.798838">
        <ele>414.991728</ele>
        <time>2021-11-21T22:48:44.106Z</time>
      </trkpt>
      <trkpt lat="47.701995" lon="7.799018">
        <ele>414.438598</ele>
        <time>2021-11-21T22:48:46.411Z</time>
      </trkpt>
      <trkpt lat="47.702253" lon="7.799139">
        <ele>413.997680</ele>
        <time>2021-11-21T22:48:49.164Z</time>
      </trkpt>
      <trkpt lat="47.702720" lon="7.799231">
        <ele>413.229933</ele>
        <time>2021-11-21T22:48:53.992Z</time>
      </trkpt>
      <trkpt lat="47.703086" lon="7.799224">
        <ele>412.633400</ele>
        <time>2021-11-21T22:48:58.216Z</time>
      </trkpt>
      <trkpt lat="47.703295" lon="7.799223">
        <ele>412.292783</ele>
        <time>2021-11-21T22:49:01.119Z</time>
      </trkpt>
      <trkpt lat="47.703581" lon="7.799274">
        <ele>411.823334</ele>
        <time>2021-11-21T22:49:05.163Z</time>
      </trkpt>
      <trkpt lat="47.704415" lon="7.799599">
        <ele>413.304370</ele>
        <time>2021-11-21T22:49:22.120Z</time>
      </trkpt>
      <trkpt lat="47.704607" lon="7.799633">
        <ele>413.687124</ele>
        <time>2021-11-21T22:49:26.740Z</time>
      </trkpt>
      <trkpt lat="47.704720" lon="7.799644">
        <ele>413.911288</ele>
        <time>2021-11-21T22:49:29.509Z</time>
      </trkpt>
      <trkpt lat="47.705001" lon="7.799646">
        <ele>414.467535</ele>
        <time>2021-11-21T22:49:37.247Z</time>
      </trkpt>
      <trkpt lat="47.705257" lon="7.799632">
        <ele>414.974632</ele>
        <time>2021-11-21T22:49:44.164Z</time>
      </trkpt>
      <trkpt lat="47.706285" lon="7.799516">
        <ele>418.508882</ele>
        <time>2021-11-21T22:50:12.451Z</time>
      </trkpt>
      <trkpt lat="47.706361" lon="7.799500">
        <ele>418.791726</ele>
        <time>2021-11-21T22:50:15.216Z</time>
      </trkpt>
      <trkpt lat="47.706428" lon="7.799486">
        <ele>419.041039</ele>
        <time>2021-11-21T22:50:16.939Z</time>
      </trkpt>
      <trkpt lat="47.706866" lon="7.799207">
        <ele>420.797018</ele>
        <time>2021-11-21T22:50:30.697Z</time>
      </trkpt>
      <trkpt lat="47.707554" lon="7.798371">
        <ele>424.219887</ele>
        <time>2021-11-21T22:51:01.447Z</time>
      </trkpt>
      <trkpt lat="47.707833" lon="7.798146">
        <ele>425.469693</ele>
        <time>2021-11-21T22:51:11.552Z</time>
      </trkpt>
      <trkpt lat="47.708081" lon="7.797985">
        <ele>426.535224</ele>
        <time>2021-11-21T22:51:19.670Z</time>
      </trkpt>
      <trkpt lat="47.708492" lon="7.797738">
        <ele>428.280727</ele>
        <time>2021-11-21T22:51:32.474Z</time>
      </trkpt>
      <trkpt lat="47.708802" lon="7.797533">
        <ele>429.365176</ele>
        <time>2021-11-21T22:51:41.965Z</time>
      </trkpt>
      <trkpt lat="47.709006" lon="7.797377">
        <ele>429.905294</ele>
        <time>2021-11-21T22:51:47.784Z</time>
      </trkpt>
      <trkpt lat="47.710221" lon="7.795853">
        <ele>433.713882</ele>
        <time>2021-11-21T22:52:23.998Z</time>
      </trkpt>
      <trkpt lat="47.710566" lon="7.795581">
        <ele>434.775863</ele>
        <time>2021-11-21T22:52:33.903Z</time>
      </trkpt>
      <trkpt lat="47.710884" lon="7.795563">
        <ele>435.641214</ele>
        <time>2021-11-21T22:52:42.174Z</time>
      </trkpt>
      <trkpt lat="47.711006" lon="7.795566">
        <ele>435.973008</ele>
        <time>2021-11-21T22:52:46.139Z</time>
      </trkpt>
      <trkpt lat="47.711772" lon="7.795647">
        <ele>438.061223</ele>
        <time>2021-11-21T22:53:06.590Z</time>
      </trkpt>
      <trkpt lat="47.712384" lon="7.795687">
        <ele>438.623017</ele>
        <time>2021-11-21T22:53:22.155Z</time>
      </trkpt>
      <trkpt lat="47.713112" lon="7.795601">
        <ele>439.247509</ele>
        <time>2021-11-21T22:53:34.910Z</time>
      </trkpt>
      <trkpt lat="47.713674" lon="7.795304">
        <ele>439.710374</ele>
        <time>2021-11-21T22:53:42.111Z</time>
      </trkpt>
      <trkpt lat="47.714002" lon="7.794949">
        <ele>439.898253</ele>
        <time>2021-11-21T22:53:46.849Z</time>
      </trkpt>
      <trkpt lat="47.714257" lon="7.794564">
        <ele>440.066563</ele>
        <time>2021-11-21T22:53:51.558Z</time>
      </trkpt>
      <trkpt lat="47.714438" lon="7.794381">
        <ele>440.167926</ele>
        <time>2021-11-21T22:53:55.783Z</time>
      </trkpt>
      <trkpt lat="47.715017" lon="7.794043">
        <ele>440.455962</ele>
        <time>2021-11-21T22:54:09.522Z</time>
      </trkpt>
      <trkpt lat="47.715268" lon="7.793948">
        <ele>441.054041</ele>
        <time>2021-11-21T22:54:15.205Z</time>
      </trkpt>
      <trkpt lat="47.715366" lon="7.793911">
        <ele>441.354067</ele>
        <time>2021-11-21T22:54:17.991Z</time>
      </trkpt>
      <trkpt lat="47.715611" lon="7.793868">
        <ele>442.086094</ele>
        <time>2021-11-21T22:54:23.658Z</time>
      </trkpt>
      <trkpt lat="47.715801" lon="7.793881">
        <ele>442.650469</ele>
        <time>2021-11-21T22:54:29.838Z</time>
      </trkpt>
      <trkpt lat="47.715977" lon="7.793929">
        <ele>443.181424</ele>
        <time>2021-11-21T22:54:34.651Z</time>
      </trkpt>
      <trkpt lat="47.716155" lon="7.794018">
        <ele>443.738680</ele>
        <time>2021-11-21T22:54:40.558Z</time>
      </trkpt>
      <trkpt lat="47.716557" lon="7.794089">
        <ele>444.939907</ele>
        <time>2021-11-21T22:54:51.884Z</time>
      </trkpt>
      <trkpt lat="47.717221" lon="7.793652">
        <ele>446.213298</ele>
        <time>2021-11-21T22:55:11.687Z</time>
      </trkpt>
      <trkpt lat="47.717545" lon="7.793687">
        <ele>446.508350</ele>
        <time>2021-11-21T22:55:19.075Z</time>
      </trkpt>
      <trkpt lat="47.717592" lon="7.793730">
        <ele>446.558477</ele>
        <time>2021-11-21T22:55:19.622Z</time>
      </trkpt>
      <trkpt lat="47.717830" lon="7.793953">
        <ele>446.814009</ele>
        <time>2021-11-21T22:55:24.438Z</time>
      </trkpt>
      <trkpt lat="47.718606" lon="7.794776">
        <ele>447.565211</ele>
        <time>2021-11-21T22:55:36.698Z</time>
      </trkpt>
      <trkpt lat="47.718887" lon="7.795000">
        <ele>447.705074</ele>
        <time>2021-11-21T22:55:41.229Z</time>
      </trkpt>
      <trkpt lat="47.719001" lon="7.795097">
        <ele>447.762692</ele>
        <time>2021-11-21T22:55:43.334Z</time>
      </trkpt>
      <trkpt lat="47.719186" lon="7.795217">
        <ele>447.851230</ele>
        <time>2021-11-21T22:55:46.594Z</time>
      </trkpt>
      <trkpt lat="47.719696" lon="7.795605">
        <ele>448.102533</ele>
        <time>2021-11-21T22:55:56.008Z</time>
      </trkpt>
      <trkpt lat="47.719767" lon="7.795671">
        <ele>448.139264</ele>
        <time>2021-11-21T22:55:58.051Z</time>
      </trkpt>
      <trkpt lat="47.719905" lon="7.795794">
        <ele>448.209844</ele>
        <time>2021-11-21T22:56:00.955Z</time>
      </trkpt>
      <trkpt lat="47.720020" lon="7.795910">
        <ele>448.505110</ele>
        <time>2021-11-21T22:56:04.284Z</time>
      </trkpt>
      <trkpt lat="47.720109" lon="7.796013">
        <ele>449.043468</ele>
        <time>2021-11-21T22:56:06.455Z</time>
      </trkpt>
      <trkpt lat="47.720176" lon="7.796131">
        <ele>449.539275</ele>
        <time>2021-11-21T22:56:08.454Z</time>
      </trkpt>
      <trkpt lat="47.720245" lon="7.796275">
        <ele>450.106951</ele>
        <time>2021-11-21T22:56:11.213Z</time>
      </trkpt>
      <trkpt lat="47.720329" lon="7.796339">
        <ele>450.557474</ele>
        <time>2021-11-21T22:56:13.732Z</time>
      </trkpt>
      <trkpt lat="47.720359" lon="7.796352">
        <ele>450.706622</ele>
        <time>2021-11-21T22:56:14.360Z</time>
      </trkpt>
      <trkpt lat="47.720454" lon="7.796393">
        <ele>451.178773</ele>
        <time>2021-11-21T22:56:17.451Z</time>
      </trkpt>
      <trkpt lat="47.720727" lon="7.796495">
        <ele>452.522308</ele>
        <time>2021-11-21T22:56:25.489Z</time>
      </trkpt>
      <trkpt lat="47.720852" lon="7.796616">
        <ele>453.234276</ele>
        <time>2021-11-21T22:56:30.008Z</time>
      </trkpt>
      <trkpt lat="47.720875" lon="7.796674">
        <ele>453.450458</ele>
        <time>2021-11-21T22:56:31.375Z</time>
      </trkpt>
      <trkpt lat="47.720893" lon="7.796712">
        <ele>453.599685</ele>
        <time>2021-11-21T22:56:33.483Z</time>
      </trkpt>
      <trkpt lat="47.721034" lon="7.797053">
        <ele>454.884897</ele>
        <time>2021-11-21T22:56:45.349Z</time>
      </trkpt>
      <trkpt lat="47.721147" lon="7.797193">
        <ele>455.587010</ele>
        <time>2021-11-21T22:56:52.072Z</time>
      </trkpt>
      <trkpt lat="47.721338" lon="7.797249">
        <ele>456.516200</ele>
        <time>2021-11-21T22:57:01.293Z</time>
      </trkpt>
      <trkpt lat="47.721564" lon="7.797157">
        <ele>458.071347</ele>
        <time>2021-11-21T22:57:12.060Z</time>
      </trkpt>
      <trkpt lat="47.721651" lon="7.797095">
        <ele>458.782390</ele>
        <time>2021-11-21T22:57:17.224Z</time>
      </trkpt>
      <trkpt lat="47.721946" lon="7.796865">
        <ele>461.237358</ele>
        <time>2021-11-21T22:57:33.187Z</time>
      </trkpt>
      <trkpt lat="47.722099" lon="7.796783">
        <ele>462.435977</ele>
        <time>2021-11-21T22:57:40.821Z</time>
      </trkpt>
      <trkpt lat="47.722311" lon="7.796736">
        <ele>464.015639</ele>
        <time>2021-11-21T22:57:52.034Z</time>
      </trkpt>
      <trkpt lat="47.722649" lon="7.796876">
        <ele>466.601501</ele>
        <time>2021-11-21T22:58:07.690Z</time>
      </trkpt>
      <trkpt lat="47.722892" lon="7.797098">
        <ele>468.703520</ele>
        <time>2021-11-21T22:58:19.269Z</time>
      </trkpt>
      <trkpt lat="47.723439" lon="7.797895">
        <ele>470.069066</ele>
        <time>2021-11-21T22:58:46.929Z</time>
      </trkpt>
      <trkpt lat="47.723680" lon="7.798115">
        <ele>470.060118</ele>
        <time>2021-11-21T22:58:52.222Z</time>
      </trkpt>
      <trkpt lat="47.724207" lon="7.798389">
        <ele>470.042454</ele>
        <time>2021-11-21T22:58:58.333Z</time>
      </trkpt>
      <trkpt lat="47.724478" lon="7.798468">
        <ele>470.033716</ele>
        <time>2021-11-21T22:59:00.991Z</time>
      </trkpt>
      <trkpt lat="47.725104" lon="7.798414">
        <ele>466.721717</ele>
        <time>2021-11-21T22:59:06.602Z</time>
      </trkpt>
      <trkpt lat="47.726005" lon="7.798110">
        <ele>460.886194</ele>
        <time>2021-11-21T22:59:14.913Z</time>
      </trkpt>
      <trkpt lat="47.726145" lon="7.798081">
        <ele>459.993400</ele>
        <time>2021-11-21T22:59:16.151Z</time>
      </trkpt>
      <trkpt lat="47.726261" lon="7.798073">
        <ele>459.259946</ele>
        <time>2021-11-21T22:59:17.264Z</time>
      </trkpt>
      <trkpt lat="47.726602" lon="7.798082">
        <ele>458.409397</ele>
        <time>2021-11-21T22:59:20.441Z</time>
      </trkpt>
      <trkpt lat="47.726671" lon="7.798090">
        <ele>458.336549</ele>
        <time>2021-11-21T22:59:21.133Z</time>
      </trkpt>
      <trkpt lat="47.726792" lon="7.798099">
        <ele>458.209030</ele>
        <time>2021-11-21T22:59:22.284Z</time>
      </trkpt>
      <trkpt lat="47.726809" lon="7.798103">
        <ele>458.190914</ele>
        <time>2021-11-21T22:59:22.443Z</time>
      </trkpt>
      <trkpt lat="47.727023" lon="7.798164">
        <ele>457.961563</ele>
        <time>2021-11-21T22:59:24.648Z</time>
      </trkpt>
      <trkpt lat="47.727239" lon="7.798257">
        <ele>457.724867</ele>
        <time>2021-11-21T22:59:26.883Z</time>
      </trkpt>
      <trkpt lat="47.728527" lon="7.799103">
        <ele>459.633419</ele>
        <time>2021-11-21T23:00:01.085Z</time>
      </trkpt>
      <trkpt lat="47.728596" lon="7.799160">
        <ele>460.077744</ele>
        <time>2021-11-21T23:00:04.116Z</time>
      </trkpt>
      <trkpt lat="47.728613" lon="7.799173">
        <ele>460.185351</ele>
        <time>2021-11-21T23:00:04.848Z</time>
      </trkpt>
      <trkpt lat="47.728772" lon="7.799331">
        <ele>461.261863</ele>
        <time>2021-11-21T23:00:12.488Z</time>
      </trkpt>
      <trkpt lat="47.729019" lon="7.799596">
        <ele>462.976423</ele>
        <time>2021-11-21T23:00:25.117Z</time>
      </trkpt>
      <trkpt lat="47.729229" lon="7.799880">
        <ele>464.574388</ele>
        <time>2021-11-21T23:00:36.763Z</time>
      </trkpt>
      <trkpt lat="47.729404" lon="7.800144">
        <ele>465.977750</ele>
        <time>2021-11-21T23:00:47.731Z</time>
      </trkpt>
      <trkpt lat="47.729537" lon="7.800376">
        <ele>467.216879</ele>
        <time>2021-11-21T23:00:57.779Z</time>
      </trkpt>
      <trkpt lat="47.730244" lon="7.801593">
        <ele>475.548697</ele>
        <time>2021-11-21T23:01:50.535Z</time>
      </trkpt>
      <trkpt lat="47.730684" lon="7.802664">
        <ele>481.790983</ele>
        <time>2021-11-21T23:02:26.657Z</time>
      </trkpt>
      <trkpt lat="47.730899" lon="7.803042">
        <ele>483.840857</ele>
        <time>2021-11-21T23:02:39.697Z</time>
      </trkpt>
      <trkpt lat="47.731525" lon="7.803871">
        <ele>489.001895</ele>
        <time>2021-11-21T23:03:12.165Z</time>
      </trkpt>
      <trkpt lat="47.732018" lon="7.804437">
        <ele>492.555697</ele>
        <time>2021-11-21T23:03:36.859Z</time>
      </trkpt>
      <trkpt lat="47.732824" lon="7.804917">
        <ele>496.410530</ele>
        <time>2021-11-21T23:04:07.705Z</time>
      </trkpt>
      <trkpt lat="47.733333" lon="7.805354">
        <ele>499.020069</ele>
        <time>2021-11-21T23:04:26.607Z</time>
      </trkpt>
      <trkpt lat="47.734071" lon="7.806607">
        <ele>498.664796</ele>
        <time>2021-11-21T23:04:49.140Z</time>
      </trkpt>
      <trkpt lat="47.734336" lon="7.807352">
        <ele>497.972207</ele>
        <time>2021-11-21T23:04:54.691Z</time>
      </trkpt>
      <trkpt lat="47.734442" lon="7.807505">
        <ele>497.791697</ele>
        <time>2021-11-21T23:04:56.111Z</time>
      </trkpt>
      <trkpt lat="47.734570" lon="7.807582">
        <ele>497.622981</ele>
        <time>2021-11-21T23:04:57.427Z</time>
      </trkpt>
      <trkpt lat="47.734871" lon="7.807585">
        <ele>496.288192</ele>
        <time>2021-11-21T23:05:00.274Z</time>
      </trkpt>
      <trkpt lat="47.735057" lon="7.807648">
        <ele>495.432310</ele>
        <time>2021-11-21T23:05:01.966Z</time>
      </trkpt>
      <trkpt lat="47.735424" lon="7.807956">
        <ele>493.541553</ele>
        <time>2021-11-21T23:05:05.844Z</time>
      </trkpt>
      <trkpt lat="47.736232" lon="7.808830">
        <ele>489.769362</ele>
        <time>2021-11-21T23:05:15.492Z</time>
      </trkpt>
      <trkpt lat="47.736261" lon="7.808882">
        <ele>489.861951</ele>
        <time>2021-11-21T23:05:15.889Z</time>
      </trkpt>
      <trkpt lat="47.736318" lon="7.808983">
        <ele>490.042668</ele>
        <time>2021-11-21T23:05:17.169Z</time>
      </trkpt>
      <trkpt lat="47.736352" lon="7.809090">
        <ele>490.204871</ele>
        <time>2021-11-21T23:05:18.713Z</time>
      </trkpt>
      <trkpt lat="47.736385" lon="7.809193">
        <ele>490.361247</ele>
        <time>2021-11-21T23:05:20.175Z</time>
      </trkpt>
      <trkpt lat="47.736402" lon="7.809247">
        <ele>490.442969</ele>
        <time>2021-11-21T23:05:20.915Z</time>
      </trkpt>
      <trkpt lat="47.736642" lon="7.810173">
        <ele>491.803157</ele>
        <time>2021-11-21T23:05:37.175Z</time>
      </trkpt>
      <trkpt lat="47.737156" lon="7.810364">
        <ele>492.882899</ele>
        <time>2021-11-21T23:05:55.165Z</time>
      </trkpt>
      <trkpt lat="47.737447" lon="7.810520">
        <ele>494.046105</ele>
        <time>2021-11-21T23:06:07.345Z</time>
      </trkpt>
      <trkpt lat="47.737920" lon="7.810756">
        <ele>496.866524</ele>
        <time>2021-11-21T23:06:24.149Z</time>
      </trkpt>
      <trkpt lat="47.738095" lon="7.810766">
        <ele>497.856540</ele>
        <time>2021-11-21T23:06:30.621Z</time>
      </trkpt>
      <trkpt lat="47.738201" lon="7.810721">
        <ele>498.479709</ele>
        <time>2021-11-21T23:06:33.816Z</time>
      </trkpt>
      <trkpt lat="47.738360" lon="7.810584">
        <ele>499.518549</ele>
        <time>2021-11-21T23:06:40.127Z</time>
      </trkpt>
      <trkpt lat="47.738384" lon="7.810531">
        <ele>499.761463</ele>
        <time>2021-11-21T23:06:44.304Z</time>
      </trkpt>
      <trkpt lat="47.738392" lon="7.810496">
        <ele>499.902001</ele>
        <time>2021-11-21T23:06:44.619Z</time>
      </trkpt>
      <trkpt lat="47.738390" lon="7.810354">
        <ele>500.441972</ele>
        <time>2021-11-21T23:06:47.660Z</time>
      </trkpt>
      <trkpt lat="47.738347" lon="7.810287">
        <ele>500.794067</ele>
        <time>2021-11-21T23:06:49.515Z</time>
      </trkpt>
      <trkpt lat="47.737782" lon="7.810236">
        <ele>504.254640</ele>
        <time>2021-11-21T23:07:13.850Z</time>
      </trkpt>
      <trkpt lat="47.737535" lon="7.810080">
        <ele>506.416767</ele>
        <time>2021-11-21T23:07:23.177Z</time>
      </trkpt>
      <trkpt lat="47.737461" lon="7.809925">
        <ele>507.446737</ele>
        <time>2021-11-21T23:07:30.546Z</time>
      </trkpt>
      <trkpt lat="47.737490" lon="7.809710">
        <ele>508.634910</ele>
        <time>2021-11-21T23:07:35.763Z</time>
      </trkpt>
      <trkpt lat="47.737569" lon="7.809637">
        <ele>509.384298</ele>
        <time>2021-11-21T23:07:38.776Z</time>
      </trkpt>
      <trkpt lat="47.737622" lon="7.809587">
        <ele>509.890007</ele>
        <time>2021-11-21T23:07:43.798Z</time>
      </trkpt>
      <trkpt lat="47.738283" lon="7.809052">
        <ele>515.953453</ele>
        <time>2021-11-21T23:08:18.180Z</time>
      </trkpt>
      <trkpt lat="47.738969" lon="7.808704">
        <ele>522.853910</ele>
        <time>2021-11-21T23:09:00.584Z</time>
      </trkpt>
      <trkpt lat="47.739372" lon="7.808061">
        <ele>528.904570</ele>
        <time>2021-11-21T23:09:34.610Z</time>
      </trkpt>
      <trkpt lat="47.739906" lon="7.807936">
        <ele>534.438067</ele>
        <time>2021-11-21T23:10:05.476Z</time>
      </trkpt>
      <trkpt lat="47.740446" lon="7.807143">
        <ele>541.309370</ele>
        <time>2021-11-21T23:10:45.279Z</time>
      </trkpt>
      <trkpt lat="47.740638" lon="7.806728">
        <ele>544.251512</ele>
        <time>2021-11-21T23:11:01.640Z</time>
      </trkpt>
      <trkpt lat="47.740735" lon="7.806757">
        <ele>545.110844</ele>
        <time>2021-11-21T23:11:06.179Z</time>
      </trkpt>
      <trkpt lat="47.740759" lon="7.806926">
        <ele>546.119699</ele>
        <time>2021-11-21T23:11:11.523Z</time>
      </trkpt>
      <trkpt lat="47.740390" lon="7.807571">
        <ele>551.065781</ele>
        <time>2021-11-21T23:11:36.993Z</time>
      </trkpt>
      <trkpt lat="47.740355" lon="7.807924">
        <ele>553.303018</ele>
        <time>2021-11-21T23:11:49.050Z</time>
      </trkpt>
      <trkpt lat="47.740517" lon="7.808610">
        <ele>558.072298</ele>
        <time>2021-11-21T23:12:15.311Z</time>
      </trkpt>
      <trkpt lat="47.740674" lon="7.808785">
        <ele>559.986185</ele>
        <time>2021-11-21T23:12:26.305Z</time>
      </trkpt>
      <trkpt lat="47.740847" lon="7.808797">
        <ele>561.675498</ele>
        <time>2021-11-21T23:12:35.749Z</time>
      </trkpt>
      <trkpt lat="47.741313" lon="7.808737">
        <ele>566.237968</ele>
        <time>2021-11-21T23:13:01.864Z</time>
      </trkpt>
      <trkpt lat="47.741930" lon="7.808658">
        <ele>572.321936</ele>
        <time>2021-11-21T23:13:36.659Z</time>
      </trkpt>
      <trkpt lat="47.742215" lon="7.808534">
        <ele>575.262822</ele>
        <time>2021-11-21T23:13:53.131Z</time>
      </trkpt>
      <trkpt lat="47.742494" lon="7.808322">
        <ele>578.365780</ele>
        <time>2021-11-21T23:14:11.641Z</time>
      </trkpt>
      <trkpt lat="47.742617" lon="7.808291">
        <ele>579.601307</ele>
        <time>2021-11-21T23:14:18.417Z</time>
      </trkpt>
      <trkpt lat="47.742977" lon="7.808372">
        <ele>583.207217</ele>
        <time>2021-11-21T23:14:37.996Z</time>
      </trkpt>
      <trkpt lat="47.743215" lon="7.808508">
        <ele>585.732326</ele>
        <time>2021-11-21T23:14:50.537Z</time>
      </trkpt>
      <trkpt lat="47.743303" lon="7.808658">
        <ele>587.058030</ele>
        <time>2021-11-21T23:14:59.172Z</time>
      </trkpt>
      <trkpt lat="47.743346" lon="7.808852">
        <ele>588.557868</ele>
        <time>2021-11-21T23:15:05.368Z</time>
      </trkpt>
      <trkpt lat="47.743350" lon="7.809230">
        <ele>591.379487</ele>
        <time>2021-11-21T23:15:17.328Z</time>
      </trkpt>
      <trkpt lat="47.743351" lon="7.809252">
        <ele>591.544063</ele>
        <time>2021-11-21T23:15:17.456Z</time>
      </trkpt>
      <trkpt lat="47.743359" lon="7.809373">
        <ele>592.451522</ele>
        <time>2021-11-21T23:15:22.181Z</time>
      </trkpt>
      <trkpt lat="47.743409" lon="7.809470">
        <ele>593.363729</ele>
        <time>2021-11-21T23:15:24.837Z</time>
      </trkpt>
      <trkpt lat="47.743554" lon="7.809502">
        <ele>594.990737</ele>
        <time>2021-11-21T23:15:33.138Z</time>
      </trkpt>
      <trkpt lat="47.743895" lon="7.809201">
        <ele>599.392085</ele>
        <time>2021-11-21T23:15:57.307Z</time>
      </trkpt>
      <trkpt lat="47.744087" lon="7.809132">
        <ele>601.584471</ele>
        <time>2021-11-21T23:16:08.839Z</time>
      </trkpt>
      <trkpt lat="47.744147" lon="7.809137">
        <ele>602.251467</ele>
        <time>2021-11-21T23:16:13.508Z</time>
      </trkpt>
      <trkpt lat="47.744202" lon="7.809162">
        <ele>602.889802</ele>
        <time>2021-11-21T23:16:16.282Z</time>
      </trkpt>
      <trkpt lat="47.744698" lon="7.809916">
        <ele>612.230823</ele>
        <time>2021-11-21T23:17:05.999Z</time>
      </trkpt>
      <trkpt lat="47.744730" lon="7.809945">
        <ele>612.819501</ele>
        <time>2021-11-21T23:17:08.467Z</time>
      </trkpt>
      <trkpt lat="47.744795" lon="7.809969">
        <ele>613.871595</ele>
        <time>2021-11-21T23:17:15.495Z</time>
      </trkpt>
      <trkpt lat="47.745334" lon="7.809984">
        <ele>622.340288</ele>
        <time>2021-11-21T23:17:56.709Z</time>
      </trkpt>
      <trkpt lat="47.745884" lon="7.810223">
        <ele>631.341586</ele>
        <time>2021-11-21T23:18:44.983Z</time>
      </trkpt>
      <trkpt lat="47.745978" lon="7.810259">
        <ele>632.866421</ele>
        <time>2021-11-21T23:18:54.627Z</time>
      </trkpt>
      <trkpt lat="47.746413" lon="7.810443">
        <ele>638.699383</ele>
        <time>2021-11-21T23:19:30.412Z</time>
      </trkpt>
      <trkpt lat="47.746758" lon="7.810674">
        <ele>642.959555</ele>
        <time>2021-11-21T23:19:55.651Z</time>
      </trkpt>
      <trkpt lat="47.746819" lon="7.810744">
        <ele>643.827101</ele>
        <time>2021-11-21T23:20:01.211Z</time>
      </trkpt>
      <trkpt lat="47.746937" lon="7.810913">
        <ele>645.671687</ele>
        <time>2021-11-21T23:20:12.887Z</time>
      </trkpt>
      <trkpt lat="47.747257" lon="7.811421">
        <ele>650.941903</ele>
        <time>2021-11-21T23:20:38.317Z</time>
      </trkpt>
      <trkpt lat="47.747513" lon="7.811985">
        <ele>655.859146</ele>
        <time>2021-11-21T23:20:57.789Z</time>
      </trkpt>
      <trkpt lat="47.747533" lon="7.812030">
        <ele>656.001272</ele>
        <time>2021-11-21T23:20:59.325Z</time>
      </trkpt>
      <trkpt lat="47.747579" lon="7.812106">
        <ele>656.270694</ele>
        <time>2021-11-21T23:21:00.564Z</time>
      </trkpt>
      <trkpt lat="47.747696" lon="7.812150">
        <ele>656.743590</ele>
        <time>2021-11-21T23:21:04.088Z</time>
      </trkpt>
      <trkpt lat="47.748125" lon="7.811734">
        <ele>658.750393</ele>
        <time>2021-11-21T23:21:20.658Z</time>
      </trkpt>
      <trkpt lat="47.748423" lon="7.811605">
        <ele>659.966567</ele>
        <time>2021-11-21T23:21:27.886Z</time>
      </trkpt>
      <trkpt lat="47.748609" lon="7.811497">
        <ele>660.748988</ele>
        <time>2021-11-21T23:21:33.128Z</time>
      </trkpt>
      <trkpt lat="47.748804" lon="7.811278">
        <ele>661.706485</ele>
        <time>2021-11-21T23:21:40.700Z</time>
      </trkpt>
      <trkpt lat="47.749235" lon="7.810895">
        <ele>663.931822</ele>
        <time>2021-11-21T23:21:53.246Z</time>
      </trkpt>
      <trkpt lat="47.749560" lon="7.810689">
        <ele>665.716511</ele>
        <time>2021-11-21T23:22:04.315Z</time>
      </trkpt>
      <trkpt lat="47.749646" lon="7.810634">
        <ele>666.189421</ele>
        <time>2021-11-21T23:22:07.124Z</time>
      </trkpt>
      <trkpt lat="47.749836" lon="7.810535">
        <ele>667.206445</ele>
        <time>2021-11-21T23:22:15.016Z</time>
      </trkpt>
      <trkpt lat="47.750657" lon="7.810315">
        <ele>671.420675</ele>
        <time>2021-11-21T23:22:46.956Z</time>
      </trkpt>
      <trkpt lat="47.751111" lon="7.810340">
        <ele>673.758458</ele>
        <time>2021-11-21T23:23:05.829Z</time>
      </trkpt>
      <trkpt lat="47.751213" lon="7.810295">
        <ele>674.308355</ele>
        <time>2021-11-21T23:23:10.580Z</time>
      </trkpt>
      <trkpt lat="47.751412" lon="7.810128">
        <ele>675.489325</ele>
        <time>2021-11-21T23:23:18.967Z</time>
      </trkpt>
      <trkpt lat="47.751575" lon="7.810031">
        <ele>676.396732</ele>
        <time>2021-11-21T23:23:24.694Z</time>
      </trkpt>
      <trkpt lat="47.751711" lon="7.810000">
        <ele>677.107862</ele>
        <time>2021-11-21T23:23:29.294Z</time>
      </trkpt>
      <trkpt lat="47.751730" lon="7.809997">
        <ele>677.206617</ele>
        <time>2021-11-21T23:23:29.981Z</time>
      </trkpt>
      <trkpt lat="47.752005" lon="7.809956">
        <ele>678.635092</ele>
        <time>2021-11-21T23:23:39.070Z</time>
      </trkpt>
      <trkpt lat="47.752260" lon="7.809921">
        <ele>679.958674</ele>
        <time>2021-11-21T23:23:47.505Z</time>
      </trkpt>
      <trkpt lat="47.752654" lon="7.809866">
        <ele>681.737702</ele>
        <time>2021-11-21T23:24:00.467Z</time>
      </trkpt>
      <trkpt lat="47.753544" lon="7.809581">
        <ele>684.950426</ele>
        <time>2021-11-21T23:24:29.196Z</time>
      </trkpt>
      <trkpt lat="47.754471" lon="7.809507">
        <ele>687.217120</ele>
        <time>2021-11-21T23:24:55.894Z</time>
      </trkpt>
      <trkpt lat="47.755612" lon="7.809341">
        <ele>685.549050</ele>
        <time>2021-11-21T23:25:08.129Z</time>
      </trkpt>
      <trkpt lat="47.755829" lon="7.809249">
        <ele>685.220741</ele>
        <time>2021-11-21T23:25:10.573Z</time>
      </trkpt>
      <trkpt lat="47.755867" lon="7.809176">
        <ele>685.130431</ele>
        <time>2021-11-21T23:25:11.145Z</time>
      </trkpt>
      <trkpt lat="47.755882" lon="7.809148">
        <ele>685.095410</ele>
        <time>2021-11-21T23:25:11.342Z</time>
      </trkpt>
      <trkpt lat="47.755911" lon="7.808925">
        <ele>684.884587</ele>
        <time>2021-11-21T23:25:13.018Z</time>
      </trkpt>
      <trkpt lat="47.755877" lon="7.808829">
        <ele>684.834405</ele>
        <time>2021-11-21T23:25:14.162Z</time>
      </trkpt>
      <trkpt lat="47.755812" lon="7.808725">
        <ele>684.768733</ele>
        <time>2021-11-21T23:25:15.059Z</time>
      </trkpt>
      <trkpt lat="47.755645" lon="7.808613">
        <ele>684.642714</ele>
        <time>2021-11-21T23:25:16.995Z</time>
      </trkpt>
      <trkpt lat="47.755365" lon="7.808489">
        <ele>684.441743</ele>
        <time>2021-11-21T23:25:20.372Z</time>
      </trkpt>
      <trkpt lat="47.755105" lon="7.808310">
        <ele>684.244656</ele>
        <time>2021-11-21T23:25:24.035Z</time>
      </trkpt>
      <trkpt lat="47.755090" lon="7.808295">
        <ele>684.232222</ele>
        <time>2021-11-21T23:25:24.258Z</time>
      </trkpt>
      <trkpt lat="47.754969" lon="7.808170">
        <ele>684.130878</ele>
        <time>2021-11-21T23:25:27.879Z</time>
      </trkpt>
      <trkpt lat="47.754887" lon="7.807966">
        <ele>684.020954</ele>
        <time>2021-11-21T23:25:30.438Z</time>
      </trkpt>
      <trkpt lat="47.754794" lon="7.807681">
        <ele>683.874439</ele>
        <time>2021-11-21T23:25:33.002Z</time>
      </trkpt>
      <trkpt lat="47.754733" lon="7.807400">
        <ele>683.737873</ele>
        <time>2021-11-21T23:25:35.358Z</time>
      </trkpt>
      <trkpt lat="47.754746" lon="7.807261">
        <ele>683.672968</ele>
        <time>2021-11-21T23:25:37.693Z</time>
      </trkpt>
      <trkpt lat="47.754819" lon="7.807058">
        <ele>683.841207</ele>
        <time>2021-11-21T23:25:41.318Z</time>
      </trkpt>
      <trkpt lat="47.754853" lon="7.806934">
        <ele>683.966319</ele>
        <time>2021-11-21T23:25:43.225Z</time>
      </trkpt>
      <trkpt lat="47.754873" lon="7.806829">
        <ele>684.068276</ele>
        <time>2021-11-21T23:25:45.091Z</time>
      </trkpt>
      <trkpt lat="47.754902" lon="7.806609">
        <ele>684.277726</ele>
        <time>2021-11-21T23:25:49.004Z</time>
      </trkpt>
      <trkpt lat="47.754895" lon="7.806542">
        <ele>684.341072</ele>
        <time>2021-11-21T23:25:50.112Z</time>
      </trkpt>
      <trkpt lat="47.754872" lon="7.806371">
        <ele>684.503995</ele>
        <time>2021-11-21T23:25:52.425Z</time>
      </trkpt>
      <trkpt lat="47.754858" lon="7.806219">
        <ele>684.647328</ele>
        <time>2021-11-21T23:25:55.695Z</time>
      </trkpt>
      <trkpt lat="47.754876" lon="7.806122">
        <ele>684.741340</ele>
        <time>2021-11-21T23:25:57.428Z</time>
      </trkpt>
      <trkpt lat="47.755055" lon="7.805871">
        <ele>685.083191</ele>
        <time>2021-11-21T23:26:03.899Z</time>
      </trkpt>
      <trkpt lat="47.755117" lon="7.805765">
        <ele>685.214455</ele>
        <time>2021-11-21T23:26:06.498Z</time>
      </trkpt>
      <trkpt lat="47.755141" lon="7.805729">
        <ele>685.261820</ele>
        <time>2021-11-21T23:26:07.578Z</time>
      </trkpt>
      <trkpt lat="47.755186" lon="7.805629">
        <ele>685.374242</ele>
        <time>2021-11-21T23:26:09.372Z</time>
      </trkpt>
      <trkpt lat="47.755222" lon="7.805336">
        <ele>685.652510</ele>
        <time>2021-11-21T23:26:14.730Z</time>
      </trkpt>
      <trkpt lat="47.755147" lon="7.805004">
        <ele>685.979723</ele>
        <time>2021-11-21T23:26:18.737Z</time>
      </trkpt>
      <trkpt lat="47.754231" lon="7.802726">
        <ele>683.582207</ele>
        <time>2021-11-21T23:26:37.893Z</time>
      </trkpt>
      <trkpt lat="47.754163" lon="7.802423">
        <ele>683.451233</ele>
        <time>2021-11-21T23:26:40.647Z</time>
      </trkpt>
      <trkpt lat="47.754168" lon="7.802322">
        <ele>683.534121</ele>
        <time>2021-11-21T23:26:41.565Z</time>
      </trkpt>
      <trkpt lat="47.754183" lon="7.802036">
        <ele>683.768909</ele>
        <time>2021-11-21T23:26:44.358Z</time>
      </trkpt>
      <trkpt lat="47.754419" lon="7.800784">
        <ele>684.833119</ele>
        <time>2021-11-21T23:27:00.683Z</time>
      </trkpt>
      <trkpt lat="47.754760" lon="7.800181">
        <ele>685.478013</ele>
        <time>2021-11-21T23:27:15.781Z</time>
      </trkpt>
      <trkpt lat="47.754904" lon="7.799298">
        <ele>686.531547</ele>
        <time>2021-11-21T23:27:31.386Z</time>
      </trkpt>
      <trkpt lat="47.754889" lon="7.798802">
        <ele>687.125890</ele>
        <time>2021-11-21T23:27:39.284Z</time>
      </trkpt>
      <trkpt lat="47.754855" lon="7.798713">
        <ele>687.248427</ele>
        <time>2021-11-21T23:27:41.261Z</time>
      </trkpt>
      <trkpt lat="47.754760" lon="7.798634">
        <ele>687.442219</ele>
        <time>2021-11-21T23:27:44.287Z</time>
      </trkpt>
      <trkpt lat="47.754577" lon="7.798546">
        <ele>687.784663</ele>
        <time>2021-11-21T23:27:47.470Z</time>
      </trkpt>
      <trkpt lat="47.754385" lon="7.798561">
        <ele>688.126997</ele>
        <time>2021-11-21T23:27:52.028Z</time>
      </trkpt>
      <trkpt lat="47.754076" lon="7.798810">
        <ele>688.752739</ele>
        <time>2021-11-21T23:27:58.153Z</time>
      </trkpt>
      <trkpt lat="47.753862" lon="7.799253">
        <ele>688.422947</ele>
        <time>2021-11-21T23:28:03.186Z</time>
      </trkpt>
      <trkpt lat="47.753665" lon="7.800063">
        <ele>687.898376</ele>
        <time>2021-11-21T23:28:09.869Z</time>
      </trkpt>
      <trkpt lat="47.753344" lon="7.800607">
        <ele>687.457580</ele>
        <time>2021-11-21T23:28:15.184Z</time>
      </trkpt>
      <trkpt lat="47.752737" lon="7.800684">
        <ele>687.388857</ele>
        <time>2021-11-21T23:28:23.317Z</time>
      </trkpt>
      <trkpt lat="47.752525" lon="7.800683">
        <ele>687.619772</ele>
        <time>2021-11-21T23:28:25.593Z</time>
      </trkpt>
      <trkpt lat="47.752465" lon="7.800667">
        <ele>687.686167</ele>
        <time>2021-11-21T23:28:26.630Z</time>
      </trkpt>
      <trkpt lat="47.752399" lon="7.800619">
        <ele>687.766189</ele>
        <time>2021-11-21T23:28:29.135Z</time>
      </trkpt>
      <trkpt lat="47.751968" lon="7.800288">
        <ele>688.294528</ele>
        <time>2021-11-21T23:28:36.252Z</time>
      </trkpt>
      <trkpt lat="47.751838" lon="7.800255">
        <ele>688.438174</ele>
        <time>2021-11-21T23:28:38.466Z</time>
      </trkpt>
      <trkpt lat="47.751742" lon="7.800271">
        <ele>688.543393</ele>
        <time>2021-11-21T23:28:42.179Z</time>
      </trkpt>
      <trkpt lat="47.751702" lon="7.800278">
        <ele>688.587262</ele>
        <time>2021-11-21T23:28:42.717Z</time>
      </trkpt>
      <trkpt lat="47.751664" lon="7.800305">
        <ele>688.633133</ele>
        <time>2021-11-21T23:28:43.211Z</time>
      </trkpt>
      <trkpt lat="47.751553" lon="7.800386">
        <ele>688.767804</ele>
        <time>2021-11-21T23:28:44.872Z</time>
      </trkpt>
      <trkpt lat="47.751349" lon="7.800415">
        <ele>688.991017</ele>
        <time>2021-11-21T23:28:53.338Z</time>
      </trkpt>
      <trkpt lat="47.751199" lon="7.800308">
        <ele>689.538517</ele>
        <time>2021-11-21T23:28:55.986Z</time>
      </trkpt>
      <trkpt lat="47.751083" lon="7.800210">
        <ele>690.288626</ele>
        <time>2021-11-21T23:29:02.730Z</time>
      </trkpt>
      <trkpt lat="47.751053" lon="7.800189">
        <ele>690.475055</ele>
        <time>2021-11-21T23:29:04.075Z</time>
      </trkpt>
      <trkpt lat="47.750911" lon="7.800089">
        <ele>691.358455</ele>
        <time>2021-11-21T23:29:07.364Z</time>
      </trkpt>
      <trkpt lat="47.750829" lon="7.799995">
        <ele>691.940571</ele>
        <time>2021-11-21T23:29:11.477Z</time>
      </trkpt>
      <trkpt lat="47.750753" lon="7.799770">
        <ele>692.892480</ele>
        <time>2021-11-21T23:29:17.272Z</time>
      </trkpt>
      <trkpt lat="47.750729" lon="7.799440">
        <ele>694.147308</ele>
        <time>2021-11-21T23:29:26.675Z</time>
      </trkpt>
      <trkpt lat="47.750821" lon="7.799052">
        <ele>695.702666</ele>
        <time>2021-11-21T23:29:35.350Z</time>
      </trkpt>
      <trkpt lat="47.750908" lon="7.798887">
        <ele>696.495373</ele>
        <time>2021-11-21T23:29:42.488Z</time>
      </trkpt>
      <trkpt lat="47.750924" lon="7.798830">
        <ele>696.728884</ele>
        <time>2021-11-21T23:29:43.879Z</time>
      </trkpt>
      <trkpt lat="47.750910" lon="7.798416">
        <ele>698.295966</ele>
        <time>2021-11-21T23:29:55.003Z</time>
      </trkpt>
      <trkpt lat="47.750839" lon="7.798069">
        <ele>700.094885</ele>
        <time>2021-11-21T23:30:02.767Z</time>
      </trkpt>
      <trkpt lat="47.750809" lon="7.797861">
        <ele>701.631341</ele>
        <time>2021-11-21T23:30:12.973Z</time>
      </trkpt>
      <trkpt lat="47.750788" lon="7.797566">
        <ele>703.773888</ele>
        <time>2021-11-21T23:30:19.867Z</time>
      </trkpt>
      <trkpt lat="47.750775" lon="7.797405">
        <ele>704.945067</ele>
        <time>2021-11-21T23:30:27.903Z</time>
      </trkpt>
      <trkpt lat="47.750796" lon="7.795906">
        <ele>715.773953</ele>
        <time>2021-11-21T23:31:29.932Z</time>
      </trkpt>
      <trkpt lat="47.750781" lon="7.795779">
        <ele>716.705256</ele>
        <time>2021-11-21T23:31:36.832Z</time>
      </trkpt>
      <trkpt lat="47.750786" lon="7.795593">
        <ele>718.049715</ele>
        <time>2021-11-21T23:31:41.961Z</time>
      </trkpt>
      <trkpt lat="47.750710" lon="7.795271">
        <ele>720.246651</ele>
        <time>2021-11-21T23:32:00.273Z</time>
      </trkpt>
      <trkpt lat="47.750688" lon="7.795070">
        <ele>721.520104</ele>
        <time>2021-11-21T23:32:09.411Z</time>
      </trkpt>
      <trkpt lat="47.750687" lon="7.794995">
        <ele>721.989192</ele>
        <time>2021-11-21T23:32:12.117Z</time>
      </trkpt>
      <trkpt lat="47.750686" lon="7.794911">
        <ele>722.514550</ele>
        <time>2021-11-21T23:32:18.049Z</time>
      </trkpt>
      <trkpt lat="47.750692" lon="7.794452">
        <ele>725.385346</ele>
        <time>2021-11-21T23:32:35.072Z</time>
      </trkpt>
      <trkpt lat="47.750641" lon="7.794257">
        <ele>726.693740</ele>
        <time>2021-11-21T23:32:42.885Z</time>
      </trkpt>
      <trkpt lat="47.750304" lon="7.793918">
        <ele>730.477590</ele>
        <time>2021-11-21T23:33:04.285Z</time>
      </trkpt>
      <trkpt lat="47.749975" lon="7.793822">
        <ele>733.595793</ele>
        <time>2021-11-21T23:33:17.558Z</time>
      </trkpt>
      <trkpt lat="47.749874" lon="7.793826">
        <ele>734.535478</ele>
        <time>2021-11-21T23:33:23.435Z</time>
      </trkpt>
      <trkpt lat="47.749526" lon="7.794086">
        <ele>735.325542</ele>
        <time>2021-11-21T23:33:36.453Z</time>
      </trkpt>
      <trkpt lat="47.749425" lon="7.794270">
        <ele>735.365677</ele>
        <time>2021-11-21T23:33:37.990Z</time>
      </trkpt>
      <trkpt lat="47.749105" lon="7.794859">
        <ele>735.493627</ele>
        <time>2021-11-21T23:33:48.325Z</time>
      </trkpt>
      <trkpt lat="47.748864" lon="7.794991">
        <ele>735.558166</ele>
        <time>2021-11-21T23:33:50.872Z</time>
      </trkpt>
      <trkpt lat="47.748295" lon="7.795112">
        <ele>735.664717</ele>
        <time>2021-11-21T23:33:57.042Z</time>
      </trkpt>
      <trkpt lat="47.747817" lon="7.794870">
        <ele>734.497103</ele>
        <time>2021-11-21T23:34:02.454Z</time>
      </trkpt>
      <trkpt lat="47.746749" lon="7.793855">
        <ele>731.566273</ele>
        <time>2021-11-21T23:34:16.325Z</time>
      </trkpt>
      <trkpt lat="47.746480" lon="7.793810">
        <ele>730.351555</ele>
        <time>2021-11-21T23:34:19.094Z</time>
      </trkpt>
      <trkpt lat="47.746360" lon="7.793850">
        <ele>729.787861</ele>
        <time>2021-11-21T23:34:20.313Z</time>
      </trkpt>
      <trkpt lat="47.746251" lon="7.793887">
        <ele>729.275386</ele>
        <time>2021-11-21T23:34:21.378Z</time>
      </trkpt>
      <trkpt lat="47.746007" lon="7.793837">
        <ele>728.146391</ele>
        <time>2021-11-21T23:34:23.822Z</time>
      </trkpt>
      <trkpt lat="47.745541" lon="7.793353">
        <ele>725.541018</ele>
        <time>2021-11-21T23:34:29.207Z</time>
      </trkpt>
      <trkpt lat="47.745285" lon="7.793199">
        <ele>724.275219</ele>
        <time>2021-11-21T23:34:31.735Z</time>
      </trkpt>
      <trkpt lat="47.744752" lon="7.793161">
        <ele>720.870790</ele>
        <time>2021-11-21T23:34:36.614Z</time>
      </trkpt>
      <trkpt lat="47.744240" lon="7.793272">
        <ele>716.948423</ele>
        <time>2021-11-21T23:34:41.265Z</time>
      </trkpt>
      <trkpt lat="47.743600" lon="7.792812">
        <ele>711.559791</ele>
        <time>2021-11-21T23:34:47.535Z</time>
      </trkpt>
      <trkpt lat="47.743139" lon="7.792371">
        <ele>706.244640</ele>
        <time>2021-11-21T23:34:52.334Z</time>
      </trkpt>
      <trkpt lat="47.743060" lon="7.792319">
        <ele>705.252989</ele>
        <time>2021-11-21T23:34:53.112Z</time>
      </trkpt>
      <trkpt lat="47.742972" lon="7.792305">
        <ele>704.237127</ele>
        <time>2021-11-21T23:34:53.838Z</time>
      </trkpt>
      <trkpt lat="47.742790" lon="7.792282">
        <ele>702.140530</ele>
        <time>2021-11-21T23:34:55.445Z</time>
      </trkpt>
      <trkpt lat="47.742563" lon="7.792360">
        <ele>699.466283</ele>
        <time>2021-11-21T23:34:57.412Z</time>
      </trkpt>
      <trkpt lat="47.742161" lon="7.792693">
        <ele>694.184365</ele>
        <time>2021-11-21T23:35:01.294Z</time>
      </trkpt>
      <trkpt lat="47.741960" lon="7.792773">
        <ele>691.796000</ele>
        <time>2021-11-21T23:35:03.019Z</time>
      </trkpt>
      <trkpt lat="47.741173" lon="7.792753">
        <ele>683.267063</ele>
        <time>2021-11-21T23:35:09.632Z</time>
      </trkpt>
      <trkpt lat="47.740804" lon="7.792926">
        <ele>679.185268</ele>
        <time>2021-11-21T23:35:12.935Z</time>
      </trkpt>
      <trkpt lat="47.740745" lon="7.792996">
        <ele>678.388984</ele>
        <time>2021-11-21T23:35:13.556Z</time>
      </trkpt>
      <trkpt lat="47.740667" lon="7.793095">
        <ele>677.307102</ele>
        <time>2021-11-21T23:35:14.432Z</time>
      </trkpt>
      <trkpt lat="47.740564" lon="7.793174">
        <ele>676.084438</ele>
        <time>2021-11-21T23:35:15.482Z</time>
      </trkpt>
      <trkpt lat="47.740392" lon="7.793179">
        <ele>674.269517</ele>
        <time>2021-11-21T23:35:16.946Z</time>
      </trkpt>
      <trkpt lat="47.740205" lon="7.793023">
        <ele>672.007445</ele>
        <time>2021-11-21T23:35:18.910Z</time>
      </trkpt>
      <trkpt lat="47.739590" lon="7.792073">
        <ele>667.502732</ele>
        <time>2021-11-21T23:35:26.893Z</time>
      </trkpt>
      <trkpt lat="47.739458" lon="7.791552">
        <ele>666.146432</ele>
        <time>2021-11-21T23:35:31.085Z</time>
      </trkpt>
      <trkpt lat="47.739439" lon="7.791444">
        <ele>665.874478</ele>
        <time>2021-11-21T23:35:32.042Z</time>
      </trkpt>
      <trkpt lat="47.739413" lon="7.791288">
        <ele>665.482947</ele>
        <time>2021-11-21T23:35:33.234Z</time>
      </trkpt>
      <trkpt lat="47.739296" lon="7.791080">
        <ele>664.822350</ele>
        <time>2021-11-21T23:35:35.301Z</time>
      </trkpt>
      <trkpt lat="47.739195" lon="7.791035">
        <ele>664.440410</ele>
        <time>2021-11-21T23:35:36.597Z</time>
      </trkpt>
      <trkpt lat="47.738930" lon="7.790961">
        <ele>663.533442</ele>
        <time>2021-11-21T23:35:39.899Z</time>
      </trkpt>
      <trkpt lat="47.738864" lon="7.790933">
        <ele>663.573596</ele>
        <time>2021-11-21T23:35:40.754Z</time>
      </trkpt>
      <trkpt lat="47.738494" lon="7.790765">
        <ele>663.799925</ele>
        <time>2021-11-21T23:35:45.861Z</time>
      </trkpt>
      <trkpt lat="47.738355" lon="7.790709">
        <ele>663.884177</ele>
        <time>2021-11-21T23:35:47.879Z</time>
      </trkpt>
      <trkpt lat="47.738210" lon="7.790671">
        <ele>663.970315</ele>
        <time>2021-11-21T23:35:50.095Z</time>
      </trkpt>
      <trkpt lat="47.738210" lon="7.790671">
        <ele>663.970315</ele>
        <time>2021-11-21T23:35:50.097Z</time>
      </trkpt>
      <trkpt lat="47.738128" lon="7.790710">
        <ele>664.020682</ele>
        <time>2021-11-21T23:35:51.379Z</time>
      </trkpt>
      <trkpt lat="47.737967" lon="7.790843">
        <ele>664.128432</ele>
        <time>2021-11-21T23:35:54.406Z</time>
      </trkpt>
      <trkpt lat="47.737875" lon="7.790957">
        <ele>664.198495</ele>
        <time>2021-11-21T23:35:56.100Z</time>
      </trkpt>
      <trkpt lat="47.737821" lon="7.790845">
        <ele>664.252716</ele>
        <time>2021-11-21T23:35:58.349Z</time>
      </trkpt>
      <trkpt lat="47.737752" lon="7.790621">
        <ele>664.349653</ele>
        <time>2021-11-21T23:36:02.329Z</time>
      </trkpt>
      <trkpt lat="47.737764" lon="7.790231">
        <ele>664.503260</ele>
        <time>2021-11-21T23:36:09.591Z</time>
      </trkpt>
      <trkpt lat="47.737966" lon="7.789325">
        <ele>666.509600</ele>
        <time>2021-11-21T23:36:31.015Z</time>
      </trkpt>
      <trkpt lat="47.737954" lon="7.788512">
        <ele>668.552759</ele>
        <time>2021-11-21T23:36:51.629Z</time>
      </trkpt>
      <trkpt lat="47.737966" lon="7.788397">
        <ele>668.845154</ele>
        <time>2021-11-21T23:36:54.752Z</time>
      </trkpt>
      <trkpt lat="47.738066" lon="7.787957">
        <ele>670.012076</ele>
        <time>2021-11-21T23:37:06.510Z</time>
      </trkpt>
      <trkpt lat="47.738147" lon="7.787601">
        <ele>670.956329</ele>
        <time>2021-11-21T23:37:16.067Z</time>
      </trkpt>
      <trkpt lat="47.738302" lon="7.787048">
        <ele>671.525732</ele>
        <time>2021-11-21T23:37:30.107Z</time>
      </trkpt>
      <trkpt lat="47.738572" lon="7.786668">
        <ele>671.799822</ele>
        <time>2021-11-21T23:37:41.704Z</time>
      </trkpt>
      <trkpt lat="47.738862" lon="7.786564">
        <ele>672.019760</ele>
        <time>2021-11-21T23:37:49.850Z</time>
      </trkpt>
      <trkpt lat="47.739445" lon="7.786638">
        <ele>672.451150</ele>
        <time>2021-11-21T23:38:00.262Z</time>
      </trkpt>
      <trkpt lat="47.739563" lon="7.786595">
        <ele>672.540722</ele>
        <time>2021-11-21T23:38:02.112Z</time>
      </trkpt>
      <trkpt lat="47.739759" lon="7.786386">
        <ele>672.093612</ele>
        <time>2021-11-21T23:38:05.676Z</time>
      </trkpt>
      <trkpt lat="47.739872" lon="7.786062">
        <ele>671.106540</ele>
        <time>2021-11-21T23:38:09.171Z</time>
      </trkpt>
      <trkpt lat="47.739874" lon="7.785771">
        <ele>670.319503</ele>
        <time>2021-11-21T23:38:11.906Z</time>
      </trkpt>
      <trkpt lat="47.739321" lon="7.784361">
        <ele>665.905100</ele>
        <time>2021-11-21T23:38:26.836Z</time>
      </trkpt>
      <trkpt lat="47.739225" lon="7.783502">
        <ele>664.441116</ele>
        <time>2021-11-21T23:38:34.980Z</time>
      </trkpt>
      <trkpt lat="47.738955" lon="7.782862">
        <ele>663.388186</ele>
        <time>2021-11-21T23:38:42.861Z</time>
      </trkpt>
      <trkpt lat="47.738681" lon="7.781794">
        <ele>661.795101</ele>
        <time>2021-11-21T23:38:57.018Z</time>
      </trkpt>
      <trkpt lat="47.738601" lon="7.781396">
        <ele>661.140449</ele>
        <time>2021-11-21T23:39:02.276Z</time>
      </trkpt>
      <trkpt lat="47.738553" lon="7.781208">
        <ele>660.812488</ele>
        <time>2021-11-21T23:39:05.013Z</time>
      </trkpt>
      <trkpt lat="47.738548" lon="7.781105">
        <ele>660.644068</ele>
        <time>2021-11-21T23:39:06.429Z</time>
      </trkpt>
      <trkpt lat="47.738737" lon="7.780364">
        <ele>659.351578</ele>
        <time>2021-11-21T23:39:15.195Z</time>
      </trkpt>
      <trkpt lat="47.738802" lon="7.780216">
        <ele>659.063294</ele>
        <time>2021-11-21T23:39:16.968Z</time>
      </trkpt>
      <trkpt lat="47.738888" lon="7.780071">
        <ele>658.747988</ele>
        <time>2021-11-21T23:39:18.700Z</time>
      </trkpt>
      <trkpt lat="47.739096" lon="7.779893">
        <ele>658.166001</ele>
        <time>2021-11-21T23:39:22.370Z</time>
      </trkpt>
      <trkpt lat="47.739353" lon="7.779922">
        <ele>657.540965</ele>
        <time>2021-11-21T23:39:26.208Z</time>
      </trkpt>
      <trkpt lat="47.739451" lon="7.779983">
        <ele>657.250915</ele>
        <time>2021-11-21T23:39:27.664Z</time>
      </trkpt>
      <trkpt lat="47.739569" lon="7.780079">
        <ele>656.258358</ele>
        <time>2021-11-21T23:39:29.429Z</time>
      </trkpt>
      <trkpt lat="47.739712" lon="7.780170">
        <ele>655.110556</ele>
        <time>2021-11-21T23:39:31.521Z</time>
      </trkpt>
      <trkpt lat="47.739789" lon="7.780191">
        <ele>654.532876</ele>
        <time>2021-11-21T23:39:32.487Z</time>
      </trkpt>
      <trkpt lat="47.740032" lon="7.780127">
        <ele>652.711810</ele>
        <time>2021-11-21T23:39:35.633Z</time>
      </trkpt>
      <trkpt lat="47.740158" lon="7.779935">
        <ele>651.380521</ele>
        <time>2021-11-21T23:39:37.965Z</time>
      </trkpt>
      <trkpt lat="47.740165" lon="7.779862">
        <ele>651.014594</ele>
        <time>2021-11-21T23:39:38.550Z</time>
      </trkpt>
      <trkpt lat="47.740151" lon="7.779808">
        <ele>650.727395</ele>
        <time>2021-11-21T23:39:39.019Z</time>
      </trkpt>
      <trkpt lat="47.740088" lon="7.779682">
        <ele>649.948233</ele>
        <time>2021-11-21T23:39:40.399Z</time>
      </trkpt>
      <trkpt lat="47.739814" lon="7.779454">
        <ele>647.631269</ele>
        <time>2021-11-21T23:39:44.283Z</time>
      </trkpt>
      <trkpt lat="47.739737" lon="7.779107">
        <ele>645.817947</ele>
        <time>2021-11-21T23:39:47.384Z</time>
      </trkpt>
      <trkpt lat="47.739744" lon="7.779063">
        <ele>645.593568</ele>
        <time>2021-11-21T23:39:47.751Z</time>
      </trkpt>
      <trkpt lat="47.739756" lon="7.778993">
        <ele>645.235082</ele>
        <time>2021-11-21T23:39:48.318Z</time>
      </trkpt>
      <trkpt lat="47.740305" lon="7.777558">
        <ele>635.887646</ele>
        <time>2021-11-21T23:40:02.345Z</time>
      </trkpt>
      <trkpt lat="47.740362" lon="7.777048">
        <ele>632.897975</ele>
        <time>2021-11-21T23:40:06.794Z</time>
      </trkpt>
      <trkpt lat="47.740244" lon="7.776526">
        <ele>629.713383</ele>
        <time>2021-11-21T23:40:11.306Z</time>
      </trkpt>
      <trkpt lat="47.739963" lon="7.775639">
        <ele>622.419373</ele>
        <time>2021-11-21T23:40:19.266Z</time>
      </trkpt>
      <trkpt lat="47.739629" lon="7.775015">
        <ele>616.149120</ele>
        <time>2021-11-21T23:40:25.738Z</time>
      </trkpt>
      <trkpt lat="47.739636" lon="7.774943">
        <ele>615.577157</ele>
        <time>2021-11-21T23:40:26.314Z</time>
      </trkpt>
      <trkpt lat="47.739644" lon="7.774897">
        <ele>615.203599</ele>
        <time>2021-11-21T23:40:26.694Z</time>
      </trkpt>
      <trkpt lat="47.739661" lon="7.774809">
        <ele>614.483747</ele>
        <time>2021-11-21T23:40:27.429Z</time>
      </trkpt>
      <trkpt lat="47.739622" lon="7.774639">
        <ele>613.071546</ele>
        <time>2021-11-21T23:40:28.855Z</time>
      </trkpt>
      <trkpt lat="47.739593" lon="7.774482">
        <ele>611.791467</ele>
        <time>2021-11-21T23:40:30.145Z</time>
      </trkpt>
      <trkpt lat="47.739080" lon="7.773603">
        <ele>603.053343</ele>
        <time>2021-11-21T23:40:39.421Z</time>
      </trkpt>
      <trkpt lat="47.738652" lon="7.773064">
        <ele>597.048942</ele>
        <time>2021-11-21T23:40:46.079Z</time>
      </trkpt>
      <trkpt lat="47.738593" lon="7.773024">
        <ele>596.354765</ele>
        <time>2021-11-21T23:40:46.832Z</time>
      </trkpt>
      <trkpt lat="47.738543" lon="7.772997">
        <ele>595.785288</ele>
        <time>2021-11-21T23:40:47.502Z</time>
      </trkpt>
      <trkpt lat="47.738186" lon="7.772800">
        <ele>591.708748</ele>
        <time>2021-11-21T23:40:52.317Z</time>
      </trkpt>
      <trkpt lat="47.737979" lon="7.772565">
        <ele>588.920671</ele>
        <time>2021-11-21T23:40:55.634Z</time>
      </trkpt>
      <trkpt lat="47.737822" lon="7.772217">
        <ele>586.671275</ele>
        <time>2021-11-21T23:40:59.271Z</time>
      </trkpt>
      <trkpt lat="47.737869" lon="7.772115">
        <ele>586.069024</ele>
        <time>2021-11-21T23:41:00.277Z</time>
      </trkpt>
      <trkpt lat="47.737893" lon="7.771917">
        <ele>585.089064</ele>
        <time>2021-11-21T23:41:01.995Z</time>
      </trkpt>
      <trkpt lat="47.737550" lon="7.771110">
        <ele>580.439101</ele>
        <time>2021-11-21T23:41:10.292Z</time>
      </trkpt>
      <trkpt lat="47.737337" lon="7.770784">
        <ele>578.225222</ele>
        <time>2021-11-21T23:41:14.253Z</time>
      </trkpt>
      <trkpt lat="47.736348" lon="7.769739">
        <ele>569.680494</ele>
        <time>2021-11-21T23:41:29.540Z</time>
      </trkpt>
      <trkpt lat="47.736265" lon="7.769445">
        <ele>568.192200</ele>
        <time>2021-11-21T23:41:32.460Z</time>
      </trkpt>
      <trkpt lat="47.736233" lon="7.769316">
        <ele>567.550419</ele>
        <time>2021-11-21T23:41:33.544Z</time>
      </trkpt>
      <trkpt lat="47.736098" lon="7.769430">
        <ele>566.472918</ele>
        <time>2021-11-21T23:41:35.066Z</time>
      </trkpt>
      <trkpt lat="47.735693" lon="7.769680">
        <ele>563.429488</ele>
        <time>2021-11-21T23:41:39.072Z</time>
      </trkpt>
      <trkpt lat="47.735270" lon="7.769828">
        <ele>561.068579</ele>
        <time>2021-11-21T23:41:42.998Z</time>
      </trkpt>
      <trkpt lat="47.734960" lon="7.769814">
        <ele>559.515246</ele>
        <time>2021-11-21T23:41:45.924Z</time>
      </trkpt>
      <trkpt lat="47.734476" lon="7.769648">
        <ele>557.027502</ele>
        <time>2021-11-21T23:41:50.658Z</time>
      </trkpt>
      <trkpt lat="47.734401" lon="7.769622">
        <ele>556.641793</ele>
        <time>2021-11-21T23:41:51.397Z</time>
      </trkpt>
      <trkpt lat="47.734266" lon="7.769671">
        <ele>555.945798</ele>
        <time>2021-11-21T23:41:52.865Z</time>
      </trkpt>
      <trkpt lat="47.733948" lon="7.769954">
        <ele>554.089613</ele>
        <time>2021-11-21T23:41:56.446Z</time>
      </trkpt>
      <trkpt lat="47.733803" lon="7.770168">
        <ele>553.078832</ele>
        <time>2021-11-21T23:41:58.336Z</time>
      </trkpt>
      <trkpt lat="47.733325" lon="7.771138">
        <ele>549.101171</ele>
        <time>2021-11-21T23:42:06.070Z</time>
      </trkpt>
      <trkpt lat="47.733262" lon="7.771248">
        <ele>548.623258</ele>
        <time>2021-11-21T23:42:07.057Z</time>
      </trkpt>
      <trkpt lat="47.733191" lon="7.771223">
        <ele>548.264411</ele>
        <time>2021-11-21T23:42:07.959Z</time>
      </trkpt>
      <trkpt lat="47.732578" lon="7.771287">
        <ele>545.242162</ele>
        <time>2021-11-21T23:42:16.399Z</time>
      </trkpt>
      <trkpt lat="47.732059" lon="7.771040">
        <ele>542.873902</ele>
        <time>2021-11-21T23:42:23.458Z</time>
      </trkpt>
      <trkpt lat="47.731292" lon="7.770976">
        <ele>539.597034</ele>
        <time>2021-11-21T23:42:33.653Z</time>
      </trkpt>
      <trkpt lat="47.730816" lon="7.771009">
        <ele>537.564400</ele>
        <time>2021-11-21T23:42:40.777Z</time>
      </trkpt>
      <trkpt lat="47.730705" lon="7.770955">
        <ele>537.397911</ele>
        <time>2021-11-21T23:42:43.175Z</time>
      </trkpt>
      <trkpt lat="47.730658" lon="7.770910">
        <ele>537.614412</ele>
        <time>2021-11-21T23:42:43.944Z</time>
      </trkpt>
      <trkpt lat="47.730435" lon="7.770438">
        <ele>539.116937</ele>
        <time>2021-11-21T23:42:53.155Z</time>
      </trkpt>
      <trkpt lat="47.730361" lon="7.770386">
        <ele>539.433924</ele>
        <time>2021-11-21T23:42:54.554Z</time>
      </trkpt>
      <trkpt lat="47.730233" lon="7.770364">
        <ele>539.932944</ele>
        <time>2021-11-21T23:42:59.953Z</time>
      </trkpt>
      <trkpt lat="47.729547" lon="7.770160">
        <ele>542.642309</ele>
        <time>2021-11-21T23:43:26.012Z</time>
      </trkpt>
      <trkpt lat="47.729449" lon="7.770157">
        <ele>543.021924</ele>
        <time>2021-11-21T23:43:31.073Z</time>
      </trkpt>
      <trkpt lat="47.729344" lon="7.770154">
        <ele>543.428643</ele>
        <time>2021-11-21T23:43:34.738Z</time>
      </trkpt>
      <trkpt lat="47.729010" lon="7.770144">
        <ele>545.606668</ele>
        <time>2021-11-21T23:43:54.898Z</time>
      </trkpt>
      <trkpt lat="47.728761" lon="7.770313">
        <ele>548.481324</ele>
        <time>2021-11-21T23:44:13.039Z</time>
      </trkpt>
      <trkpt lat="47.728538" lon="7.770348">
        <ele>550.836315</ele>
        <time>2021-11-21T23:44:26.528Z</time>
      </trkpt>
      <trkpt lat="47.728071" lon="7.769742">
        <ele>557.346337</ele>
        <time>2021-11-21T23:45:08.946Z</time>
      </trkpt>
      <trkpt lat="47.727330" lon="7.769404">
        <ele>565.309592</ele>
        <time>2021-11-21T23:45:57.307Z</time>
      </trkpt>
      <trkpt lat="47.727148" lon="7.769109">
        <ele>567.928177</ele>
        <time>2021-11-21T23:46:13.521Z</time>
      </trkpt>
      <trkpt lat="47.726530" lon="7.767098">
        <ele>581.849953</ele>
        <time>2021-11-21T23:47:41.180Z</time>
      </trkpt>
      <trkpt lat="47.726280" lon="7.766736">
        <ele>584.225008</ele>
        <time>2021-11-21T23:47:59.246Z</time>
      </trkpt>
      <trkpt lat="47.726161" lon="7.766655">
        <ele>585.115712</ele>
        <time>2021-11-21T23:48:04.417Z</time>
      </trkpt>
      <trkpt lat="47.726067" lon="7.766590">
        <ele>585.821245</ele>
        <time>2021-11-21T23:48:09.683Z</time>
      </trkpt>
      <trkpt lat="47.725962" lon="7.766570">
        <ele>586.541660</ele>
        <time>2021-11-21T23:48:16.409Z</time>
      </trkpt>
      <trkpt lat="47.725803" lon="7.766606">
        <ele>587.636207</ele>
        <time>2021-11-21T23:48:22.564Z</time>
      </trkpt>
      <trkpt lat="47.725693" lon="7.766929">
        <ele>589.293567</ele>
        <time>2021-11-21T23:48:34.934Z</time>
      </trkpt>
      <trkpt lat="47.726244" lon="7.767971">
        <ele>593.718100</ele>
        <time>2021-11-21T23:49:09.608Z</time>
      </trkpt>
      <trkpt lat="47.726310" lon="7.768191">
        <ele>594.105551</ele>
        <time>2021-11-21T23:49:16.404Z</time>
      </trkpt>
      <trkpt lat="47.726325" lon="7.768458">
        <ele>594.536497</ele>
        <time>2021-11-21T23:49:21.028Z</time>
      </trkpt>
      <trkpt lat="47.726197" lon="7.769212">
        <ele>595.787280</ele>
        <time>2021-11-21T23:49:33.443Z</time>
      </trkpt>
      <trkpt lat="47.726184" lon="7.769520">
        <ele>596.283652</ele>
        <time>2021-11-21T23:49:38.500Z</time>
      </trkpt>
      <trkpt lat="47.726190" lon="7.769617">
        <ele>596.440329</ele>
        <time>2021-11-21T23:49:40.379Z</time>
      </trkpt>
      <trkpt lat="47.726208" lon="7.769790">
        <ele>596.721897</ele>
        <time>2021-11-21T23:49:42.666Z</time>
      </trkpt>
      <trkpt lat="47.726489" lon="7.770937">
        <ele>599.706181</ele>
        <time>2021-11-21T23:50:04.895Z</time>
      </trkpt>
      <trkpt lat="47.726487" lon="7.771434">
        <ele>601.029910</ele>
        <time>2021-11-21T23:50:15.441Z</time>
      </trkpt>
      <trkpt lat="47.726372" lon="7.771656">
        <ele>601.776190</ele>
        <time>2021-11-21T23:50:22.365Z</time>
      </trkpt>
      <trkpt lat="47.726170" lon="7.771621">
        <ele>602.581409</ele>
        <time>2021-11-21T23:50:29.473Z</time>
      </trkpt>
      <trkpt lat="47.725069" lon="7.770585">
        <ele>609.857530</ele>
        <time>2021-11-21T23:51:38.465Z</time>
      </trkpt>
      <trkpt lat="47.724658" lon="7.770330">
        <ele>612.690443</ele>
        <time>2021-11-21T23:51:59.284Z</time>
      </trkpt>
      <trkpt lat="47.724443" lon="7.770245">
        <ele>614.105585</ele>
        <time>2021-11-21T23:52:09.113Z</time>
      </trkpt>
      <trkpt lat="47.724392" lon="7.770248">
        <ele>614.430247</ele>
        <time>2021-11-21T23:52:10.284Z</time>
      </trkpt>
      <trkpt lat="47.724356" lon="7.770255">
        <ele>614.661192</ele>
        <time>2021-11-21T23:52:11.298Z</time>
      </trkpt>
      <trkpt lat="47.724329" lon="7.770261">
        <ele>614.834846</ele>
        <time>2021-11-21T23:52:12.103Z</time>
      </trkpt>
      <trkpt lat="47.724277" lon="7.770292">
        <ele>615.191222</ele>
        <time>2021-11-21T23:52:14.589Z</time>
      </trkpt>
      <trkpt lat="47.724232" lon="7.770340">
        <ele>615.543530</ele>
        <time>2021-11-21T23:52:16.632Z</time>
      </trkpt>
      <trkpt lat="47.724125" lon="7.770621">
        <ele>615.991327</ele>
        <time>2021-11-21T23:52:22.845Z</time>
      </trkpt>
      <trkpt lat="47.724110" lon="7.770726">
        <ele>616.102943</ele>
        <time>2021-11-21T23:52:25.398Z</time>
      </trkpt>
      <trkpt lat="47.724126" lon="7.770884">
        <ele>616.269085</ele>
        <time>2021-11-21T23:52:28.618Z</time>
      </trkpt>
      <trkpt lat="47.724209" lon="7.771336">
        <ele>616.756277</ele>
        <time>2021-11-21T23:52:37.992Z</time>
      </trkpt>
      <trkpt lat="47.724267" lon="7.771636">
        <ele>617.080849</ele>
        <time>2021-11-21T23:52:42.919Z</time>
      </trkpt>
      <trkpt lat="47.724291" lon="7.771811">
        <ele>617.266559</ele>
        <time>2021-11-21T23:52:46.292Z</time>
      </trkpt>
      <trkpt lat="47.724260" lon="7.772081">
        <ele>617.551369</ele>
        <time>2021-11-21T23:52:50.081Z</time>
      </trkpt>
      <trkpt lat="47.724258" lon="7.772103">
        <ele>617.574453</ele>
        <time>2021-11-21T23:52:50.271Z</time>
      </trkpt>
      <trkpt lat="47.724158" lon="7.772322">
        <ele>617.849678</ele>
        <time>2021-11-21T23:52:55.555Z</time>
      </trkpt>
      <trkpt lat="47.724079" lon="7.772431">
        <ele>618.016284</ele>
        <time>2021-11-21T23:52:57.066Z</time>
      </trkpt>
      <trkpt lat="47.724032" lon="7.772476">
        <ele>618.102698</ele>
        <time>2021-11-21T23:52:57.941Z</time>
      </trkpt>
      <trkpt lat="47.723987" lon="7.772520">
        <ele>618.185954</ele>
        <time>2021-11-21T23:52:59.439Z</time>
      </trkpt>
      <trkpt lat="47.723782" lon="7.772540">
        <ele>618.532676</ele>
        <time>2021-11-21T23:53:03.514Z</time>
      </trkpt>
      <trkpt lat="47.723271" lon="7.772160">
        <ele>620.227265</ele>
        <time>2021-11-21T23:53:17.049Z</time>
      </trkpt>
      <trkpt lat="47.723149" lon="7.772146">
        <ele>620.590172</ele>
        <time>2021-11-21T23:53:20.257Z</time>
      </trkpt>
      <trkpt lat="47.723006" lon="7.772237">
        <ele>621.051512</ele>
        <time>2021-11-21T23:53:23.942Z</time>
      </trkpt>
      <trkpt lat="47.722954" lon="7.772317">
        <ele>621.273459</ele>
        <time>2021-11-21T23:53:27.957Z</time>
      </trkpt>
      <trkpt lat="47.722878" lon="7.772219">
        <ele>621.571849</ele>
        <time>2021-11-21T23:53:31.169Z</time>
      </trkpt>
      <trkpt lat="47.722556" lon="7.771899">
        <ele>622.720603</ele>
        <time>2021-11-21T23:53:43.820Z</time>
      </trkpt>
      <trkpt lat="47.722364" lon="7.771897">
        <ele>623.290054</ele>
        <time>2021-11-21T23:53:50.368Z</time>
      </trkpt>
      <trkpt lat="47.722282" lon="7.771884">
        <ele>623.534630</ele>
        <time>2021-11-21T23:53:53.857Z</time>
      </trkpt>
      <trkpt lat="47.721733" lon="7.771783">
        <ele>626.017736</ele>
        <time>2021-11-21T23:54:13.008Z</time>
      </trkpt>
      <trkpt lat="47.721698" lon="7.771772">
        <ele>626.189121</ele>
        <time>2021-11-21T23:54:14.738Z</time>
      </trkpt>
      <trkpt lat="47.721390" lon="7.771673">
        <ele>627.698796</ele>
        <time>2021-11-21T23:54:27.058Z</time>
      </trkpt>
      <trkpt lat="47.721123" lon="7.771461">
        <ele>629.148994</ele>
        <time>2021-11-21T23:54:37.673Z</time>
      </trkpt>
      <trkpt lat="47.720944" lon="7.771054">
        <ele>630.716188</ele>
        <time>2021-11-21T23:54:47.604Z</time>
      </trkpt>
      <trkpt lat="47.720938" lon="7.771036">
        <ele>630.780933</ele>
        <time>2021-11-21T23:54:48.245Z</time>
      </trkpt>
      <trkpt lat="47.720895" lon="7.770905">
        <ele>631.250720</ele>
        <time>2021-11-21T23:54:51.398Z</time>
      </trkpt>
      <trkpt lat="47.720827" lon="7.770667">
        <ele>632.084104</ele>
        <time>2021-11-21T23:54:56.018Z</time>
      </trkpt>
      <trkpt lat="47.720792" lon="7.770546">
        <ele>632.528114</ele>
        <time>2021-11-21T23:54:58.635Z</time>
      </trkpt>
      <trkpt lat="47.720662" lon="7.770082">
        <ele>634.518064</ele>
        <time>2021-11-21T23:55:08.292Z</time>
      </trkpt>
      <trkpt lat="47.720633" lon="7.769975">
        <ele>634.974771</ele>
        <time>2021-11-21T23:55:11.176Z</time>
      </trkpt>
      <trkpt lat="47.720539" lon="7.769857">
        <ele>635.698832</ele>
        <time>2021-11-21T23:55:15.385Z</time>
      </trkpt>
      <trkpt lat="47.720380" lon="7.769838">
        <ele>636.637559</ele>
        <time>2021-11-21T23:55:20.394Z</time>
      </trkpt>
      <trkpt lat="47.720036" lon="7.770012">
        <ele>638.775983</ele>
        <time>2021-11-21T23:55:34.449Z</time>
      </trkpt>
      <trkpt lat="47.719583" lon="7.770100">
        <ele>641.464538</ele>
        <time>2021-11-21T23:55:53.761Z</time>
      </trkpt>
      <trkpt lat="47.719268" lon="7.770319">
        <ele>643.743763</ele>
        <time>2021-11-21T23:56:10.187Z</time>
      </trkpt>
      <trkpt lat="47.719160" lon="7.770415">
        <ele>644.826976</ele>
        <time>2021-11-21T23:56:17.050Z</time>
      </trkpt>
      <trkpt lat="47.718812" lon="7.770740">
        <ele>648.364755</ele>
        <time>2021-11-21T23:56:37.264Z</time>
      </trkpt>
      <trkpt lat="47.718440" lon="7.771099">
        <ele>652.182647</ele>
        <time>2021-11-21T23:56:59.128Z</time>
      </trkpt>
      <trkpt lat="47.718117" lon="7.771397">
        <ele>655.455084</ele>
        <time>2021-11-21T23:57:18.662Z</time>
      </trkpt>
      <trkpt lat="47.717866" lon="7.771646">
        <ele>658.052707</ele>
        <time>2021-11-21T23:57:34.878Z</time>
      </trkpt>
      <trkpt lat="47.717588" lon="7.771853">
        <ele>660.312992</ele>
        <time>2021-11-21T23:57:50.153Z</time>
      </trkpt>
      <trkpt lat="47.716924" lon="7.772105">
        <ele>665.115177</ele>
        <time>2021-11-21T23:58:20.671Z</time>
      </trkpt>
      <trkpt lat="47.716188" lon="7.772153">
        <ele>670.277575</ele>
        <time>2021-11-21T23:58:49.298Z</time>
      </trkpt>
      <trkpt lat="47.715647" lon="7.772065">
        <ele>673.678619</ele>
        <time>2021-11-21T23:59:09.315Z</time>
      </trkpt>
      <trkpt lat="47.714966" lon="7.771742">
        <ele>677.998066</ele>
        <time>2021-11-21T23:59:36.845Z</time>
      </trkpt>
      <trkpt lat="47.713842" lon="7.770584">
        <ele>684.744531</ele>
        <time>2021-11-22T00:00:32.330Z</time>
      </trkpt>
      <trkpt lat="47.713579" lon="7.770443">
        <ele>685.837591</ele>
        <time>2021-11-22T00:00:41.414Z</time>
      </trkpt>
      <trkpt lat="47.712661" lon="7.770141">
        <ele>688.853176</ele>
        <time>2021-11-22T00:01:02.765Z</time>
      </trkpt>
      <trkpt lat="47.712561" lon="7.770086">
        <ele>688.739229</ele>
        <time>2021-11-22T00:01:05.538Z</time>
      </trkpt>
      <trkpt lat="47.712490" lon="7.770038">
        <ele>688.655875</ele>
        <time>2021-11-22T00:01:06.668Z</time>
      </trkpt>
      <trkpt lat="47.712406" lon="7.769971">
        <ele>688.553999</ele>
        <time>2021-11-22T00:01:08.059Z</time>
      </trkpt>
      <trkpt lat="47.712317" lon="7.769895">
        <ele>688.444309</ele>
        <time>2021-11-22T00:01:09.083Z</time>
      </trkpt>
      <trkpt lat="47.711976" lon="7.769448">
        <ele>687.958412</ele>
        <time>2021-11-22T00:01:14.353Z</time>
      </trkpt>
      <trkpt lat="47.711641" lon="7.768676">
        <ele>687.297884</ele>
        <time>2021-11-22T00:01:20.930Z</time>
      </trkpt>
      <trkpt lat="47.711558" lon="7.768253">
        <ele>687.075649</ele>
        <time>2021-11-22T00:01:24.257Z</time>
      </trkpt>
      <trkpt lat="47.711522" lon="7.767707">
        <ele>687.087857</ele>
        <time>2021-11-22T00:01:28.209Z</time>
      </trkpt>
      <trkpt lat="47.711535" lon="7.767521">
        <ele>687.092018</ele>
        <time>2021-11-22T00:01:29.562Z</time>
      </trkpt>
      <trkpt lat="47.711594" lon="7.766979">
        <ele>687.104235</ele>
        <time>2021-11-22T00:01:34.763Z</time>
      </trkpt>
      <trkpt lat="47.711544" lon="7.766597">
        <ele>687.112894</ele>
        <time>2021-11-22T00:01:39.539Z</time>
      </trkpt>
      <trkpt lat="47.711280" lon="7.766040">
        <ele>687.128055</ele>
        <time>2021-11-22T00:01:47.920Z</time>
      </trkpt>
      <trkpt lat="47.710793" lon="7.765513">
        <ele>688.992583</ele>
        <time>2021-11-22T00:02:04.181Z</time>
      </trkpt>
      <trkpt lat="47.709779" lon="7.764609">
        <ele>693.630170</ele>
        <time>2021-11-22T00:02:44.792Z</time>
      </trkpt>
      <trkpt lat="47.709606" lon="7.764460">
        <ele>694.276512</ele>
        <time>2021-11-22T00:02:51.297Z</time>
      </trkpt>
      <trkpt lat="47.709431" lon="7.764294">
        <ele>694.598012</ele>
        <time>2021-11-22T00:02:57.014Z</time>
      </trkpt>
      <trkpt lat="47.709325" lon="7.764019">
        <ele>694.928255</ele>
        <time>2021-11-22T00:03:03.390Z</time>
      </trkpt>
      <trkpt lat="47.709385" lon="7.763694">
        <ele>695.279428</ele>
        <time>2021-11-22T00:03:08.279Z</time>
      </trkpt>
      <trkpt lat="47.709432" lon="7.763572">
        <ele>695.425916</ele>
        <time>2021-11-22T00:03:12.064Z</time>
      </trkpt>
      <trkpt lat="47.709462" lon="7.763486">
        <ele>695.526857</ele>
        <time>2021-11-22T00:03:13.173Z</time>
      </trkpt>
      <trkpt lat="47.709705" lon="7.762968">
        <ele>696.184850</ele>
        <time>2021-11-22T00:03:21.704Z</time>
      </trkpt>
      <trkpt lat="47.709753" lon="7.762866">
        <ele>696.314549</ele>
        <time>2021-11-22T00:03:22.610Z</time>
      </trkpt>
      <trkpt lat="47.710158" lon="7.762372">
        <ele>696.559468</ele>
        <time>2021-11-22T00:03:30.656Z</time>
      </trkpt>
      <trkpt lat="47.710244" lon="7.762179">
        <ele>695.913575</ele>
        <time>2021-11-22T00:03:32.118Z</time>
      </trkpt>
      <trkpt lat="47.710263" lon="7.762018">
        <ele>695.457489</ele>
        <time>2021-11-22T00:03:33.269Z</time>
      </trkpt>
      <trkpt lat="47.710195" lon="7.761616">
        <ele>694.300910</ele>
        <time>2021-11-22T00:03:36.080Z</time>
      </trkpt>
      <trkpt lat="47.710335" lon="7.761409">
        <ele>693.481992</ele>
        <time>2021-11-22T00:03:38.122Z</time>
      </trkpt>
      <trkpt lat="47.710427" lon="7.761335">
        <ele>693.048201</ele>
        <time>2021-11-22T00:03:39.076Z</time>
      </trkpt>
      <trkpt lat="47.710345" lon="7.761307">
        <ele>692.699310</ele>
        <time>2021-11-22T00:03:40.179Z</time>
      </trkpt>
      <trkpt lat="47.710137" lon="7.761291">
        <ele>691.835638</ele>
        <time>2021-11-22T00:03:43.148Z</time>
      </trkpt>
      <trkpt lat="47.710075" lon="7.761349">
        <ele>691.531847</ele>
        <time>2021-11-22T00:03:44.101Z</time>
      </trkpt>
      <trkpt lat="47.709783" lon="7.762047">
        <ele>689.014434</ele>
        <time>2021-11-22T00:03:51.381Z</time>
      </trkpt>
      <trkpt lat="47.709606" lon="7.762208">
        <ele>687.452389</ele>
        <time>2021-11-22T00:03:53.980Z</time>
      </trkpt>
      <trkpt lat="47.709403" lon="7.762275">
        <ele>685.887154</ele>
        <time>2021-11-22T00:03:56.770Z</time>
      </trkpt>
      <trkpt lat="47.709165" lon="7.762296">
        <ele>684.092544</ele>
        <time>2021-11-22T00:03:59.739Z</time>
      </trkpt>
      <trkpt lat="47.709083" lon="7.762304">
        <ele>683.473991</ele>
        <time>2021-11-22T00:04:00.833Z</time>
      </trkpt>
      <trkpt lat="47.708900" lon="7.762282">
        <ele>682.092028</ele>
        <time>2021-11-22T00:04:03.162Z</time>
      </trkpt>
      <trkpt lat="47.708723" lon="7.762260">
        <ele>680.755075</ele>
        <time>2021-11-22T00:04:05.493Z</time>
      </trkpt>
      <trkpt lat="47.708555" lon="7.762240">
        <ele>679.486468</ele>
        <time>2021-11-22T00:04:07.599Z</time>
      </trkpt>
      <trkpt lat="47.707866" lon="7.762055">
        <ele>673.517172</ele>
        <time>2021-11-22T00:04:16.350Z</time>
      </trkpt>
      <trkpt lat="47.707010" lon="7.762162">
        <ele>664.480509</ele>
        <time>2021-11-22T00:04:26.706Z</time>
      </trkpt>
      <trkpt lat="47.706337" lon="7.762008">
        <ele>657.317309</ele>
        <time>2021-11-22T00:04:34.957Z</time>
      </trkpt>
      <trkpt lat="47.705999" lon="7.761812">
        <ele>653.310072</ele>
        <time>2021-11-22T00:04:39.297Z</time>
      </trkpt>
      <trkpt lat="47.705956" lon="7.761777">
        <ele>652.766668</ele>
        <time>2021-11-22T00:04:39.853Z</time>
      </trkpt>
      <trkpt lat="47.705710" lon="7.761502">
        <ele>649.354757</ele>
        <time>2021-11-22T00:04:43.583Z</time>
      </trkpt>
      <trkpt lat="47.705557" lon="7.761465">
        <ele>647.636662</ele>
        <time>2021-11-22T00:04:45.414Z</time>
      </trkpt>
      <trkpt lat="47.705477" lon="7.761527">
        <ele>646.636634</ele>
        <time>2021-11-22T00:04:46.522Z</time>
      </trkpt>
      <trkpt lat="47.705141" lon="7.762094">
        <ele>641.001605</ele>
        <time>2021-11-22T00:04:52.652Z</time>
      </trkpt>
      <trkpt lat="47.704722" lon="7.762535">
        <ele>636.050738</ele>
        <time>2021-11-22T00:04:58.844Z</time>
      </trkpt>
      <trkpt lat="47.704635" lon="7.762687">
        <ele>635.171744</ele>
        <time>2021-11-22T00:05:00.004Z</time>
      </trkpt>
      <trkpt lat="47.704400" lon="7.763040">
        <ele>632.984456</ele>
        <time>2021-11-22T00:05:03.013Z</time>
      </trkpt>
      <trkpt lat="47.704361" lon="7.763038">
        <ele>632.729017</ele>
        <time>2021-11-22T00:05:03.357Z</time>
      </trkpt>
      <trkpt lat="47.704258" lon="7.762858">
        <ele>631.688211</ele>
        <time>2021-11-22T00:05:04.851Z</time>
      </trkpt>
      <trkpt lat="47.704157" lon="7.762660">
        <ele>630.593758</ele>
        <time>2021-11-22T00:05:06.352Z</time>
      </trkpt>
      <trkpt lat="47.704054" lon="7.762393">
        <ele>629.238062</ele>
        <time>2021-11-22T00:05:08.305Z</time>
      </trkpt>
      <trkpt lat="47.704011" lon="7.762287">
        <ele>628.692849</ele>
        <time>2021-11-22T00:05:09.029Z</time>
      </trkpt>
      <trkpt lat="47.703554" lon="7.761686">
        <ele>624.872867</ele>
        <time>2021-11-22T00:05:15.050Z</time>
      </trkpt>
      <trkpt lat="47.703192" lon="7.761373">
        <ele>622.872302</ele>
        <time>2021-11-22T00:05:19.307Z</time>
      </trkpt>
      <trkpt lat="47.701739" lon="7.761076">
        <ele>614.762462</ele>
        <time>2021-11-22T00:05:33.171Z</time>
      </trkpt>
      <trkpt lat="47.701504" lon="7.761039">
        <ele>612.228189</ele>
        <time>2021-11-22T00:05:35.324Z</time>
      </trkpt>
      <trkpt lat="47.701325" lon="7.760955">
        <ele>610.215117</ele>
        <time>2021-11-22T00:05:36.927Z</time>
      </trkpt>
      <trkpt lat="47.700935" lon="7.760790">
        <ele>605.866483</ele>
        <time>2021-11-22T00:05:40.421Z</time>
      </trkpt>
      <trkpt lat="47.700628" lon="7.760759">
        <ele>602.566590</ele>
        <time>2021-11-22T00:05:43.012Z</time>
      </trkpt>
      <trkpt lat="47.700087" lon="7.760472">
        <ele>595.751138</ele>
        <time>2021-11-22T00:05:47.805Z</time>
      </trkpt>
      <trkpt lat="47.699914" lon="7.760317">
        <ele>592.243628</ele>
        <time>2021-11-22T00:05:49.466Z</time>
      </trkpt>
      <trkpt lat="47.699376" lon="7.760231">
        <ele>582.848747</ele>
        <time>2021-11-22T00:05:53.924Z</time>
      </trkpt>
      <trkpt lat="47.698510" lon="7.760592">
        <ele>567.232348</ele>
        <time>2021-11-22T00:06:01.315Z</time>
      </trkpt>
      <trkpt lat="47.697996" lon="7.760549">
        <ele>557.905902</ele>
        <time>2021-11-22T00:06:05.532Z</time>
      </trkpt>
      <trkpt lat="47.697707" lon="7.760660">
        <ele>552.469994</ele>
        <time>2021-11-22T00:06:07.975Z</time>
      </trkpt>
      <trkpt lat="47.697378" lon="7.760918">
        <ele>545.695357</ele>
        <time>2021-11-22T00:06:11.025Z</time>
      </trkpt>
      <trkpt lat="47.696627" lon="7.761733">
        <ele>530.499532</ele>
        <time>2021-11-22T00:06:18.690Z</time>
      </trkpt>
      <trkpt lat="47.696326" lon="7.761871">
        <ele>526.877242</ele>
        <time>2021-11-22T00:06:21.306Z</time>
      </trkpt>
      <trkpt lat="47.696107" lon="7.761896">
        <ele>524.351505</ele>
        <time>2021-11-22T00:06:23.151Z</time>
      </trkpt>
      <trkpt lat="47.695666" lon="7.762185">
        <ele>518.808989</ele>
        <time>2021-11-22T00:06:27.247Z</time>
      </trkpt>
      <trkpt lat="47.695513" lon="7.762361">
        <ele>516.583915</ele>
        <time>2021-11-22T00:06:28.939Z</time>
      </trkpt>
      <trkpt lat="47.695493" lon="7.762491">
        <ele>515.551799</ele>
        <time>2021-11-22T00:06:29.731Z</time>
      </trkpt>
      <trkpt lat="47.695564" lon="7.762669">
        <ele>513.950375</ele>
        <time>2021-11-22T00:06:30.985Z</time>
      </trkpt>
      <trkpt lat="47.695765" lon="7.762918">
        <ele>512.445858</ele>
        <time>2021-11-22T00:06:33.444Z</time>
      </trkpt>
      <trkpt lat="47.696066" lon="7.763115">
        <ele>511.728593</ele>
        <time>2021-11-22T00:06:36.798Z</time>
      </trkpt>
      <trkpt lat="47.696609" lon="7.763029">
        <ele>510.537747</ele>
        <time>2021-11-22T00:06:43.313Z</time>
      </trkpt>
      <trkpt lat="47.696840" lon="7.763064">
        <ele>510.031385</ele>
        <time>2021-11-22T00:06:46.242Z</time>
      </trkpt>
      <trkpt lat="47.696991" lon="7.763158">
        <ele>509.674359</ele>
        <time>2021-11-22T00:06:48.573Z</time>
      </trkpt>
      <trkpt lat="47.697291" lon="7.763521">
        <ele>508.796829</ele>
        <time>2021-11-22T00:06:53.774Z</time>
      </trkpt>
      <trkpt lat="47.697489" lon="7.763998">
        <ele>507.356784</ele>
        <time>2021-11-22T00:06:58.815Z</time>
      </trkpt>
      <trkpt lat="47.697488" lon="7.764075">
        <ele>507.158891</ele>
        <time>2021-11-22T00:07:00.580Z</time>
      </trkpt>
      <trkpt lat="47.697431" lon="7.764188">
        <ele>506.796032</ele>
        <time>2021-11-22T00:07:01.491Z</time>
      </trkpt>
      <trkpt lat="47.697090" lon="7.763872">
        <ele>505.261691</ele>
        <time>2021-11-22T00:07:06.194Z</time>
      </trkpt>
      <trkpt lat="47.696957" lon="7.763850">
        <ele>504.750784</ele>
        <time>2021-11-22T00:07:07.699Z</time>
      </trkpt>
      <trkpt lat="47.696600" lon="7.764011">
        <ele>503.326419</ele>
        <time>2021-11-22T00:07:11.161Z</time>
      </trkpt>
      <trkpt lat="47.696460" lon="7.764217">
        <ele>502.574166</ele>
        <time>2021-11-22T00:07:12.906Z</time>
      </trkpt>
      <trkpt lat="47.696064" lon="7.764439">
        <ele>498.725499</ele>
        <time>2021-11-22T00:07:16.558Z</time>
      </trkpt>
      <trkpt lat="47.695664" lon="7.764442">
        <ele>493.952538</ele>
        <time>2021-11-22T00:07:19.957Z</time>
      </trkpt>
      <trkpt lat="47.695476" lon="7.764371">
        <ele>491.637937</ele>
        <time>2021-11-22T00:07:21.603Z</time>
      </trkpt>
      <trkpt lat="47.695366" lon="7.764381">
        <ele>490.322934</ele>
        <time>2021-11-22T00:07:22.528Z</time>
      </trkpt>
      <trkpt lat="47.695153" lon="7.764389">
        <ele>487.780553</ele>
        <time>2021-11-22T00:07:24.315Z</time>
      </trkpt>
      <trkpt lat="47.694379" lon="7.764437">
        <ele>478.385699</ele>
        <time>2021-11-22T00:07:30.792Z</time>
      </trkpt>
      <trkpt lat="47.693490" lon="7.764995">
        <ele>466.003543</ele>
        <time>2021-11-22T00:07:38.828Z</time>
      </trkpt>
      <trkpt lat="47.692906" lon="7.765240">
        <ele>458.217735</ele>
        <time>2021-11-22T00:07:44.005Z</time>
      </trkpt>
      <trkpt lat="47.692739" lon="7.765304">
        <ele>456.653478</ele>
        <time>2021-11-22T00:07:45.493Z</time>
      </trkpt>
      <trkpt lat="47.692495" lon="7.765473">
        <ele>454.728343</ele>
        <time>2021-11-22T00:07:47.833Z</time>
      </trkpt>
      <trkpt lat="47.691989" lon="7.765856">
        <ele>450.667401</ele>
        <time>2021-11-22T00:07:52.848Z</time>
      </trkpt>
      <trkpt lat="47.691439" lon="7.765922">
        <ele>446.721572</ele>
        <time>2021-11-22T00:07:57.906Z</time>
      </trkpt>
      <trkpt lat="47.690988" lon="7.766068">
        <ele>444.056943</ele>
        <time>2021-11-22T00:08:02.367Z</time>
      </trkpt>
      <trkpt lat="47.689533" lon="7.766957">
        <ele>438.834594</ele>
        <time>2021-11-22T00:08:18.601Z</time>
      </trkpt>
      <trkpt lat="47.689302" lon="7.767203">
        <ele>437.592801</ele>
        <time>2021-11-22T00:08:21.464Z</time>
      </trkpt>
      <trkpt lat="47.689039" lon="7.767615">
        <ele>435.816976</ele>
        <time>2021-11-22T00:08:25.219Z</time>
      </trkpt>
      <trkpt lat="47.688696" lon="7.767783">
        <ele>434.138949</ele>
        <time>2021-11-22T00:08:28.669Z</time>
      </trkpt>
      <trkpt lat="47.688232" lon="7.767885">
        <ele>431.959645</ele>
        <time>2021-11-22T00:08:33.104Z</time>
      </trkpt>
      <trkpt lat="47.687527" lon="7.768472">
        <ele>427.705749</ele>
        <time>2021-11-22T00:08:40.493Z</time>
      </trkpt>
      <trkpt lat="47.686830" lon="7.769254">
        <ele>422.672246</ele>
        <time>2021-11-22T00:08:48.527Z</time>
      </trkpt>
      <trkpt lat="47.686626" lon="7.769423">
        <ele>421.326196</ele>
        <time>2021-11-22T00:08:50.692Z</time>
      </trkpt>
      <trkpt lat="47.686282" lon="7.769143">
        <ele>419.162356</ele>
        <time>2021-11-22T00:08:54.343Z</time>
      </trkpt>
      <trkpt lat="47.685919" lon="7.768853">
        <ele>417.057182</ele>
        <time>2021-11-22T00:08:58.225Z</time>
      </trkpt>
      <trkpt lat="47.685818" lon="7.768792">
        <ele>416.500309</ele>
        <time>2021-11-22T00:08:59.234Z</time>
      </trkpt>
      <trkpt lat="47.685747" lon="7.768784">
        <ele>416.136630</ele>
        <time>2021-11-22T00:08:59.894Z</time>
      </trkpt>
      <trkpt lat="47.685700" lon="7.768415">
        <ele>414.845350</ele>
        <time>2021-11-22T00:09:02.282Z</time>
      </trkpt>
      <trkpt lat="47.685661" lon="7.768142">
        <ele>413.885764</ele>
        <time>2021-11-22T00:09:04.041Z</time>
      </trkpt>
      <trkpt lat="47.685555" lon="7.767618">
        <ele>412.004453</ele>
        <time>2021-11-22T00:09:07.571Z</time>
      </trkpt>
      <trkpt lat="47.685320" lon="7.766645">
        <ele>408.636277</ele>
        <time>2021-11-22T00:09:14.129Z</time>
      </trkpt>
      <trkpt lat="47.685077" lon="7.765153">
        <ele>403.789392</ele>
        <time>2021-11-22T00:09:23.802Z</time>
      </trkpt>
      <trkpt lat="47.685026" lon="7.765037">
        <ele>403.351931</ele>
        <time>2021-11-22T00:09:24.778Z</time>
      </trkpt>
      <trkpt lat="47.684595" lon="7.764607">
        <ele>401.435892</ele>
        <time>2021-11-22T00:09:29.993Z</time>
      </trkpt>
      <trkpt lat="47.684505" lon="7.764394">
        <ele>400.941381</ele>
        <time>2021-11-22T00:09:31.699Z</time>
      </trkpt>
      <trkpt lat="47.684509" lon="7.763428">
        <ele>399.041784</ele>
        <time>2021-11-22T00:09:38.434Z</time>
      </trkpt>
      <trkpt lat="47.684506" lon="7.763162">
        <ele>398.518643</ele>
        <time>2021-11-22T00:09:40.490Z</time>
      </trkpt>
      <trkpt lat="47.684511" lon="7.762841">
        <ele>397.887253</ele>
        <time>2021-11-22T00:09:42.697Z</time>
      </trkpt>
      <trkpt lat="47.684654" lon="7.761861">
        <ele>395.836610</ele>
        <time>2021-11-22T00:09:49.831Z</time>
      </trkpt>
      <trkpt lat="47.684665" lon="7.760823">
        <ele>393.652055</ele>
        <time>2021-11-22T00:09:57.009Z</time>
      </trkpt>
      <trkpt lat="47.684876" lon="7.759819">
        <ele>391.438767</ele>
        <time>2021-11-22T00:10:03.963Z</time>
      </trkpt>
      <trkpt lat="47.685017" lon="7.759418">
        <ele>390.669013</ele>
        <time>2021-11-22T00:10:07.024Z</time>
      </trkpt>
      <trkpt lat="47.685263" lon="7.758966">
        <ele>389.685555</ele>
        <time>2021-11-22T00:10:11.034Z</time>
      </trkpt>
      <trkpt lat="47.685241" lon="7.758656">
        <ele>389.158125</ele>
        <time>2021-11-22T00:10:13.262Z</time>
      </trkpt>
      <trkpt lat="47.685154" lon="7.758467">
        <ele>388.770723</ele>
        <time>2021-11-22T00:10:14.869Z</time>
      </trkpt>
      <trkpt lat="47.685049" lon="7.758639">
        <ele>388.377859</ele>
        <time>2021-11-22T00:10:16.568Z</time>
      </trkpt>
      <trkpt lat="47.684757" lon="7.759245">
        <ele>387.116909</ele>
        <time>2021-11-22T00:10:22.137Z</time>
      </trkpt>
      <trkpt lat="47.684706" lon="7.759352">
        <ele>386.895698</ele>
        <time>2021-11-22T00:10:23.137Z</time>
      </trkpt>
      <trkpt lat="47.684321" lon="7.760151">
        <ele>386.102792</ele>
        <time>2021-11-22T00:10:30.983Z</time>
      </trkpt>
      <trkpt lat="47.684182" lon="7.760350">
        <ele>385.871385</ele>
        <time>2021-11-22T00:10:33.337Z</time>
      </trkpt>
      <trkpt lat="47.683505" lon="7.761027">
        <ele>384.893115</ele>
        <time>2021-11-22T00:10:43.448Z</time>
      </trkpt>
      <trkpt lat="47.683058" lon="7.761671">
        <ele>383.967797</ele>
        <time>2021-11-22T00:10:50.787Z</time>
      </trkpt>
      <trkpt lat="47.682202" lon="7.762374">
        <ele>382.442022</ele>
        <time>2021-11-22T00:11:01.686Z</time>
      </trkpt>
      <trkpt lat="47.681960" lon="7.762650">
        <ele>381.966086</ele>
        <time>2021-11-22T00:11:05.081Z</time>
      </trkpt>
      <trkpt lat="47.681593" lon="7.763218">
        <ele>381.254090</ele>
        <time>2021-11-22T00:11:11.378Z</time>
      </trkpt>
      <trkpt lat="47.681384" lon="7.763509">
        <ele>380.871725</ele>
        <time>2021-11-22T00:11:14.777Z</time>
      </trkpt>
      <trkpt lat="47.681230" lon="7.763651">
        <ele>380.629785</ele>
        <time>2021-11-22T00:11:16.905Z</time>
      </trkpt>
      <trkpt lat="47.681103" lon="7.763764">
        <ele>380.432183</ele>
        <time>2021-11-22T00:11:18.649Z</time>
      </trkpt>
      <trkpt lat="47.680914" lon="7.763931">
        <ele>380.138651</ele>
        <time>2021-11-22T00:11:21.293Z</time>
      </trkpt>
      <trkpt lat="47.680776" lon="7.764053">
        <ele>379.924297</ele>
        <time>2021-11-22T00:11:23.206Z</time>
      </trkpt>
      <trkpt lat="47.680745" lon="7.764080">
        <ele>379.876330</ele>
        <time>2021-11-22T00:11:23.719Z</time>
      </trkpt>
      <trkpt lat="47.680576" lon="7.764209">
        <ele>379.622713</ele>
        <time>2021-11-22T00:11:25.964Z</time>
      </trkpt>
      <trkpt lat="47.680498" lon="7.764261">
        <ele>379.505710</ele>
        <time>2021-11-22T00:11:26.970Z</time>
      </trkpt>
      <trkpt lat="47.680440" lon="7.764296">
        <ele>379.412591</ele>
        <time>2021-11-22T00:11:27.697Z</time>
      </trkpt>
      <trkpt lat="47.680321" lon="7.764329">
        <ele>379.232530</ele>
        <time>2021-11-22T00:11:29.054Z</time>
      </trkpt>
      <trkpt lat="47.680143" lon="7.764322">
        <ele>378.967677</ele>
        <time>2021-11-22T00:11:31.053Z</time>
      </trkpt>
      <trkpt lat="47.679898" lon="7.764308">
        <ele>378.602990</ele>
        <time>2021-11-22T00:11:33.793Z</time>
      </trkpt>
      <trkpt lat="47.679782" lon="7.764295">
        <ele>378.429960</ele>
        <time>2021-11-22T00:11:35.180Z</time>
      </trkpt>
      <trkpt lat="47.679269" lon="7.764798">
        <ele>377.515642</ele>
        <time>2021-11-22T00:11:42.503Z</time>
      </trkpt>
      <trkpt lat="47.679104" lon="7.764907">
        <ele>377.247038</ele>
        <time>2021-11-22T00:11:44.660Z</time>
      </trkpt>
      <trkpt lat="47.678967" lon="7.764958">
        <ele>377.036958</ele>
        <time>2021-11-22T00:11:46.177Z</time>
      </trkpt>
      <trkpt lat="47.678542" lon="7.765070">
        <ele>376.265577</ele>
        <time>2021-11-22T00:11:50.945Z</time>
      </trkpt>
      <trkpt lat="47.678334" lon="7.765216">
        <ele>375.827896</ele>
        <time>2021-11-22T00:11:53.524Z</time>
      </trkpt>
      <trkpt lat="47.678111" lon="7.765484">
        <ele>375.282152</ele>
        <time>2021-11-22T00:11:56.704Z</time>
      </trkpt>
      <trkpt lat="47.677963" lon="7.765384">
        <ele>374.972818</ele>
        <time>2021-11-22T00:11:58.407Z</time>
      </trkpt>
      <trkpt lat="47.677617" lon="7.765148">
        <ele>374.248464</ele>
        <time>2021-11-22T00:12:02.553Z</time>
      </trkpt>
      <trkpt lat="47.677471" lon="7.764954">
        <ele>373.875764</ele>
        <time>2021-11-22T00:12:04.745Z</time>
      </trkpt>
      <trkpt lat="47.677427" lon="7.764836">
        <ele>373.702982</ele>
        <time>2021-11-22T00:12:05.708Z</time>
      </trkpt>
      <trkpt lat="47.677379" lon="7.764714">
        <ele>373.521981</ele>
        <time>2021-11-22T00:12:06.829Z</time>
      </trkpt>
      <trkpt lat="47.677356" lon="7.764658">
        <ele>373.437956</ele>
        <time>2021-11-22T00:12:07.357Z</time>
      </trkpt>
      <trkpt lat="47.677342" lon="7.764623">
        <ele>373.394648</ele>
        <time>2021-11-22T00:12:07.669Z</time>
      </trkpt>
      <trkpt lat="47.677251" lon="7.764397">
        <ele>373.116020</ele>
        <time>2021-11-22T00:12:09.652Z</time>
      </trkpt>
      <trkpt lat="47.677202" lon="7.764311">
        <ele>372.996816</ele>
        <time>2021-11-22T00:12:10.603Z</time>
      </trkpt>
      <trkpt lat="47.677132" lon="7.764248">
        <ele>372.868191</ele>
        <time>2021-11-22T00:12:11.572Z</time>
      </trkpt>
      <trkpt lat="47.676954" lon="7.764130">
        <ele>372.561866</ele>
        <time>2021-11-22T00:12:13.716Z</time>
      </trkpt>
      <trkpt lat="47.676526" lon="7.763904">
        <ele>371.848024</ele>
        <time>2021-11-22T00:12:18.975Z</time>
      </trkpt>
      <trkpt lat="47.676293" lon="7.763712">
        <ele>371.429284</ele>
        <time>2021-11-22T00:12:21.949Z</time>
      </trkpt>
      <trkpt lat="47.676174" lon="7.763597">
        <ele>371.206173</ele>
        <time>2021-11-22T00:12:23.660Z</time>
      </trkpt>
      <trkpt lat="47.676009" lon="7.763394">
        <ele>370.869465</ele>
        <time>2021-11-22T00:12:26.011Z</time>
      </trkpt>
      <trkpt lat="47.675758" lon="7.763117">
        <ele>370.439651</ele>
        <time>2021-11-22T00:12:29.661Z</time>
      </trkpt>
      <trkpt lat="47.675490" lon="7.762924">
        <ele>370.095865</ele>
        <time>2021-11-22T00:12:33.269Z</time>
      </trkpt>
      <trkpt lat="47.675464" lon="7.762915">
        <ele>370.065050</ele>
        <time>2021-11-22T00:12:33.584Z</time>
      </trkpt>
      <trkpt lat="47.674971" lon="7.762746">
        <ele>369.481046</ele>
        <time>2021-11-22T00:12:39.733Z</time>
      </trkpt>
      <trkpt lat="47.674813" lon="7.762712">
        <ele>369.296771</ele>
        <time>2021-11-22T00:12:41.775Z</time>
      </trkpt>
      <trkpt lat="47.674631" lon="7.762673">
        <ele>369.084523</ele>
        <time>2021-11-22T00:12:44.074Z</time>
      </trkpt>
      <trkpt lat="47.674325" lon="7.762551">
        <ele>368.718818</ele>
        <time>2021-11-22T00:12:47.825Z</time>
      </trkpt>
      <trkpt lat="47.673934" lon="7.762209">
        <ele>368.135760</ele>
        <time>2021-11-22T00:12:53.242Z</time>
      </trkpt>
      <trkpt lat="47.673724" lon="7.761991">
        <ele>367.788290</ele>
        <time>2021-11-22T00:12:56.178Z</time>
      </trkpt>
      <trkpt lat="47.673701" lon="7.761967">
        <ele>367.750168</ele>
        <time>2021-11-22T00:12:56.501Z</time>
      </trkpt>
      <trkpt lat="47.673293" lon="7.761547">
        <ele>367.076931</ele>
        <time>2021-11-22T00:13:02.229Z</time>
      </trkpt>
      <trkpt lat="47.673239" lon="7.761480">
        <ele>366.981504</ele>
        <time>2021-11-22T00:13:02.947Z</time>
      </trkpt>
      <trkpt lat="47.673213" lon="7.761444">
        <ele>366.933296</ele>
        <time>2021-11-22T00:13:03.360Z</time>
      </trkpt>
      <trkpt lat="47.673038" lon="7.761205">
        <ele>366.610873</ele>
        <time>2021-11-22T00:13:06.331Z</time>
      </trkpt>
      <trkpt lat="47.672695" lon="7.760471">
        <ele>365.803022</ele>
        <time>2021-11-22T00:13:13.360Z</time>
      </trkpt>
      <trkpt lat="47.672494" lon="7.760051">
        <ele>365.345073</ele>
        <time>2021-11-22T00:13:17.617Z</time>
      </trkpt>
      <trkpt lat="47.672299" lon="7.759692">
        <ele>364.935140</ele>
        <time>2021-11-22T00:13:21.134Z</time>
      </trkpt>
      <trkpt lat="47.672155" lon="7.759494">
        <ele>364.676122</ele>
        <time>2021-11-22T00:13:23.551Z</time>
      </trkpt>
      <trkpt lat="47.671675" lon="7.758545">
        <ele>363.662870</ele>
        <time>2021-11-22T00:13:32.853Z</time>
      </trkpt>
      <trkpt lat="47.671575" lon="7.758350">
        <ele>363.536122</ele>
        <time>2021-11-22T00:13:34.668Z</time>
      </trkpt>
      <trkpt lat="47.671392" lon="7.758039">
        <ele>363.322552</ele>
        <time>2021-11-22T00:13:38.140Z</time>
      </trkpt>
      <trkpt lat="47.671392" lon="7.758039">
        <ele>363.322552</ele>
        <time>2021-11-22T00:13:38.144Z</time>
      </trkpt>
      <trkpt lat="47.671326" lon="7.757939">
        <ele>363.250145</ele>
        <time>2021-11-22T00:13:39.327Z</time>
      </trkpt>
      <trkpt lat="47.671160" lon="7.757700">
        <ele>363.072593</ele>
        <time>2021-11-22T00:13:42.385Z</time>
      </trkpt>
      <trkpt lat="47.671008" lon="7.757509">
        <ele>362.919688</ele>
        <time>2021-11-22T00:13:44.734Z</time>
      </trkpt>
      <trkpt lat="47.670581" lon="7.757133">
        <ele>362.538470</ele>
        <time>2021-11-22T00:13:51.244Z</time>
      </trkpt>
      <trkpt lat="47.670478" lon="7.757079">
        <ele>362.454589</ele>
        <time>2021-11-22T00:13:52.490Z</time>
      </trkpt>
      <trkpt lat="47.670315" lon="7.757010">
        <ele>362.365505</ele>
        <time>2021-11-22T00:13:54.950Z</time>
      </trkpt>
      <trkpt lat="47.670093" lon="7.756951">
        <ele>362.662679</ele>
        <time>2021-11-22T00:13:57.983Z</time>
      </trkpt>
      <trkpt lat="47.669887" lon="7.756911">
        <ele>362.936433</ele>
        <time>2021-11-22T00:14:02.175Z</time>
      </trkpt>
      <trkpt lat="47.669846" lon="7.756905">
        <ele>362.990720</ele>
        <time>2021-11-22T00:14:02.876Z</time>
      </trkpt>
      <trkpt lat="47.669650" lon="7.756878">
        <ele>363.250095</ele>
        <time>2021-11-22T00:14:06.478Z</time>
      </trkpt>
      <trkpt lat="47.669568" lon="7.756860">
        <ele>363.359320</ele>
        <time>2021-11-22T00:14:08.640Z</time>
      </trkpt>
      <trkpt lat="47.669091" lon="7.756793">
        <ele>363.990661</ele>
        <time>2021-11-22T00:14:19.185Z</time>
      </trkpt>
      <trkpt lat="47.668741" lon="7.756742">
        <ele>364.454066</ele>
        <time>2021-11-22T00:14:27.565Z</time>
      </trkpt>
      <trkpt lat="47.668389" lon="7.756691">
        <ele>365.000161</ele>
        <time>2021-11-22T00:14:35.910Z</time>
      </trkpt>
      <trkpt lat="47.668204" lon="7.756659">
        <ele>365.338933</ele>
        <time>2021-11-22T00:14:39.534Z</time>
      </trkpt>
      <trkpt lat="47.668037" lon="7.756617">
        <ele>365.647015</ele>
        <time>2021-11-22T00:14:44.233Z</time>
      </trkpt>
      <trkpt lat="47.667940" lon="7.756573">
        <ele>365.831496</ele>
        <time>2021-11-22T00:14:45.930Z</time>
      </trkpt>
      <trkpt lat="47.667535" lon="7.756311">
        <ele>366.635021</ele>
        <time>2021-11-22T00:14:56.057Z</time>
      </trkpt>
      <trkpt lat="47.666965" lon="7.755610">
        <ele>367.981187</ele>
        <time>2021-11-22T00:15:12.128Z</time>
      </trkpt>
      <trkpt lat="47.666145" lon="7.754840">
        <ele>369.191903</ele>
        <time>2021-11-22T00:15:31.494Z</time>
      </trkpt>
      <trkpt lat="47.665704" lon="7.754188">
        <ele>369.968495</ele>
        <time>2021-11-22T00:15:43.056Z</time>
      </trkpt>
      <trkpt lat="47.665699" lon="7.754180">
        <ele>369.977667</ele>
        <time>2021-11-22T00:15:43.502Z</time>
      </trkpt>
      <trkpt lat="47.665007" lon="7.753666">
        <ele>370.851032</ele>
        <time>2021-11-22T00:15:58.405Z</time>
      </trkpt>
      <trkpt lat="47.664195" lon="7.752781">
        <ele>371.946492</ele>
        <time>2021-11-22T00:16:18.536Z</time>
      </trkpt>
      <trkpt lat="47.663829" lon="7.752468">
        <ele>372.104078</ele>
        <time>2021-11-22T00:16:26.162Z</time>
      </trkpt>
      <trkpt lat="47.663554" lon="7.752233">
        <ele>371.984351</ele>
        <time>2021-11-22T00:16:31.038Z</time>
      </trkpt>
      <trkpt lat="47.663254" lon="7.751899">
        <ele>371.842862</ele>
        <time>2021-11-22T00:16:35.775Z</time>
      </trkpt>
      <trkpt lat="47.663246" lon="7.751885">
        <ele>371.838196</ele>
        <time>2021-11-22T00:16:35.932Z</time>
      </trkpt>
      <trkpt lat="47.663102" lon="7.751640">
        <ele>371.755557</ele>
        <time>2021-11-22T00:16:38.711Z</time>
      </trkpt>
      <trkpt lat="47.662784" lon="7.750886">
        <ele>371.529469</ele>
        <time>2021-11-22T00:16:45.955Z</time>
      </trkpt>
      <trkpt lat="47.662642" lon="7.750494">
        <ele>371.529963</ele>
        <time>2021-11-22T00:16:50.003Z</time>
      </trkpt>
      <trkpt lat="47.662582" lon="7.750324">
        <ele>371.545060</ele>
        <time>2021-11-22T00:16:51.683Z</time>
      </trkpt>
      <trkpt lat="47.662508" lon="7.750137">
        <ele>371.562122</ele>
        <time>2021-11-22T00:16:53.444Z</time>
      </trkpt>
      <trkpt lat="47.662324" lon="7.749780">
        <ele>371.597484</ele>
        <time>2021-11-22T00:16:57.657Z</time>
      </trkpt>
      <trkpt lat="47.662148" lon="7.749579">
        <ele>371.623418</ele>
        <time>2021-11-22T00:17:01.838Z</time>
      </trkpt>
      <trkpt lat="47.662063" lon="7.749497">
        <ele>371.635257</ele>
        <time>2021-11-22T00:17:02.929Z</time>
      </trkpt>
      <trkpt lat="47.661944" lon="7.749391">
        <ele>371.651466</ele>
        <time>2021-11-22T00:17:05.552Z</time>
      </trkpt>
      <trkpt lat="47.661864" lon="7.749324">
        <ele>371.662193</ele>
        <time>2021-11-22T00:17:07.455Z</time>
      </trkpt>
      <trkpt lat="47.661594" lon="7.749074">
        <ele>371.699358</ele>
        <time>2021-11-22T00:17:12.540Z</time>
      </trkpt>
      <trkpt lat="47.660305" lon="7.747482">
        <ele>372.843689</ele>
        <time>2021-11-22T00:17:46.760Z</time>
      </trkpt>
      <trkpt lat="47.659218" lon="7.746016">
        <ele>371.299916</ele>
        <time>2021-11-22T00:18:03.801Z</time>
      </trkpt>
      <trkpt lat="47.658989" lon="7.745708">
        <ele>370.867636</ele>
        <time>2021-11-22T00:18:07.156Z</time>
      </trkpt>
      <trkpt lat="47.658680" lon="7.745390">
        <ele>370.379532</ele>
        <time>2021-11-22T00:18:11.325Z</time>
      </trkpt>
      <trkpt lat="47.658453" lon="7.745199">
        <ele>370.100862</ele>
        <time>2021-11-22T00:18:14.150Z</time>
      </trkpt>
      <trkpt lat="47.658398" lon="7.745154">
        <ele>370.033792</ele>
        <time>2021-11-22T00:18:15.042Z</time>
      </trkpt>
      <trkpt lat="47.657357" lon="7.744551">
        <ele>368.840348</ele>
        <time>2021-11-22T00:18:28.495Z</time>
      </trkpt>
      <trkpt lat="47.656781" lon="7.744132">
        <ele>368.434139</ele>
        <time>2021-11-22T00:18:38.271Z</time>
      </trkpt>
      <trkpt lat="47.656638" lon="7.744059">
        <ele>368.378478</ele>
        <time>2021-11-22T00:18:40.409Z</time>
      </trkpt>
      <trkpt lat="47.656638" lon="7.744059">
        <ele>368.378478</ele>
        <time>2021-11-22T00:18:40.422Z</time>
      </trkpt>
      <trkpt lat="47.656592" lon="7.744040">
        <ele>368.360903</ele>
        <time>2021-11-22T00:18:41.153Z</time>
      </trkpt>
      <trkpt lat="47.656129" lon="7.743833">
        <ele>368.182921</ele>
        <time>2021-11-22T00:18:48.378Z</time>
      </trkpt>
      <trkpt lat="47.654324" lon="7.743075">
        <ele>366.705929</ele>
        <time>2021-11-22T00:19:11.963Z</time>
      </trkpt>
      <trkpt lat="47.653639" lon="7.742914">
        <ele>365.967630</ele>
        <time>2021-11-22T00:19:19.946Z</time>
      </trkpt>
      <trkpt lat="47.653011" lon="7.743041">
        <ele>365.160358</ele>
        <time>2021-11-22T00:19:27.369Z</time>
      </trkpt>
      <trkpt lat="47.652352" lon="7.743329">
        <ele>364.285372</ele>
        <time>2021-11-22T00:19:35.638Z</time>
      </trkpt>
      <trkpt lat="47.651664" lon="7.743365">
        <ele>362.891630</ele>
        <time>2021-11-22T00:19:44.028Z</time>
      </trkpt>
      <trkpt lat="47.650941" lon="7.743251">
        <ele>360.539380</ele>
        <time>2021-11-22T00:19:51.934Z</time>
      </trkpt>
      <trkpt lat="47.650238" lon="7.743181">
        <ele>358.259883</ele>
        <time>2021-11-22T00:19:58.768Z</time>
      </trkpt>
      <trkpt lat="47.649349" lon="7.742957">
        <ele>352.161105</ele>
        <time>2021-11-22T00:20:06.895Z</time>
      </trkpt>
      <trkpt lat="47.648726" lon="7.742773">
        <ele>347.574279</ele>
        <time>2021-11-22T00:20:12.496Z</time>
      </trkpt>
      <trkpt lat="47.648686" lon="7.742761">
        <ele>347.279601</ele>
        <time>2021-11-22T00:20:12.853Z</time>
      </trkpt>
      <trkpt lat="47.648430" lon="7.742708">
        <ele>345.413147</ele>
        <time>2021-11-22T00:20:15.123Z</time>
      </trkpt>
      <trkpt lat="47.647923" lon="7.742761">
        <ele>342.507566</ele>
        <time>2021-11-22T00:20:19.635Z</time>
      </trkpt>
      <trkpt lat="47.647668" lon="7.742782">
        <ele>341.104791</ele>
        <time>2021-11-22T00:20:21.928Z</time>
      </trkpt>
      <trkpt lat="47.647263" lon="7.742628">
        <ele>338.808447</ele>
        <time>2021-11-22T00:20:25.794Z</time>
      </trkpt>
      <trkpt lat="47.647031" lon="7.742584">
        <ele>337.523797</ele>
        <time>2021-11-22T00:20:28.083Z</time>
      </trkpt>
      <trkpt lat="47.646932" lon="7.742608">
        <ele>336.972822</ele>
        <time>2021-11-22T00:20:29.027Z</time>
      </trkpt>
      <trkpt lat="47.646840" lon="7.742630">
        <ele>336.460984</ele>
        <time>2021-11-22T00:20:29.996Z</time>
      </trkpt>
      <trkpt lat="47.646642" lon="7.742762">
        <ele>335.268789</ele>
        <time>2021-11-22T00:20:32.220Z</time>
      </trkpt>
      <trkpt lat="47.646406" lon="7.742933">
        <ele>334.666516</ele>
        <time>2021-11-22T00:20:35.002Z</time>
      </trkpt>
      <trkpt lat="47.646017" lon="7.743245">
        <ele>333.894720</ele>
        <time>2021-11-22T00:20:39.828Z</time>
      </trkpt>
      <trkpt lat="47.645911" lon="7.743330">
        <ele>333.684421</ele>
        <time>2021-11-22T00:20:41.147Z</time>
      </trkpt>
      <trkpt lat="47.645734" lon="7.743440">
        <ele>333.349476</ele>
        <time>2021-11-22T00:20:43.486Z</time>
      </trkpt>
      <trkpt lat="47.645188" lon="7.743513">
        <ele>332.392562</ele>
        <time>2021-11-22T00:20:49.999Z</time>
      </trkpt>
      <trkpt lat="47.645131" lon="7.743484">
        <ele>332.287385</ele>
        <time>2021-11-22T00:20:50.731Z</time>
      </trkpt>
      <trkpt lat="47.645054" lon="7.743433">
        <ele>332.140206</ele>
        <time>2021-11-22T00:20:51.754Z</time>
      </trkpt>
      <trkpt lat="47.644925" lon="7.743203">
        <ele>331.857933</ele>
        <time>2021-11-22T00:20:54.218Z</time>
      </trkpt>
      <trkpt lat="47.644734" lon="7.742487">
        <ele>331.437393</ele>
        <time>2021-11-22T00:21:00.622Z</time>
      </trkpt>
      <trkpt lat="47.644669" lon="7.742280">
        <ele>331.312676</ele>
        <time>2021-11-22T00:21:02.527Z</time>
      </trkpt>
      <trkpt lat="47.644599" lon="7.742155">
        <ele>331.223912</ele>
        <time>2021-11-22T00:21:03.880Z</time>
      </trkpt>
      <trkpt lat="47.644397" lon="7.741849">
        <ele>330.989960</ele>
        <time>2021-11-22T00:21:07.511Z</time>
      </trkpt>
      <trkpt lat="47.644276" lon="7.741683">
        <ele>330.856404</ele>
        <time>2021-11-22T00:21:09.607Z</time>
      </trkpt>
      <trkpt lat="47.644182" lon="7.741417">
        <ele>330.692371</ele>
        <time>2021-11-22T00:21:12.165Z</time>
      </trkpt>
      <trkpt lat="47.644157" lon="7.741340">
        <ele>330.645693</ele>
        <time>2021-11-22T00:21:12.907Z</time>
      </trkpt>
      <trkpt lat="47.644056" lon="7.741009">
        <ele>330.452997</ele>
        <time>2021-11-22T00:21:16.140Z</time>
      </trkpt>
      <trkpt lat="47.644034" lon="7.740945">
        <ele>330.430876</ele>
        <time>2021-11-22T00:21:16.773Z</time>
      </trkpt>
      <trkpt lat="47.643938" lon="7.740664">
        <ele>330.333870</ele>
        <time>2021-11-22T00:21:19.620Z</time>
      </trkpt>
      <trkpt lat="47.643881" lon="7.740570">
        <ele>330.294932</ele>
        <time>2021-11-22T00:21:20.745Z</time>
      </trkpt>
      <trkpt lat="47.643783" lon="7.740468">
        <ele>330.240232</ele>
        <time>2021-11-22T00:21:22.304Z</time>
      </trkpt>
      <trkpt lat="47.643656" lon="7.740319">
        <ele>330.166252</ele>
        <time>2021-11-22T00:21:24.496Z</time>
      </trkpt>
      <trkpt lat="47.643591" lon="7.740215">
        <ele>330.122575</ele>
        <time>2021-11-22T00:21:25.775Z</time>
      </trkpt>
      <trkpt lat="47.643475" lon="7.739785">
        <ele>329.979961</ele>
        <time>2021-11-22T00:21:29.889Z</time>
      </trkpt>
      <trkpt lat="47.643301" lon="7.739935">
        <ele>329.888004</ele>
        <time>2021-11-22T00:21:32.569Z</time>
      </trkpt>
      <trkpt lat="47.643168" lon="7.740007">
        <ele>329.823307</ele>
        <time>2021-11-22T00:21:34.503Z</time>
      </trkpt>
      <trkpt lat="47.643121" lon="7.740032">
        <ele>329.800491</ele>
        <time>2021-11-22T00:21:35.192Z</time>
      </trkpt>
      <trkpt lat="47.642972" lon="7.740117">
        <ele>329.727542</ele>
        <time>2021-11-22T00:21:37.364Z</time>
      </trkpt>
      <trkpt lat="47.642922" lon="7.740181">
        <ele>329.697369</ele>
        <time>2021-11-22T00:21:38.281Z</time>
      </trkpt>
      <trkpt lat="47.642911" lon="7.740194">
        <ele>329.690943</ele>
        <time>2021-11-22T00:21:38.461Z</time>
      </trkpt>
      <trkpt lat="47.642862" lon="7.740256">
        <ele>329.661518</ele>
        <time>2021-11-22T00:21:39.325Z</time>
      </trkpt>
      <trkpt lat="47.642862" lon="7.740256">
        <ele>329.661518</ele>
        <time>2021-11-22T00:21:39.329Z</time>
      </trkpt>
      <trkpt lat="47.642822" lon="7.740329">
        <ele>329.637215</ele>
        <time>2021-11-22T00:21:40.142Z</time>
      </trkpt>
      <trkpt lat="47.642798" lon="7.740374">
        <ele>329.633530</ele>
        <time>2021-11-22T00:21:40.699Z</time>
      </trkpt>
      <trkpt lat="47.642647" lon="7.740709">
        <ele>329.607647</ele>
        <time>2021-11-22T00:21:44.460Z</time>
      </trkpt>
      <trkpt lat="47.642519" lon="7.740966">
        <ele>329.587124</ele>
        <time>2021-11-22T00:21:47.566Z</time>
      </trkpt>
      <trkpt lat="47.642394" lon="7.741202">
        <ele>329.567847</ele>
        <time>2021-11-22T00:21:50.396Z</time>
      </trkpt>
      <trkpt lat="47.642274" lon="7.741453">
        <ele>329.548083</ele>
        <time>2021-11-22T00:21:53.479Z</time>
      </trkpt>
      <trkpt lat="47.642209" lon="7.741595">
        <ele>329.537059</ele>
        <time>2021-11-22T00:21:55.077Z</time>
      </trkpt>
      <trkpt lat="47.642066" lon="7.741908">
        <ele>329.512774</ele>
        <time>2021-11-22T00:21:58.856Z</time>
      </trkpt>
      <trkpt lat="47.641997" lon="7.741966">
        <ele>329.505216</ele>
        <time>2021-11-22T00:22:00.018Z</time>
      </trkpt>
      <trkpt lat="47.641954" lon="7.741976">
        <ele>329.501068</ele>
        <time>2021-11-22T00:22:00.592Z</time>
      </trkpt>
      <trkpt lat="47.641958" lon="7.742061">
        <ele>329.495596</ele>
        <time>2021-11-22T00:22:01.466Z</time>
      </trkpt>
      <trkpt lat="47.641960" lon="7.742153">
        <ele>329.489685</ele>
        <time>2021-11-22T00:22:02.441Z</time>
      </trkpt>
      <trkpt lat="47.641952" lon="7.742244">
        <ele>329.483792</ele>
        <time>2021-11-22T00:22:03.424Z</time>
      </trkpt>
      <trkpt lat="47.641935" lon="7.742324">
        <ele>329.478405</ele>
        <time>2021-11-22T00:22:04.300Z</time>
      </trkpt>
      <trkpt lat="47.641903" lon="7.742471">
        <ele>329.468485</ele>
        <time>2021-11-22T00:22:05.822Z</time>
      </trkpt>
      <trkpt lat="47.641887" lon="7.742564">
        <ele>329.485273</ele>
        <time>2021-11-22T00:22:06.724Z</time>
      </trkpt>
      <trkpt lat="47.641875" lon="7.742622">
        <ele>329.500423</ele>
        <time>2021-11-22T00:22:07.399Z</time>
      </trkpt>
      <trkpt lat="47.641858" lon="7.742708">
        <ele>329.522804</ele>
        <time>2021-11-22T00:22:08.425Z</time>
      </trkpt>
      <trkpt lat="47.641802" lon="7.742982">
        <ele>329.594303</ele>
        <time>2021-11-22T00:22:11.484Z</time>
      </trkpt>
      <trkpt lat="47.641773" lon="7.743087">
        <ele>329.622641</ele>
        <time>2021-11-22T00:22:12.617Z</time>
      </trkpt>
      <trkpt lat="47.641651" lon="7.743319">
        <ele>329.696130</ele>
        <time>2021-11-22T00:22:15.966Z</time>
      </trkpt>
      <trkpt lat="47.641543" lon="7.743498">
        <ele>329.756131</ele>
        <time>2021-11-22T00:22:18.399Z</time>
      </trkpt>
      <trkpt lat="47.641440" lon="7.743669">
        <ele>329.813408</ele>
        <time>2021-11-22T00:22:21.023Z</time>
      </trkpt>
      <trkpt lat="47.641133" lon="7.744182">
        <ele>329.984746</ele>
        <time>2021-11-22T00:22:28.883Z</time>
      </trkpt>
      <trkpt lat="47.641118" lon="7.744203">
        <ele>329.992388</ele>
        <time>2021-11-22T00:22:29.273Z</time>
      </trkpt>
      <trkpt lat="47.641021" lon="7.744322">
        <ele>330.039030</ele>
        <time>2021-11-22T00:22:31.429Z</time>
      </trkpt>
      <trkpt lat="47.641089" lon="7.744504">
        <ele>330.090998</ele>
        <time>2021-11-22T00:22:33.945Z</time>
      </trkpt>
      <trkpt lat="47.641098" lon="7.744530">
        <ele>330.098298</ele>
        <time>2021-11-22T00:22:34.227Z</time>
      </trkpt>
      <trkpt lat="47.641149" lon="7.744754">
        <ele>330.178066</ele>
        <time>2021-11-22T00:22:36.888Z</time>
      </trkpt>
      <trkpt lat="47.641056" lon="7.744855">
        <ele>330.258110</ele>
        <time>2021-11-22T00:22:38.882Z</time>
      </trkpt>
      <trkpt lat="47.640998" lon="7.744824">
        <ele>330.300930</ele>
        <time>2021-11-22T00:22:39.871Z</time>
      </trkpt>
      <trkpt lat="47.640958" lon="7.744746">
        <ele>330.346805</ele>
        <time>2021-11-22T00:22:40.893Z</time>
      </trkpt>
      <trkpt lat="47.640859" lon="7.744671">
        <ele>330.424010</ele>
        <time>2021-11-22T00:22:42.689Z</time>
      </trkpt>
      <trkpt lat="47.640802" lon="7.744697">
        <ele>330.465430</ele>
        <time>2021-11-22T00:22:43.639Z</time>
      </trkpt>
      <trkpt lat="47.640698" lon="7.744798">
        <ele>330.551759</ele>
        <time>2021-11-22T00:22:45.699Z</time>
      </trkpt>
      <trkpt lat="47.640175" lon="7.745392">
        <ele>331.009199</ele>
        <time>2021-11-22T00:22:55.995Z</time>
      </trkpt>
      <trkpt lat="47.639810" lon="7.744828">
        <ele>331.375192</ele>
        <time>2021-11-22T00:23:05.027Z</time>
      </trkpt>
      <trkpt lat="47.639661" lon="7.744599">
        <ele>332.792604</ele>
        <time>2021-11-22T00:23:09.810Z</time>
      </trkpt>
      <trkpt lat="47.639286" lon="7.744230">
        <ele>335.912356</ele>
        <time>2021-11-22T00:23:21.236Z</time>
      </trkpt>
      <trkpt lat="47.639124" lon="7.743936">
        <ele>337.686729</ele>
        <time>2021-11-22T00:23:31.563Z</time>
      </trkpt>
      <trkpt lat="47.639034" lon="7.743640">
        <ele>339.203913</ele>
        <time>2021-11-22T00:23:42.311Z</time>
      </trkpt>
      <trkpt lat="47.638834" lon="7.743716">
        <ele>340.635404</ele>
        <time>2021-11-22T00:23:54.577Z</time>
      </trkpt>
      <trkpt lat="47.638586" lon="7.743801">
        <ele>342.400241</ele>
        <time>2021-11-22T00:24:10.737Z</time>
      </trkpt>
      <trkpt lat="47.638337" lon="7.743810">
        <ele>344.330678</ele>
        <time>2021-11-22T00:24:25.127Z</time>
      </trkpt>
      <trkpt lat="47.638011" lon="7.743662">
        <ele>348.456423</ele>
        <time>2021-11-22T00:24:46.473Z</time>
      </trkpt>
      <trkpt lat="47.637785" lon="7.743491">
        <ele>351.526447</ele>
        <time>2021-11-22T00:25:03.403Z</time>
      </trkpt>
      <trkpt lat="47.637644" lon="7.743238">
        <ele>354.203797</ele>
        <time>2021-11-22T00:25:19.352Z</time>
      </trkpt>
      <trkpt lat="47.637552" lon="7.742900">
        <ele>357.176436</ele>
        <time>2021-11-22T00:25:35.118Z</time>
      </trkpt>
      <trkpt lat="47.637523" lon="7.742385">
        <ele>361.390699</ele>
        <time>2021-11-22T00:25:57.974Z</time>
      </trkpt>
      <trkpt lat="47.637556" lon="7.741902">
        <ele>365.349571</ele>
        <time>2021-11-22T00:26:18.660Z</time>
      </trkpt>
      <trkpt lat="47.637528" lon="7.741566">
        <ele>367.021435</ele>
        <time>2021-11-22T00:26:32.910Z</time>
      </trkpt>
      <trkpt lat="47.637507" lon="7.741319">
        <ele>368.163272</ele>
        <time>2021-11-22T00:26:42.624Z</time>
      </trkpt>
      <trkpt lat="47.637359" lon="7.740737">
        <ele>371.016360</ele>
        <time>2021-11-22T00:26:59.976Z</time>
      </trkpt>
      <trkpt lat="47.637115" lon="7.740401">
        <ele>373.282018</ele>
        <time>2021-11-22T00:27:10.729Z</time>
      </trkpt>
      <trkpt lat="47.636771" lon="7.740116">
        <ele>375.963667</ele>
        <time>2021-11-22T00:27:23.850Z</time>
      </trkpt>
      <trkpt lat="47.636317" lon="7.740109">
        <ele>378.715966</ele>
        <time>2021-11-22T00:27:39.355Z</time>
      </trkpt>
      <trkpt lat="47.636139" lon="7.739987">
        <ele>379.671232</ele>
        <time>2021-11-22T00:27:45.830Z</time>
      </trkpt>
      <trkpt lat="47.635963" lon="7.739717">
        <ele>380.904539</ele>
        <time>2021-11-22T00:27:54.431Z</time>
      </trkpt>
      <trkpt lat="47.635790" lon="7.739028">
        <ele>383.318496</ele>
        <time>2021-11-22T00:28:11.756Z</time>
      </trkpt>
      <trkpt lat="47.635441" lon="7.738683">
        <ele>385.361583</ele>
        <time>2021-11-22T00:28:26.860Z</time>
      </trkpt>
      <trkpt lat="47.634316" lon="7.737920">
        <ele>390.516960</ele>
        <time>2021-11-22T00:29:08.023Z</time>
      </trkpt>
      <trkpt lat="47.632595" lon="7.737266">
        <ele>396.504890</ele>
        <time>2021-11-22T00:29:56.664Z</time>
      </trkpt>
      <trkpt lat="47.632395" lon="7.737249">
        <ele>397.074968</ele>
        <time>2021-11-22T00:30:01.707Z</time>
      </trkpt>
      <trkpt lat="47.632230" lon="7.737357">
        <ele>397.588161</ele>
        <time>2021-11-22T00:30:06.347Z</time>
      </trkpt>
      <trkpt lat="47.631655" lon="7.738144">
        <ele>399.806171</ele>
        <time>2021-11-22T00:30:25.411Z</time>
      </trkpt>
      <trkpt lat="47.631444" lon="7.738356">
        <ele>400.524902</ele>
        <time>2021-11-22T00:30:32.195Z</time>
      </trkpt>
      <trkpt lat="47.631444" lon="7.738356">
        <ele>400.524902</ele>
        <time>2021-11-22T00:30:32.196Z</time>
      </trkpt>
      <trkpt lat="47.631444" lon="7.738356">
        <ele>400.524902</ele>
        <time>2021-11-22T00:30:32.209Z</time>
      </trkpt>
      <trkpt lat="47.631083" lon="7.738808">
        <ele>401.857169</ele>
        <time>2021-11-22T00:30:44.084Z</time>
      </trkpt>
      <trkpt lat="47.630948" lon="7.739058">
        <ele>402.466106</ele>
        <time>2021-11-22T00:30:50.133Z</time>
      </trkpt>
      <trkpt lat="47.630891" lon="7.739335">
        <ele>403.016626</ele>
        <time>2021-11-22T00:30:54.850Z</time>
      </trkpt>
      <trkpt lat="47.630944" lon="7.739673">
        <ele>403.676258</ele>
        <time>2021-11-22T00:31:01.755Z</time>
      </trkpt>
      <trkpt lat="47.630907" lon="7.739873">
        <ele>404.103950</ele>
        <time>2021-11-22T00:31:05.183Z</time>
      </trkpt>
      <trkpt lat="47.630897" lon="7.740046">
        <ele>404.554814</ele>
        <time>2021-11-22T00:31:09.029Z</time>
      </trkpt>
      <trkpt lat="47.630863" lon="7.740423">
        <ele>405.542463</ele>
        <time>2021-11-22T00:31:15.616Z</time>
      </trkpt>
      <trkpt lat="47.630897" lon="7.740602">
        <ele>406.025367</ele>
        <time>2021-11-22T00:31:19.477Z</time>
      </trkpt>
      <trkpt lat="47.631280" lon="7.741275">
        <ele>408.312633</ele>
        <time>2021-11-22T00:31:36.431Z</time>
      </trkpt>
      <trkpt lat="47.631424" lon="7.741490">
        <ele>409.099726</ele>
        <time>2021-11-22T00:31:43.241Z</time>
      </trkpt>
      <trkpt lat="47.631477" lon="7.741795">
        <ele>409.917589</ele>
        <time>2021-11-22T00:31:50.165Z</time>
      </trkpt>
      <trkpt lat="47.631282" lon="7.742608">
        <ele>412.533694</ele>
        <time>2021-11-22T00:32:09.701Z</time>
      </trkpt>
      <trkpt lat="47.631260" lon="7.742819">
        <ele>413.254711</ele>
        <time>2021-11-22T00:32:14.676Z</time>
      </trkpt>
      <trkpt lat="47.631202" lon="7.744011">
        <ele>417.290530</ele>
        <time>2021-11-22T00:32:42.977Z</time>
      </trkpt>
      <trkpt lat="47.631185" lon="7.744218">
        <ele>417.994733</ele>
        <time>2021-11-22T00:32:47.765Z</time>
      </trkpt>
      <trkpt lat="47.631075" lon="7.745596">
        <ele>422.465953</ele>
        <time>2021-11-22T00:33:21.816Z</time>
      </trkpt>
      <trkpt lat="47.631034" lon="7.745824">
        <ele>423.200791</ele>
        <time>2021-11-22T00:33:26.901Z</time>
      </trkpt>
      <trkpt lat="47.630948" lon="7.746031">
        <ele>423.958045</ele>
        <time>2021-11-22T00:33:32.756Z</time>
      </trkpt>
      <trkpt lat="47.630697" lon="7.746375">
        <ele>425.536890</ele>
        <time>2021-11-22T00:33:44.034Z</time>
      </trkpt>
      <trkpt lat="47.629711" lon="7.747557">
        <ele>430.922776</ele>
        <time>2021-11-22T00:34:22.653Z</time>
      </trkpt>
      <trkpt lat="47.629452" lon="7.747871">
        <ele>432.237748</ele>
        <time>2021-11-22T00:34:32.890Z</time>
      </trkpt>
      <trkpt lat="47.629212" lon="7.748211">
        <ele>433.542346</ele>
        <time>2021-11-22T00:34:42.955Z</time>
      </trkpt>
      <trkpt lat="47.628729" lon="7.749001">
        <ele>436.293837</ele>
        <time>2021-11-22T00:35:05.035Z</time>
      </trkpt>
      <trkpt lat="47.628604" lon="7.749202">
        <ele>436.967549</ele>
        <time>2021-11-22T00:35:10.313Z</time>
      </trkpt>
      <trkpt lat="47.628584" lon="7.749233">
        <ele>437.073261</ele>
        <time>2021-11-22T00:35:11.988Z</time>
      </trkpt>
      <trkpt lat="47.627609" lon="7.750299">
        <ele>441.499919</ele>
        <time>2021-11-22T00:35:48.307Z</time>
      </trkpt>
      <trkpt lat="47.625761" lon="7.752304">
        <ele>446.387663</ele>
        <time>2021-11-22T00:36:43.561Z</time>
      </trkpt>
      <trkpt lat="47.624838" lon="7.753339">
        <ele>447.085283</ele>
        <time>2021-11-22T00:37:01.651Z</time>
      </trkpt>
      <trkpt lat="47.624277" lon="7.754101">
        <ele>447.037278</ele>
        <time>2021-11-22T00:37:11.528Z</time>
      </trkpt>
      <trkpt lat="47.622712" lon="7.756863">
        <ele>445.702068</ele>
        <time>2021-11-22T00:37:44.563Z</time>
      </trkpt>
      <trkpt lat="47.622511" lon="7.757074">
        <ele>445.524929</ele>
        <time>2021-11-22T00:37:47.644Z</time>
      </trkpt>
      <trkpt lat="47.622401" lon="7.757191">
        <ele>445.427558</ele>
        <time>2021-11-22T00:37:49.175Z</time>
      </trkpt>
      <trkpt lat="47.621775" lon="7.757496">
        <ele>444.936267</ele>
        <time>2021-11-22T00:37:56.771Z</time>
      </trkpt>
      <trkpt lat="47.621392" lon="7.757689">
        <ele>444.626927</ele>
        <time>2021-11-22T00:38:01.464Z</time>
      </trkpt>
      <trkpt lat="47.621012" lon="7.757974">
        <ele>444.301292</ele>
        <time>2021-11-22T00:38:06.779Z</time>
      </trkpt>
      <trkpt lat="47.620828" lon="7.758215">
        <ele>444.113584</ele>
        <time>2021-11-22T00:38:10.113Z</time>
      </trkpt>
      <trkpt lat="47.620566" lon="7.758657">
        <ele>443.966035</ele>
        <time>2021-11-22T00:38:15.819Z</time>
      </trkpt>
      <trkpt lat="47.620058" lon="7.759513">
        <ele>445.568648</ele>
        <time>2021-11-22T00:38:30.056Z</time>
      </trkpt>
      <trkpt lat="47.619245" lon="7.761370">
        <ele>448.730188</ele>
        <time>2021-11-22T00:39:12.543Z</time>
      </trkpt>
      <trkpt lat="47.618940" lon="7.761783">
        <ele>449.630946</ele>
        <time>2021-11-22T00:39:23.140Z</time>
      </trkpt>
      <trkpt lat="47.618742" lon="7.761992">
        <ele>450.161011</ele>
        <time>2021-11-22T00:39:28.939Z</time>
      </trkpt>
      <trkpt lat="47.618586" lon="7.762088">
        <ele>450.529408</ele>
        <time>2021-11-22T00:39:32.598Z</time>
      </trkpt>
      <trkpt lat="47.618125" lon="7.762615">
        <ele>451.399878</ele>
        <time>2021-11-22T00:39:43.203Z</time>
      </trkpt>
      <trkpt lat="47.617894" lon="7.763136">
        <ele>450.980789</ele>
        <time>2021-11-22T00:39:49.145Z</time>
      </trkpt>
      <trkpt lat="47.617553" lon="7.762928">
        <ele>450.613198</ele>
        <time>2021-11-22T00:39:53.752Z</time>
      </trkpt>
      <trkpt lat="47.617386" lon="7.762826">
        <ele>450.433141</ele>
        <time>2021-11-22T00:39:55.722Z</time>
      </trkpt>
      <trkpt lat="47.616849" lon="7.762442">
        <ele>449.838803</ele>
        <time>2021-11-22T00:40:02.048Z</time>
      </trkpt>
      <trkpt lat="47.615919" lon="7.761819">
        <ele>449.277449</ele>
        <time>2021-11-22T00:40:14.382Z</time>
      </trkpt>
      <trkpt lat="47.615769" lon="7.761789">
        <ele>449.202133</ele>
        <time>2021-11-22T00:40:16.393Z</time>
      </trkpt>
      <trkpt lat="47.615620" lon="7.761773">
        <ele>449.127797</ele>
        <time>2021-11-22T00:40:18.395Z</time>
      </trkpt>
      <trkpt lat="47.615529" lon="7.761749">
        <ele>449.081806</ele>
        <time>2021-11-22T00:40:20.479Z</time>
      </trkpt>
      <trkpt lat="47.615007" lon="7.761358">
        <ele>448.958844</ele>
        <time>2021-11-22T00:40:29.459Z</time>
      </trkpt>
      <trkpt lat="47.614820" lon="7.761190">
        <ele>449.247553</ele>
        <time>2021-11-22T00:40:34.005Z</time>
      </trkpt>
      <trkpt lat="47.614766" lon="7.761162">
        <ele>449.323096</ele>
        <time>2021-11-22T00:40:34.902Z</time>
      </trkpt>
      <trkpt lat="47.614706" lon="7.761147">
        <ele>449.403449</ele>
        <time>2021-11-22T00:40:35.995Z</time>
      </trkpt>
      <trkpt lat="47.614392" lon="7.761173">
        <ele>449.818762</ele>
        <time>2021-11-22T00:40:42.915Z</time>
      </trkpt>
      <trkpt lat="47.614228" lon="7.761168">
        <ele>450.035386</ele>
        <time>2021-11-22T00:40:46.715Z</time>
      </trkpt>
      <trkpt lat="47.614092" lon="7.761125">
        <ele>450.219021</ele>
        <time>2021-11-22T00:40:50.213Z</time>
      </trkpt>
      <trkpt lat="47.613842" lon="7.761046">
        <ele>450.556578</ele>
        <time>2021-11-22T00:40:55.584Z</time>
      </trkpt>
      <trkpt lat="47.613657" lon="7.760988">
        <ele>450.806285</ele>
        <time>2021-11-22T00:40:59.709Z</time>
      </trkpt>
      <trkpt lat="47.613167" lon="7.760835">
        <ele>451.331634</ele>
        <time>2021-11-22T00:41:09.408Z</time>
      </trkpt>
      <trkpt lat="47.613078" lon="7.760746">
        <ele>451.397962</ele>
        <time>2021-11-22T00:41:11.018Z</time>
      </trkpt>
      <trkpt lat="47.613059" lon="7.760674">
        <ele>451.430173</ele>
        <time>2021-11-22T00:41:12.206Z</time>
      </trkpt>
      <trkpt lat="47.612960" lon="7.760706">
        <ele>451.492787</ele>
        <time>2021-11-22T00:41:13.858Z</time>
      </trkpt>
      <trkpt lat="47.612812" lon="7.760726">
        <ele>451.584624</ele>
        <time>2021-11-22T00:41:16.126Z</time>
      </trkpt>
      <trkpt lat="47.612630" lon="7.760759">
        <ele>451.697929</ele>
        <time>2021-11-22T00:41:19.441Z</time>
      </trkpt>
      <trkpt lat="47.612523" lon="7.760811">
        <ele>451.767509</ele>
        <time>2021-11-22T00:41:21.250Z</time>
      </trkpt>
      <trkpt lat="47.612441" lon="7.760890">
        <ele>451.827932</ele>
        <time>2021-11-22T00:41:22.773Z</time>
      </trkpt>
      <trkpt lat="47.612127" lon="7.761383">
        <ele>452.110479</ele>
        <time>2021-11-22T00:41:30.758Z</time>
      </trkpt>
      <trkpt lat="47.612075" lon="7.761435">
        <ele>452.149233</ele>
        <time>2021-11-22T00:41:31.741Z</time>
      </trkpt>
      <trkpt lat="47.612022" lon="7.761449">
        <ele>452.182500</ele>
        <time>2021-11-22T00:41:32.614Z</time>
      </trkpt>
      <trkpt lat="47.611933" lon="7.761457">
        <ele>452.237599</ele>
        <time>2021-11-22T00:41:33.988Z</time>
      </trkpt>
      <trkpt lat="47.610854" lon="7.761285">
        <ele>453.262529</ele>
        <time>2021-11-22T00:41:51.895Z</time>
      </trkpt>
      <trkpt lat="47.610760" lon="7.761304">
        <ele>453.356683</ele>
        <time>2021-11-22T00:41:53.555Z</time>
      </trkpt>
      <trkpt lat="47.610601" lon="7.761374">
        <ele>453.521289</ele>
        <time>2021-11-22T00:41:56.827Z</time>
      </trkpt>
      <trkpt lat="47.610565" lon="7.761273">
        <ele>453.597731</ele>
        <time>2021-11-22T00:41:58.369Z</time>
      </trkpt>
      <trkpt lat="47.610488" lon="7.761190">
        <ele>453.692198</ele>
        <time>2021-11-22T00:42:00.166Z</time>
      </trkpt>
      <trkpt lat="47.610076" lon="7.761100">
        <ele>454.105505</ele>
        <time>2021-11-22T00:42:09.061Z</time>
      </trkpt>
      <trkpt lat="47.608938" lon="7.760829">
        <ele>456.522106</ele>
        <time>2021-11-22T00:42:37.402Z</time>
      </trkpt>
      <trkpt lat="47.607825" lon="7.760537">
        <ele>458.194199</ele>
        <time>2021-11-22T00:43:02.893Z</time>
      </trkpt>
      <trkpt lat="47.607246" lon="7.760369">
        <ele>458.572935</ele>
        <time>2021-11-22T00:43:12.896Z</time>
      </trkpt>
      <trkpt lat="47.606171" lon="7.760045">
        <ele>459.190568</ele>
        <time>2021-11-22T00:43:28.260Z</time>
      </trkpt>
      <trkpt lat="47.605536" lon="7.759853">
        <ele>459.454683</ele>
        <time>2021-11-22T00:43:38.330Z</time>
      </trkpt>
      <trkpt lat="47.605325" lon="7.759787">
        <ele>459.542568</ele>
        <time>2021-11-22T00:43:42.140Z</time>
      </trkpt>
      <trkpt lat="47.604633" lon="7.759635">
        <ele>459.698277</ele>
        <time>2021-11-22T00:43:55.306Z</time>
      </trkpt>
      <trkpt lat="47.604421" lon="7.759606">
        <ele>459.579347</ele>
        <time>2021-11-22T00:43:59.531Z</time>
      </trkpt>
      <trkpt lat="47.604088" lon="7.759601">
        <ele>459.393316</ele>
        <time>2021-11-22T00:44:05.471Z</time>
      </trkpt>
      <trkpt lat="47.603613" lon="7.759659">
        <ele>459.127073</ele>
        <time>2021-11-22T00:44:12.326Z</time>
      </trkpt>
      <trkpt lat="47.603173" lon="7.759766">
        <ele>458.877997</ele>
        <time>2021-11-22T00:44:17.575Z</time>
      </trkpt>
      <trkpt lat="47.602902" lon="7.759841">
        <ele>458.361385</ele>
        <time>2021-11-22T00:44:20.555Z</time>
      </trkpt>
      <trkpt lat="47.602078" lon="7.760047">
        <ele>454.076162</ele>
        <time>2021-11-22T00:44:28.533Z</time>
      </trkpt>
      <trkpt lat="47.601600" lon="7.760073">
        <ele>451.623251</ele>
        <time>2021-11-22T00:44:32.930Z</time>
      </trkpt>
      <trkpt lat="47.601336" lon="7.760030">
        <ele>450.261275</ele>
        <time>2021-11-22T00:44:35.327Z</time>
      </trkpt>
      <trkpt lat="47.601032" lon="7.760002">
        <ele>448.359452</ele>
        <time>2021-11-22T00:44:38.064Z</time>
      </trkpt>
      <trkpt lat="47.600757" lon="7.759977">
        <ele>446.378483</ele>
        <time>2021-11-22T00:44:40.504Z</time>
      </trkpt>
      <trkpt lat="47.599976" lon="7.759788">
        <ele>440.688803</ele>
        <time>2021-11-22T00:44:47.599Z</time>
      </trkpt>
      <trkpt lat="47.599727" lon="7.759652">
        <ele>438.780926</ele>
        <time>2021-11-22T00:44:49.943Z</time>
      </trkpt>
      <trkpt lat="47.599495" lon="7.759407">
        <ele>436.733134</ele>
        <time>2021-11-22T00:44:52.487Z</time>
      </trkpt>
      <trkpt lat="47.599369" lon="7.759291">
        <ele>435.685692</ele>
        <time>2021-11-22T00:44:53.797Z</time>
      </trkpt>
      <trkpt lat="47.599038" lon="7.759240">
        <ele>433.340749</ele>
        <time>2021-11-22T00:44:56.817Z</time>
      </trkpt>
      <trkpt lat="47.598636" lon="7.759436">
        <ele>430.358894</ele>
        <time>2021-11-22T00:45:00.649Z</time>
      </trkpt>
      <trkpt lat="47.598492" lon="7.759485">
        <ele>429.317830</ele>
        <time>2021-11-22T00:45:01.983Z</time>
      </trkpt>
      <trkpt lat="47.598314" lon="7.759510">
        <ele>428.057942</ele>
        <time>2021-11-22T00:45:03.563Z</time>
      </trkpt>
      <trkpt lat="47.597328" lon="7.759556">
        <ele>420.538215</ele>
        <time>2021-11-22T00:45:12.442Z</time>
      </trkpt>
      <trkpt lat="47.596893" lon="7.759520">
        <ele>416.851894</ele>
        <time>2021-11-22T00:45:16.298Z</time>
      </trkpt>
      <trkpt lat="47.596644" lon="7.759494">
        <ele>414.739854</ele>
        <time>2021-11-22T00:45:18.449Z</time>
      </trkpt>
      <trkpt lat="47.596241" lon="7.759593">
        <ele>411.283546</ele>
        <time>2021-11-22T00:45:22.032Z</time>
      </trkpt>
      <trkpt lat="47.596134" lon="7.759703">
        <ele>410.181924</ele>
        <time>2021-11-22T00:45:23.175Z</time>
      </trkpt>
      <trkpt lat="47.596041" lon="7.759870">
        <ele>408.946147</ele>
        <time>2021-11-22T00:45:24.411Z</time>
      </trkpt>
      <trkpt lat="47.595854" lon="7.760335">
        <ele>405.545699</ele>
        <time>2021-11-22T00:45:27.551Z</time>
      </trkpt>
      <trkpt lat="47.595755" lon="7.760659">
        <ele>403.295391</ele>
        <time>2021-11-22T00:45:29.660Z</time>
      </trkpt>
      <trkpt lat="47.595685" lon="7.760825">
        <ele>402.056812</ele>
        <time>2021-11-22T00:45:30.769Z</time>
      </trkpt>
      <trkpt lat="47.595483" lon="7.761108">
        <ele>399.449826</ele>
        <time>2021-11-22T00:45:33.201Z</time>
      </trkpt>
      <trkpt lat="47.595255" lon="7.761233">
        <ele>397.169407</ele>
        <time>2021-11-22T00:45:35.306Z</time>
      </trkpt>
      <trkpt lat="47.595086" lon="7.761325">
        <ele>395.480525</ele>
        <time>2021-11-22T00:45:36.838Z</time>
      </trkpt>
      <trkpt lat="47.594411" lon="7.761312">
        <ele>390.001087</ele>
        <time>2021-11-22T00:45:42.741Z</time>
      </trkpt>
      <trkpt lat="47.593803" lon="7.761400">
        <ele>386.082630</ele>
        <time>2021-11-22T00:45:48.258Z</time>
      </trkpt>
      <trkpt lat="47.593513" lon="7.761296">
        <ele>384.168841</ele>
        <time>2021-11-22T00:45:51.012Z</time>
      </trkpt>
      <trkpt lat="47.593211" lon="7.761047">
        <ele>381.952389</ele>
        <time>2021-11-22T00:45:54.237Z</time>
      </trkpt>
      <trkpt lat="47.592736" lon="7.760559">
        <ele>378.967850</ele>
        <time>2021-11-22T00:45:59.747Z</time>
      </trkpt>
      <trkpt lat="47.592317" lon="7.760056">
        <ele>376.720090</ele>
        <time>2021-11-22T00:46:05.094Z</time>
      </trkpt>
      <trkpt lat="47.592205" lon="7.759833">
        <ele>375.938261</ele>
        <time>2021-11-22T00:46:06.899Z</time>
      </trkpt>
      <trkpt lat="47.591959" lon="7.759015">
        <ele>373.419811</ele>
        <time>2021-11-22T00:46:12.790Z</time>
      </trkpt>
      <trkpt lat="47.591911" lon="7.758184">
        <ele>370.471358</ele>
        <time>2021-11-22T00:46:18.323Z</time>
      </trkpt>
      <trkpt lat="47.591923" lon="7.757894">
        <ele>369.370354</ele>
        <time>2021-11-22T00:46:20.138Z</time>
      </trkpt>
      <trkpt lat="47.591970" lon="7.757544">
        <ele>368.018014</ele>
        <time>2021-11-22T00:46:22.415Z</time>
      </trkpt>
      <trkpt lat="47.592034" lon="7.757251">
        <ele>366.850925</ele>
        <time>2021-11-22T00:46:24.290Z</time>
      </trkpt>
      <trkpt lat="47.592097" lon="7.757042">
        <ele>365.983423</ele>
        <time>2021-11-22T00:46:25.713Z</time>
      </trkpt>
      <trkpt lat="47.592316" lon="7.756315">
        <ele>362.966180</ele>
        <time>2021-11-22T00:46:30.573Z</time>
      </trkpt>
      <trkpt lat="47.592371" lon="7.756099">
        <ele>362.104975</ele>
        <time>2021-11-22T00:46:31.986Z</time>
      </trkpt>
      <trkpt lat="47.592426" lon="7.755881">
        <ele>361.242725</ele>
        <time>2021-11-22T00:46:33.368Z</time>
      </trkpt>
      <trkpt lat="47.592484" lon="7.755586">
        <ele>360.104394</ele>
        <time>2021-11-22T00:46:35.241Z</time>
      </trkpt>
      <trkpt lat="47.592501" lon="7.755402">
        <ele>359.416393</ele>
        <time>2021-11-22T00:46:36.364Z</time>
      </trkpt>
      <trkpt lat="47.592485" lon="7.755255">
        <ele>358.864781</ele>
        <time>2021-11-22T00:46:37.269Z</time>
      </trkpt>
      <trkpt lat="47.592241" lon="7.754241">
        <ele>354.876423</ele>
        <time>2021-11-22T00:46:43.985Z</time>
      </trkpt>
      <trkpt lat="47.592004" lon="7.753676">
        <ele>352.798168</ele>
        <time>2021-11-22T00:46:48.322Z</time>
      </trkpt>
      <trkpt lat="47.591881" lon="7.753444">
        <ele>352.731769</ele>
        <time>2021-11-22T00:46:50.331Z</time>
      </trkpt>
      <trkpt lat="47.590881" lon="7.751756">
        <ele>352.226235</ele>
        <time>2021-11-22T00:47:14.707Z</time>
      </trkpt>
      <trkpt lat="47.590052" lon="7.749933">
        <ele>355.542683</ele>
        <time>2021-11-22T00:47:54.017Z</time>
      </trkpt>
      <trkpt lat="47.589642" lon="7.749241">
        <ele>356.206798</ele>
        <time>2021-11-22T00:48:07.847Z</time>
      </trkpt>
      <trkpt lat="47.588960" lon="7.748448">
        <ele>356.005925</ele>
        <time>2021-11-22T00:48:20.237Z</time>
      </trkpt>
      <trkpt lat="47.588852" lon="7.748362">
        <ele>355.977513</ele>
        <time>2021-11-22T00:48:21.755Z</time>
      </trkpt>
      <trkpt lat="47.588242" lon="7.747872">
        <ele>355.025908</ele>
        <time>2021-11-22T00:48:29.958Z</time>
      </trkpt>
      <trkpt lat="47.588045" lon="7.747762">
        <ele>354.054414</ele>
        <time>2021-11-22T00:48:32.075Z</time>
      </trkpt>
      <trkpt lat="47.587944" lon="7.747712">
        <ele>353.563002</ele>
        <time>2021-11-22T00:48:33.185Z</time>
      </trkpt>
      <trkpt lat="47.587676" lon="7.747616">
        <ele>352.290593</ele>
        <time>2021-11-22T00:48:35.814Z</time>
      </trkpt>
      <trkpt lat="47.587231" lon="7.747583">
        <ele>350.234342</ele>
        <time>2021-11-22T00:48:39.995Z</time>
      </trkpt>
      <trkpt lat="47.587012" lon="7.747608">
        <ele>349.220662</ele>
        <time>2021-11-22T00:48:41.993Z</time>
      </trkpt>
      <trkpt lat="47.586901" lon="7.747621">
        <ele>348.706799</ele>
        <time>2021-11-22T00:48:43.028Z</time>
      </trkpt>
      <trkpt lat="47.586219" lon="7.747726">
        <ele>344.118255</ele>
        <time>2021-11-22T00:48:49.218Z</time>
      </trkpt>
      <trkpt lat="47.585600" lon="7.747675">
        <ele>339.235288</ele>
        <time>2021-11-22T00:48:54.702Z</time>
      </trkpt>
      <trkpt lat="47.585275" lon="7.747497">
        <ele>336.506404</ele>
        <time>2021-11-22T00:48:57.719Z</time>
      </trkpt>
      <trkpt lat="47.584788" lon="7.747084">
        <ele>332.442433</ele>
        <time>2021-11-22T00:49:02.579Z</time>
      </trkpt>
      <trkpt lat="47.584325" lon="7.746826">
        <ele>329.607462</ele>
        <time>2021-11-22T00:49:07.028Z</time>
      </trkpt>
      <trkpt lat="47.583935" lon="7.746691">
        <ele>327.312028</ele>
        <time>2021-11-22T00:49:10.700Z</time>
      </trkpt>
      <trkpt lat="47.583811" lon="7.746698">
        <ele>326.600798</ele>
        <time>2021-11-22T00:49:11.801Z</time>
      </trkpt>
      <trkpt lat="47.580800" lon="7.746847">
        <ele>316.281798</ele>
        <time>2021-11-22T00:49:43.071Z</time>
      </trkpt>
      <trkpt lat="47.580176" lon="7.746758">
        <ele>314.508762</ele>
        <time>2021-11-22T00:49:49.673Z</time>
      </trkpt>
      <trkpt lat="47.579910" lon="7.746660">
        <ele>313.733537</ele>
        <time>2021-11-22T00:49:52.507Z</time>
      </trkpt>
      <trkpt lat="47.579370" lon="7.746311">
        <ele>311.952642</ele>
        <time>2021-11-22T00:49:58.490Z</time>
      </trkpt>
      <trkpt lat="47.578248" lon="7.745231">
        <ele>307.642341</ele>
        <time>2021-11-22T00:50:11.940Z</time>
      </trkpt>
      <trkpt lat="47.578014" lon="7.745032">
        <ele>306.793191</ele>
        <time>2021-11-22T00:50:14.686Z</time>
      </trkpt>
      <trkpt lat="47.577765" lon="7.744854">
        <ele>305.957694</ele>
        <time>2021-11-22T00:50:17.542Z</time>
      </trkpt>
      <trkpt lat="47.576822" lon="7.744396">
        <ele>302.958553</ele>
        <time>2021-11-22T00:50:27.713Z</time>
      </trkpt>
      <trkpt lat="47.575733" lon="7.744190">
        <ele>299.908102</ele>
        <time>2021-11-22T00:50:39.003Z</time>
      </trkpt>
      <trkpt lat="47.575417" lon="7.744166">
        <ele>299.078457</ele>
        <time>2021-11-22T00:50:42.296Z</time>
      </trkpt>
      <trkpt lat="47.575173" lon="7.744139">
        <ele>298.436904</ele>
        <time>2021-11-22T00:50:44.868Z</time>
      </trkpt>
      <trkpt lat="47.574841" lon="7.744018">
        <ele>297.540467</ele>
        <time>2021-11-22T00:50:48.483Z</time>
      </trkpt>
      <trkpt lat="47.574546" lon="7.743745">
        <ele>296.786621</ele>
        <time>2021-11-22T00:50:52.237Z</time>
      </trkpt>
      <trkpt lat="47.574382" lon="7.743495">
        <ele>296.478308</ele>
        <time>2021-11-22T00:50:54.785Z</time>
      </trkpt>
      <trkpt lat="47.574156" lon="7.742978">
        <ele>295.933620</ele>
        <time>2021-11-22T00:50:59.399Z</time>
      </trkpt>
      <trkpt lat="47.574090" lon="7.742826">
        <ele>295.773795</ele>
        <time>2021-11-22T00:51:00.835Z</time>
      </trkpt>
      <trkpt lat="47.573998" lon="7.742684">
        <ele>295.599722</ele>
        <time>2021-11-22T00:51:02.384Z</time>
      </trkpt>
      <trkpt lat="47.573895" lon="7.742636">
        <ele>295.458217</ele>
        <time>2021-11-22T00:51:03.728Z</time>
      </trkpt>
      <trkpt lat="47.573635" lon="7.742528">
        <ele>295.104336</ele>
        <time>2021-11-22T00:51:07.163Z</time>
      </trkpt>
      <trkpt lat="47.573477" lon="7.743683">
        <ele>294.424660</ele>
        <time>2021-11-22T00:51:18.119Z</time>
      </trkpt>
      <trkpt lat="47.573397" lon="7.744238">
        <ele>294.269232</ele>
        <time>2021-11-22T00:51:23.361Z</time>
      </trkpt>
      <trkpt lat="47.573383" lon="7.744318">
        <ele>294.246598</ele>
        <time>2021-11-22T00:51:24.145Z</time>
      </trkpt>
      <trkpt lat="47.573349" lon="7.744526">
        <ele>294.187985</ele>
        <time>2021-11-22T00:51:25.937Z</time>
      </trkpt>
      <trkpt lat="47.573329" lon="7.744647">
        <ele>294.153867</ele>
        <time>2021-11-22T00:51:27.551Z</time>
      </trkpt>
      <trkpt lat="47.573193" lon="7.745027">
        <ele>294.036059</ele>
        <time>2021-11-22T00:51:31.048Z</time>
      </trkpt>
      <trkpt lat="47.573070" lon="7.745225">
        <ele>293.962346</ele>
        <time>2021-11-22T00:51:34.012Z</time>
      </trkpt>
      <trkpt lat="47.572897" lon="7.745419">
        <ele>293.874284</ele>
        <time>2021-11-22T00:51:36.806Z</time>
      </trkpt>
      <trkpt lat="47.572693" lon="7.745654">
        <ele>293.670008</ele>
        <time>2021-11-22T00:51:40.239Z</time>
      </trkpt>
      <trkpt lat="47.572478" lon="7.745914">
        <ele>293.429708</ele>
        <time>2021-11-22T00:51:44.250Z</time>
      </trkpt>
      <trkpt lat="47.572312" lon="7.746125">
        <ele>293.240328</ele>
        <time>2021-11-22T00:51:47.240Z</time>
      </trkpt>
      <trkpt lat="47.572107" lon="7.746364">
        <ele>293.014457</ele>
        <time>2021-11-22T00:51:50.375Z</time>
      </trkpt>
      <trkpt lat="47.571996" lon="7.746510">
        <ele>292.885938</ele>
        <time>2021-11-22T00:51:52.341Z</time>
      </trkpt>
      <trkpt lat="47.571810" lon="7.746732">
        <ele>292.679127</ele>
        <time>2021-11-22T00:51:55.055Z</time>
      </trkpt>
      <trkpt lat="47.571732" lon="7.746831">
        <ele>292.590196</ele>
        <time>2021-11-22T00:51:56.301Z</time>
      </trkpt>
      <trkpt lat="47.571615" lon="7.746974">
        <ele>292.458867</ele>
        <time>2021-11-22T00:51:58.042Z</time>
      </trkpt>
      <trkpt lat="47.571591" lon="7.747005">
        <ele>292.431298</ele>
        <time>2021-11-22T00:51:58.389Z</time>
      </trkpt>
      <trkpt lat="47.571247" lon="7.747396">
        <ele>291.904722</ele>
        <time>2021-11-22T00:52:03.491Z</time>
      </trkpt>
      <trkpt lat="47.570998" lon="7.747803">
        <ele>291.384493</ele>
        <time>2021-11-22T00:52:07.871Z</time>
      </trkpt>
      <trkpt lat="47.570938" lon="7.747976">
        <ele>291.200308</ele>
        <time>2021-11-22T00:52:09.528Z</time>
      </trkpt>
      <trkpt lat="47.570885" lon="7.748211">
        <ele>290.965688</ele>
        <time>2021-11-22T00:52:11.541Z</time>
      </trkpt>
      <trkpt lat="47.570858" lon="7.749747">
        <ele>289.536427</ele>
        <time>2021-11-22T00:52:23.378Z</time>
      </trkpt>
      <trkpt lat="47.570866" lon="7.750436">
        <ele>288.947215</ele>
        <time>2021-11-22T00:52:28.654Z</time>
      </trkpt>
      <trkpt lat="47.570870" lon="7.750695">
        <ele>288.725701</ele>
        <time>2021-11-22T00:52:30.677Z</time>
      </trkpt>
      <trkpt lat="47.570876" lon="7.751057">
        <ele>288.416082</ele>
        <time>2021-11-22T00:52:33.589Z</time>
      </trkpt>
      <trkpt lat="47.570885" lon="7.751787">
        <ele>287.791797</ele>
        <time>2021-11-22T00:52:39.475Z</time>
      </trkpt>
      <trkpt lat="47.570869" lon="7.752048">
        <ele>287.567711</ele>
        <time>2021-11-22T00:52:41.651Z</time>
      </trkpt>
      <trkpt lat="47.570854" lon="7.752277">
        <ele>287.447622</ele>
        <time>2021-11-22T00:52:43.533Z</time>
      </trkpt>
      <trkpt lat="47.570840" lon="7.752506">
        <ele>287.371878</ele>
        <time>2021-11-22T00:52:45.519Z</time>
      </trkpt>
      <trkpt lat="47.570759" lon="7.753008">
        <ele>287.201850</ele>
        <time>2021-11-22T00:52:50.026Z</time>
      </trkpt>
      <trkpt lat="47.570466" lon="7.754138">
        <ele>286.803071</ele>
        <time>2021-11-22T00:53:01.660Z</time>
      </trkpt>
      <trkpt lat="47.570185" lon="7.755068">
        <ele>286.354168</ele>
        <time>2021-11-22T00:53:11.112Z</time>
      </trkpt>
      <trkpt lat="47.569898" lon="7.756021">
        <ele>285.750981</ele>
        <time>2021-11-22T00:53:19.783Z</time>
      </trkpt>
      <trkpt lat="47.569743" lon="7.756603">
        <ele>285.389342</ele>
        <time>2021-11-22T00:53:24.904Z</time>
      </trkpt>
      <trkpt lat="47.569564" lon="7.757554">
        <ele>284.762156</ele>
        <time>2021-11-22T00:53:32.921Z</time>
      </trkpt>
      <trkpt lat="47.569423" lon="7.758505">
        <ele>284.076027</ele>
        <time>2021-11-22T00:53:40.670Z</time>
      </trkpt>
      <trkpt lat="47.569394" lon="7.758678">
        <ele>283.950413</ele>
        <time>2021-11-22T00:53:42.154Z</time>
      </trkpt>
      <trkpt lat="47.569371" lon="7.758806">
        <ele>283.857072</ele>
        <time>2021-11-22T00:53:43.233Z</time>
      </trkpt>
      <trkpt lat="47.569318" lon="7.759087">
        <ele>283.651468</ele>
        <time>2021-11-22T00:53:45.566Z</time>
      </trkpt>
      <trkpt lat="47.569287" lon="7.759231">
        <ele>283.544956</ele>
        <time>2021-11-22T00:53:46.906Z</time>
      </trkpt>
      <trkpt lat="47.569052" lon="7.760178">
        <ele>282.975432</ele>
        <time>2021-11-22T00:53:55.591Z</time>
      </trkpt>
      <trkpt lat="47.568658" lon="7.761470">
        <ele>282.364519</ele>
        <time>2021-11-22T00:54:08.137Z</time>
      </trkpt>
      <trkpt lat="47.568588" lon="7.761697">
        <ele>282.256978</ele>
        <time>2021-11-22T00:54:10.265Z</time>
      </trkpt>
      <trkpt lat="47.568566" lon="7.761768">
        <ele>282.223314</ele>
        <time>2021-11-22T00:54:10.925Z</time>
      </trkpt>
      <trkpt lat="47.568495" lon="7.761994">
        <ele>282.115897</ele>
        <time>2021-11-22T00:54:13.077Z</time>
      </trkpt>
      <trkpt lat="47.568423" lon="7.762232">
        <ele>282.022182</ele>
        <time>2021-11-22T00:54:15.276Z</time>
      </trkpt>
      <trkpt lat="47.568377" lon="7.762379">
        <ele>281.980722</ele>
        <time>2021-11-22T00:54:16.687Z</time>
      </trkpt>
      <trkpt lat="47.567932" lon="7.763827">
        <ele>281.573612</ele>
        <time>2021-11-22T00:54:31.184Z</time>
      </trkpt>
      <trkpt lat="47.567739" lon="7.764462">
        <ele>281.395415</ele>
        <time>2021-11-22T00:54:38.016Z</time>
      </trkpt>
      <trkpt lat="47.567574" lon="7.765017">
        <ele>281.251755</ele>
        <time>2021-11-22T00:54:43.864Z</time>
      </trkpt>
      <trkpt lat="47.567427" lon="7.765503">
        <ele>281.127825</ele>
        <time>2021-11-22T00:54:48.912Z</time>
      </trkpt>
      <trkpt lat="47.566939" lon="7.766996">
        <ele>280.741933</ele>
        <time>2021-11-22T00:55:03.862Z</time>
      </trkpt>
      <trkpt lat="47.566747" lon="7.767407">
        <ele>280.628503</ele>
        <time>2021-11-22T00:55:08.351Z</time>
      </trkpt>
      <trkpt lat="47.566290" lon="7.768111">
        <ele>280.406833</ele>
        <time>2021-11-22T00:55:17.154Z</time>
      </trkpt>
      <trkpt lat="47.565945" lon="7.768659">
        <ele>280.236765</ele>
        <time>2021-11-22T00:55:24.036Z</time>
      </trkpt>
      <trkpt lat="47.565887" lon="7.768778">
        <ele>280.203454</ele>
        <time>2021-11-22T00:55:25.666Z</time>
      </trkpt>
      <trkpt lat="47.565730" lon="7.769200">
        <ele>280.160339</ele>
        <time>2021-11-22T00:55:30.264Z</time>
      </trkpt>
      <trkpt lat="47.565639" lon="7.769724">
        <ele>280.206518</ele>
        <time>2021-11-22T00:55:35.725Z</time>
      </trkpt>
      <trkpt lat="47.565623" lon="7.769892">
        <ele>280.220998</ele>
        <time>2021-11-22T00:55:37.615Z</time>
      </trkpt>
      <trkpt lat="47.565618" lon="7.770120">
        <ele>280.240467</ele>
        <time>2021-11-22T00:55:39.685Z</time>
      </trkpt>
      <trkpt lat="47.565625" lon="7.770603">
        <ele>280.281699</ele>
        <time>2021-11-22T00:55:44.757Z</time>
      </trkpt>
      <trkpt lat="47.565623" lon="7.771401">
        <ele>280.349806</ele>
        <time>2021-11-22T00:55:53.608Z</time>
      </trkpt>
      <trkpt lat="47.565557" lon="7.771818">
        <ele>280.417285</ele>
        <time>2021-11-22T00:55:58.216Z</time>
      </trkpt>
      <trkpt lat="47.565452" lon="7.772236">
        <ele>280.526176</ele>
        <time>2021-11-22T00:56:03.066Z</time>
      </trkpt>
      <trkpt lat="47.565274" lon="7.772804">
        <ele>280.679072</ele>
        <time>2021-11-22T00:56:09.544Z</time>
      </trkpt>
      <trkpt lat="47.565215" lon="7.772993">
        <ele>280.729913</ele>
        <time>2021-11-22T00:56:11.848Z</time>
      </trkpt>
      <trkpt lat="47.565082" lon="7.773413">
        <ele>280.843181</ele>
        <time>2021-11-22T00:56:16.917Z</time>
      </trkpt>
      <trkpt lat="47.565017" lon="7.773684">
        <ele>280.913398</ele>
        <time>2021-11-22T00:56:20.200Z</time>
      </trkpt>
      <trkpt lat="47.564949" lon="7.774019">
        <ele>280.998805</ele>
        <time>2021-11-22T00:56:24.159Z</time>
      </trkpt>
      <trkpt lat="47.564938" lon="7.774103">
        <ele>281.019695</ele>
        <time>2021-11-22T00:56:25.170Z</time>
      </trkpt>
      <trkpt lat="47.564907" lon="7.774234">
        <ele>281.076528</ele>
        <time>2021-11-22T00:56:26.690Z</time>
      </trkpt>
      <trkpt lat="47.564861" lon="7.774427">
        <ele>281.161172</ele>
        <time>2021-11-22T00:56:29.080Z</time>
      </trkpt>
      <trkpt lat="47.564815" lon="7.774448">
        <ele>281.190671</ele>
        <time>2021-11-22T00:56:29.996Z</time>
      </trkpt>
      <trkpt lat="47.564709" lon="7.774675">
        <ele>281.304830</ele>
        <time>2021-11-22T00:56:33.249Z</time>
      </trkpt>
      <trkpt lat="47.564712" lon="7.774747">
        <ele>281.334661</ele>
        <time>2021-11-22T00:56:34.128Z</time>
      </trkpt>
      <trkpt lat="47.564658" lon="7.774885">
        <ele>281.400630</ele>
        <time>2021-11-22T00:56:36.099Z</time>
      </trkpt>
      <trkpt lat="47.564621" lon="7.774969">
        <ele>281.442113</ele>
        <time>2021-11-22T00:56:37.346Z</time>
      </trkpt>
      <trkpt lat="47.564601" lon="7.775042">
        <ele>281.474695</ele>
        <time>2021-11-22T00:56:38.329Z</time>
      </trkpt>
      <trkpt lat="47.564226" lon="7.776836">
        <ele>282.158830</ele>
        <time>2021-11-22T00:57:00.160Z</time>
      </trkpt>
      <trkpt lat="47.564027" lon="7.778327">
        <ele>282.334829</ele>
        <time>2021-11-22T00:57:16.400Z</time>
      </trkpt>
      <trkpt lat="47.563988" lon="7.778618">
        <ele>282.369184</ele>
        <time>2021-11-22T00:57:19.457Z</time>
      </trkpt>
      <trkpt lat="47.563956" lon="7.778868">
        <ele>282.398650</ele>
        <time>2021-11-22T00:57:22.179Z</time>
      </trkpt>
      <trkpt lat="47.563901" lon="7.779085">
        <ele>282.425492</ele>
        <time>2021-11-22T00:57:24.284Z</time>
      </trkpt>
      <trkpt lat="47.563891" lon="7.779124">
        <ele>282.430323</ele>
        <time>2021-11-22T00:57:24.693Z</time>
      </trkpt>
      <trkpt lat="47.563838" lon="7.779303">
        <ele>282.344218</ele>
        <time>2021-11-22T00:57:26.585Z</time>
      </trkpt>
      <trkpt lat="47.563771" lon="7.779469">
        <ele>282.253054</ele>
        <time>2021-11-22T00:57:28.252Z</time>
      </trkpt>
      <trkpt lat="47.563704" lon="7.779626">
        <ele>282.165503</ele>
        <time>2021-11-22T00:57:29.876Z</time>
      </trkpt>
      <trkpt lat="47.563652" lon="7.779747">
        <ele>282.097891</ele>
        <time>2021-11-22T00:57:31.160Z</time>
      </trkpt>
      <trkpt lat="47.563533" lon="7.779944">
        <ele>281.973275</ele>
        <time>2021-11-22T00:57:33.350Z</time>
      </trkpt>
      <trkpt lat="47.563492" lon="7.780014">
        <ele>281.929589</ele>
        <time>2021-11-22T00:57:34.130Z</time>
      </trkpt>
      <trkpt lat="47.563386" lon="7.780199">
        <ele>281.815204</ele>
        <time>2021-11-22T00:57:36.209Z</time>
      </trkpt>
      <trkpt lat="47.563299" lon="7.780330">
        <ele>281.728575</ele>
        <time>2021-11-22T00:57:37.669Z</time>
      </trkpt>
      <trkpt lat="47.563211" lon="7.780461">
        <ele>281.641455</ele>
        <time>2021-11-22T00:57:39.206Z</time>
      </trkpt>
      <trkpt lat="47.562775" lon="7.781130">
        <ele>281.203097</ele>
        <time>2021-11-22T00:57:47.096Z</time>
      </trkpt>
      <trkpt lat="47.562657" lon="7.781311">
        <ele>281.081990</ele>
        <time>2021-11-22T00:57:49.262Z</time>
      </trkpt>
      <trkpt lat="47.562099" lon="7.782166">
        <ele>280.505998</ele>
        <time>2021-11-22T00:57:59.440Z</time>
      </trkpt>
      <trkpt lat="47.561943" lon="7.782422">
        <ele>280.338964</ele>
        <time>2021-11-22T00:58:02.379Z</time>
      </trkpt>
      <trkpt lat="47.561822" lon="7.782640">
        <ele>280.202274</ele>
        <time>2021-11-22T00:58:04.752Z</time>
      </trkpt>
      <trkpt lat="47.561610" lon="7.782977">
        <ele>279.979167</ele>
        <time>2021-11-22T00:58:08.715Z</time>
      </trkpt>
      <trkpt lat="47.561406" lon="7.783302">
        <ele>279.827598</ele>
        <time>2021-11-22T00:58:12.689Z</time>
      </trkpt>
      <trkpt lat="47.561312" lon="7.783440">
        <ele>279.782688</ele>
        <time>2021-11-22T00:58:14.465Z</time>
      </trkpt>
      <trkpt lat="47.561041" lon="7.783716">
        <ele>279.671080</ele>
        <time>2021-11-22T00:58:18.972Z</time>
      </trkpt>
      <trkpt lat="47.560877" lon="7.783815">
        <ele>279.610976</ele>
        <time>2021-11-22T00:58:21.540Z</time>
      </trkpt>
      <trkpt lat="47.560427" lon="7.783951">
        <ele>279.455097</ele>
        <time>2021-11-22T00:58:28.074Z</time>
      </trkpt>
      <trkpt lat="47.559876" lon="7.784127">
        <ele>279.254607</ele>
        <time>2021-11-22T00:58:35.901Z</time>
      </trkpt>
      <trkpt lat="47.559415" lon="7.784281">
        <ele>278.949955</ele>
        <time>2021-11-22T00:58:42.177Z</time>
      </trkpt>
      <trkpt lat="47.559319" lon="7.784326">
        <ele>278.885044</ele>
        <time>2021-11-22T00:58:43.506Z</time>
      </trkpt>
      <trkpt lat="47.559229" lon="7.784376">
        <ele>278.823080</ele>
        <time>2021-11-22T00:58:44.778Z</time>
      </trkpt>
      <trkpt lat="47.559117" lon="7.784473">
        <ele>278.739449</ele>
        <time>2021-11-22T00:58:46.480Z</time>
      </trkpt>
      <trkpt lat="47.559008" lon="7.784639">
        <ele>278.638686</ele>
        <time>2021-11-22T00:58:48.557Z</time>
      </trkpt>
      <trkpt lat="47.558986" lon="7.784674">
        <ele>278.617878</ele>
        <time>2021-11-22T00:58:48.986Z</time>
      </trkpt>
      <trkpt lat="47.558920" lon="7.784817">
        <ele>278.542508</ele>
        <time>2021-11-22T00:58:50.526Z</time>
      </trkpt>
      <trkpt lat="47.558822" lon="7.785030">
        <ele>278.430355</ele>
        <time>2021-11-22T00:58:52.802Z</time>
      </trkpt>
      <trkpt lat="47.558782" lon="7.785128">
        <ele>278.380529</ele>
        <time>2021-11-22T00:58:53.807Z</time>
      </trkpt>
      <trkpt lat="47.558747" lon="7.785215">
        <ele>278.336464</ele>
        <time>2021-11-22T00:58:54.682Z</time>
      </trkpt>
      <trkpt lat="47.558660" lon="7.785434">
        <ele>278.225906</ele>
        <time>2021-11-22T00:58:56.873Z</time>
      </trkpt>
      <trkpt lat="47.558577" lon="7.785598">
        <ele>278.136723</ele>
        <time>2021-11-22T00:58:58.625Z</time>
      </trkpt>
      <trkpt lat="47.558367" lon="7.785913">
        <ele>277.306728</ele>
        <time>2021-11-22T00:59:02.244Z</time>
      </trkpt>
      <trkpt lat="47.558166" lon="7.786166">
        <ele>276.500662</ele>
        <time>2021-11-22T00:59:05.178Z</time>
      </trkpt>
      <trkpt lat="47.558071" lon="7.786282">
        <ele>276.124419</ele>
        <time>2021-11-22T00:59:06.500Z</time>
      </trkpt>
      <trkpt lat="47.558006" lon="7.786349">
        <ele>275.882411</ele>
        <time>2021-11-22T00:59:07.340Z</time>
      </trkpt>
      <trkpt lat="47.557921" lon="7.786413">
        <ele>275.590998</ele>
        <time>2021-11-22T00:59:08.334Z</time>
      </trkpt>
      <trkpt lat="47.557901" lon="7.786427">
        <ele>275.523391</ele>
        <time>2021-11-22T00:59:08.551Z</time>
      </trkpt>
      <trkpt lat="47.557823" lon="7.786486">
        <ele>275.255723</ele>
        <time>2021-11-22T00:59:09.447Z</time>
      </trkpt>
      <trkpt lat="47.557711" lon="7.786536">
        <ele>274.898202</ele>
        <time>2021-11-22T00:59:10.621Z</time>
      </trkpt>
      <trkpt lat="47.557562" lon="7.786575">
        <ele>274.435740</ele>
        <time>2021-11-22T00:59:12.092Z</time>
      </trkpt>
      <trkpt lat="47.557490" lon="7.786586">
        <ele>274.214508</ele>
        <time>2021-11-22T00:59:12.800Z</time>
      </trkpt>
      <trkpt lat="47.557180" lon="7.786638">
        <ele>273.260955</ele>
        <time>2021-11-22T00:59:15.769Z</time>
      </trkpt>
      <trkpt lat="47.557118" lon="7.786638">
        <ele>273.071455</ele>
        <time>2021-11-22T00:59:16.352Z</time>
      </trkpt>
      <trkpt lat="47.557035" lon="7.786628">
        <ele>272.816932</ele>
        <time>2021-11-22T00:59:17.131Z</time>
      </trkpt>
      <trkpt lat="47.556958" lon="7.786609">
        <ele>272.575559</ele>
        <time>2021-11-22T00:59:17.870Z</time>
      </trkpt>
      <trkpt lat="47.556914" lon="7.786662">
        <ele>272.389753</ele>
        <time>2021-11-22T00:59:18.406Z</time>
      </trkpt>
      <trkpt lat="47.556883" lon="7.786718">
        <ele>272.229584</ele>
        <time>2021-11-22T00:59:18.860Z</time>
      </trkpt>
      <trkpt lat="47.556812" lon="7.787001">
        <ele>271.561921</ele>
        <time>2021-11-22T00:59:20.796Z</time>
      </trkpt>
      <trkpt lat="47.556783" lon="7.787207">
        <ele>271.096573</ele>
        <time>2021-11-22T00:59:22.155Z</time>
      </trkpt>
      <trkpt lat="47.556658" lon="7.787468">
        <ele>270.388834</ele>
        <time>2021-11-22T00:59:24.234Z</time>
      </trkpt>
      <trkpt lat="47.556539" lon="7.787710">
        <ele>269.726686</ele>
        <time>2021-11-22T00:59:26.204Z</time>
      </trkpt>
      <trkpt lat="47.556357" lon="7.788058">
        <ele>268.753090</ele>
        <time>2021-11-22T00:59:29.171Z</time>
      </trkpt>
      <trkpt lat="47.556249" lon="7.788270">
        <ele>268.165700</ele>
        <time>2021-11-22T00:59:30.991Z</time>
      </trkpt>
      <trkpt lat="47.556137" lon="7.788488">
        <ele>267.559817</ele>
        <time>2021-11-22T00:59:32.898Z</time>
      </trkpt>
      <trkpt lat="47.556111" lon="7.788537">
        <ele>267.421976</ele>
        <time>2021-11-22T00:59:33.323Z</time>
      </trkpt>
      <trkpt lat="47.556069" lon="7.788614">
        <ele>267.203035</ele>
        <time>2021-11-22T00:59:34.067Z</time>
      </trkpt>
      <trkpt lat="47.555936" lon="7.788828">
        <ele>266.794040</ele>
        <time>2021-11-22T00:59:36.311Z</time>
      </trkpt>
      <trkpt lat="47.555085" lon="7.789685">
        <ele>268.254587</ele>
        <time>2021-11-22T01:00:18.643Z</time>
      </trkpt>
      <trkpt lat="47.555062" lon="7.789726">
        <ele>268.305661</ele>
        <time>2021-11-22T01:00:20.367Z</time>
      </trkpt>
      <trkpt lat="47.555052" lon="7.789771">
        <ele>268.351047</ele>
        <time>2021-11-22T01:00:21.820Z</time>
      </trkpt>
      <trkpt lat="47.555031" lon="7.789894">
        <ele>268.472590</ele>
        <time>2021-11-22T01:00:26.050Z</time>
      </trkpt>
      <trkpt lat="47.554999" lon="7.790090">
        <ele>268.665769</ele>
        <time>2021-11-22T01:00:33.202Z</time>
      </trkpt>
      <trkpt lat="47.554865" lon="7.790678">
        <ele>269.260307</ele>
        <time>2021-11-22T01:00:54.358Z</time>
      </trkpt>
      <trkpt lat="47.554858" lon="7.790696">
        <ele>269.282804</ele>
        <time>2021-11-22T01:00:55.356Z</time>
      </trkpt>
      <trkpt lat="47.554788" lon="7.790844">
        <ele>269.571757</ele>
        <time>2021-11-22T01:01:00.921Z</time>
      </trkpt>
      <trkpt lat="47.554756" lon="7.790897">
        <ele>269.685457</ele>
        <time>2021-11-22T01:01:03.487Z</time>
      </trkpt>
      <trkpt lat="47.554756" lon="7.790897">
        <ele>269.685457</ele>
        <time>2021-11-22T01:01:03.508Z</time>
      </trkpt>
      <trkpt lat="47.554756" lon="7.790897">
        <ele>269.685457</ele>
        <time>2021-11-22T01:01:03.512Z</time>
      </trkpt>
      <trkpt lat="47.554911" lon="7.791459">
        <ele>270.656141</ele>
        <time>2021-11-22T01:01:23.346Z</time>
      </trkpt>
      <trkpt lat="47.555027" lon="7.791948">
        <ele>271.484863</ele>
        <time>2021-11-22T01:01:39.585Z</time>
      </trkpt>
      <trkpt lat="47.555085" lon="7.792163">
        <ele>271.855057</ele>
        <time>2021-11-22T01:01:46.865Z</time>
      </trkpt>
      <trkpt lat="47.555127" lon="7.792307">
        <ele>272.105870</ele>
        <time>2021-11-22T01:01:51.264Z</time>
      </trkpt>
      <trkpt lat="47.555237" lon="7.792734">
        <ele>272.836616</ele>
        <time>2021-11-22T01:02:05.394Z</time>
      </trkpt>
      <trkpt lat="47.555277" lon="7.793131">
        <ele>273.478385</ele>
        <time>2021-11-22T01:02:17.534Z</time>
      </trkpt>
      <trkpt lat="47.555274" lon="7.793423">
        <ele>273.874002</ele>
        <time>2021-11-22T01:02:26.193Z</time>
      </trkpt>
      <trkpt lat="47.555281" lon="7.793955">
        <ele>274.576034</ele>
        <time>2021-11-22T01:02:41.716Z</time>
      </trkpt>
      <trkpt lat="47.555282" lon="7.794033">
        <ele>274.678963</ele>
        <time>2021-11-22T01:02:43.998Z</time>
      </trkpt>
      <trkpt lat="47.555288" lon="7.794318">
        <ele>275.055163</ele>
        <time>2021-11-22T01:02:52.512Z</time>
      </trkpt>
      <trkpt lat="47.555288" lon="7.794496">
        <ele>275.290009</ele>
        <time>2021-11-22T01:02:57.563Z</time>
      </trkpt>
      <trkpt lat="47.555141" lon="7.794516">
        <ele>275.578597</ele>
        <time>2021-11-22T01:03:03.962Z</time>
      </trkpt>
      <trkpt lat="47.555010" lon="7.794553">
        <ele>275.839308</ele>
        <time>2021-11-22T01:03:09.814Z</time>
      </trkpt>
      <trkpt lat="47.555010" lon="7.794553">
        <ele>275.839308</ele>
        <time>2021-11-22T01:03:09.877Z</time>
      </trkpt>
      <trkpt lat="47.554864" lon="7.794599">
        <ele>276.131113</ele>
        <time>2021-11-22T01:03:16.233Z</time>
      </trkpt>
      <trkpt lat="47.554495" lon="7.794723">
        <ele>276.870811</ele>
        <time>2021-11-22T01:03:33.636Z</time>
      </trkpt>
      <trkpt lat="47.554352" lon="7.794791">
        <ele>277.252127</ele>
        <time>2021-11-22T01:03:40.886Z</time>
      </trkpt>
      <trkpt lat="47.554254" lon="7.794823">
        <ele>277.603725</ele>
        <time>2021-11-22T01:03:45.610Z</time>
      </trkpt>
      <trkpt lat="47.554004" lon="7.794824">
        <ele>278.479646</ele>
        <time>2021-11-22T01:03:57.900Z</time>
      </trkpt>
      <trkpt lat="47.553930" lon="7.794811">
        <ele>278.740734</ele>
        <time>2021-11-22T01:04:01.811Z</time>
      </trkpt>
      <trkpt lat="47.553883" lon="7.794947">
        <ele>279.102030</ele>
        <time>2021-11-22T01:04:05.064Z</time>
      </trkpt>
      <trkpt lat="47.553854" lon="7.795042">
        <ele>279.348579</ele>
        <time>2021-11-22T01:04:07.431Z</time>
      </trkpt>
      <trkpt lat="47.553847" lon="7.795063">
        <ele>279.403963</ele>
        <time>2021-11-22T01:04:08.003Z</time>
      </trkpt>
      <trkpt lat="47.553724" lon="7.795281">
        <ele>280.075860</ele>
        <time>2021-11-22T01:04:15.176Z</time>
      </trkpt>
      <trkpt lat="47.553702" lon="7.795313">
        <ele>280.183874</ele>
        <time>2021-11-22T01:04:16.272Z</time>
      </trkpt>
      <trkpt lat="47.553628" lon="7.795414">
        <ele>280.536379</ele>
        <time>2021-11-22T01:04:19.602Z</time>
      </trkpt>
      <trkpt lat="47.553580" lon="7.795460">
        <ele>280.736666</ele>
        <time>2021-11-22T01:04:21.723Z</time>
      </trkpt>
      <trkpt lat="47.553379" lon="7.795607">
        <ele>281.522018</ele>
        <time>2021-11-22T01:04:29.850Z</time>
      </trkpt>
      <trkpt lat="47.553256" lon="7.795697">
        <ele>282.002653</ele>
        <time>2021-11-22T01:04:34.694Z</time>
      </trkpt>
      <trkpt lat="47.553218" lon="7.795662">
        <ele>282.159420</ele>
        <time>2021-11-22T01:04:35.918Z</time>
      </trkpt>
      <trkpt lat="47.553188" lon="7.795642">
        <ele>282.274679</ele>
        <time>2021-11-22T01:04:36.878Z</time>
      </trkpt>
      <trkpt lat="47.553162" lon="7.795633">
        <ele>282.368227</ele>
        <time>2021-11-22T01:04:37.833Z</time>
      </trkpt>
      <trkpt lat="47.553139" lon="7.795630">
        <ele>282.449123</ele>
        <time>2021-11-22T01:04:38.535Z</time>
      </trkpt>
      <trkpt lat="47.552976" lon="7.795607">
        <ele>283.022805</ele>
        <time>2021-11-22T01:04:43.293Z</time>
      </trkpt>
      <trkpt lat="47.552930" lon="7.795600">
        <ele>283.184822</ele>
        <time>2021-11-22T01:04:44.687Z</time>
      </trkpt>
      <trkpt lat="47.552886" lon="7.795976">
        <ele>284.282575</ele>
        <time>2021-11-22T01:04:52.401Z</time>
      </trkpt>
      <trkpt lat="47.552817" lon="7.796239">
        <ele>285.127992</ele>
        <time>2021-11-22T01:04:58.568Z</time>
      </trkpt>
      <trkpt lat="47.552762" lon="7.796425">
        <ele>285.736408</ele>
        <time>2021-11-22T01:05:03.227Z</time>
      </trkpt>
      <trkpt lat="47.552493" lon="7.797048">
        <ele>287.952292</ele>
        <time>2021-11-22T01:05:20.069Z</time>
      </trkpt>
      <trkpt lat="47.552152" lon="7.797876">
        <ele>290.858477</ele>
        <time>2021-11-22T01:05:42.133Z</time>
      </trkpt>
      <trkpt lat="47.552084" lon="7.798083">
        <ele>291.490802</ele>
        <time>2021-11-22T01:05:47.672Z</time>
      </trkpt>
      <trkpt lat="47.551948" lon="7.798607">
        <ele>292.708468</ele>
        <time>2021-11-22T01:05:59.482Z</time>
      </trkpt>
      <trkpt lat="47.551805" lon="7.799326">
        <ele>294.334245</ele>
        <time>2021-11-22T01:06:13.369Z</time>
      </trkpt>
      <trkpt lat="47.551793" lon="7.799434">
        <ele>294.571645</ele>
        <time>2021-11-22T01:06:15.653Z</time>
      </trkpt>
      <trkpt lat="47.551754" lon="7.799766">
        <ele>295.302564</ele>
        <time>2021-11-22T01:06:22.004Z</time>
      </trkpt>
      <trkpt lat="47.551712" lon="7.800249">
        <ele>296.358829</ele>
        <time>2021-11-22T01:06:30.923Z</time>
      </trkpt>
      <trkpt lat="47.551704" lon="7.800451">
        <ele>296.797712</ele>
        <time>2021-11-22T01:06:34.109Z</time>
      </trkpt>
      <trkpt lat="47.551672" lon="7.801147">
        <ele>297.513354</ele>
        <time>2021-11-22T01:06:43.132Z</time>
      </trkpt>
      <trkpt lat="47.551669" lon="7.801438">
        <ele>297.721739</ele>
        <time>2021-11-22T01:06:47.711Z</time>
      </trkpt>
      <trkpt lat="47.551666" lon="7.801632">
        <ele>297.860683</ele>
        <time>2021-11-22T01:06:49.724Z</time>
      </trkpt>
      <trkpt lat="47.551669" lon="7.801853">
        <ele>298.018954</ele>
        <time>2021-11-22T01:06:52.982Z</time>
      </trkpt>
      <trkpt lat="47.551671" lon="7.802077">
        <ele>298.179356</ele>
        <time>2021-11-22T01:06:55.299Z</time>
      </trkpt>
      <trkpt lat="47.551679" lon="7.802228">
        <ele>298.287806</ele>
        <time>2021-11-22T01:06:56.418Z</time>
      </trkpt>
      <trkpt lat="47.551688" lon="7.802394">
        <ele>298.407048</ele>
        <time>2021-11-22T01:06:59.375Z</time>
      </trkpt>
      <trkpt lat="47.551700" lon="7.802648">
        <ele>298.589361</ele>
        <time>2021-11-22T01:07:01.655Z</time>
      </trkpt>
      <trkpt lat="47.551732" lon="7.803125">
        <ele>298.932583</ele>
        <time>2021-11-22T01:07:07.805Z</time>
      </trkpt>
      <trkpt lat="47.551744" lon="7.803277">
        <ele>299.040845</ele>
        <time>2021-11-22T01:07:09.013Z</time>
      </trkpt>
      <trkpt lat="47.551751" lon="7.803369">
        <ele>299.100752</ele>
        <time>2021-11-22T01:07:10.688Z</time>
      </trkpt>
      <trkpt lat="47.551692" lon="7.803510">
        <ele>299.208100</ele>
        <time>2021-11-22T01:07:14.275Z</time>
      </trkpt>
      <trkpt lat="47.551741" lon="7.804294">
        <ele>299.717571</ele>
        <time>2021-11-22T01:07:26.873Z</time>
      </trkpt>
      <trkpt lat="47.551744" lon="7.804473">
        <ele>299.833432</ele>
        <time>2021-11-22T01:07:29.908Z</time>
      </trkpt>
      <trkpt lat="47.551731" lon="7.804667">
        <ele>299.959580</ele>
        <time>2021-11-22T01:07:34.008Z</time>
      </trkpt>
      <trkpt lat="47.551709" lon="7.805000">
        <ele>300.176083</ele>
        <time>2021-11-22T01:07:38.548Z</time>
      </trkpt>
      <trkpt lat="47.551681" lon="7.805477">
        <ele>300.485899</ele>
        <time>2021-11-22T01:07:46.295Z</time>
      </trkpt>
      <trkpt lat="47.551671" lon="7.806117">
        <ele>300.754874</ele>
        <time>2021-11-22T01:07:56.384Z</time>
      </trkpt>
      <trkpt lat="47.551651" lon="7.806246">
        <ele>300.756013</ele>
        <time>2021-11-22T01:07:59.287Z</time>
      </trkpt>
      <trkpt lat="47.551895" lon="7.806278">
        <ele>300.759134</ele>
        <time>2021-11-22T01:08:02.812Z</time>
      </trkpt>
      <trkpt lat="47.552015" lon="7.806307">
        <ele>300.760683</ele>
        <time>2021-11-22T01:08:05.682Z</time>
      </trkpt>
      <trkpt lat="47.552068" lon="7.806445">
        <ele>300.762049</ele>
        <time>2021-11-22T01:08:07.139Z</time>
      </trkpt>
      <trkpt lat="47.552398" lon="7.808880">
        <ele>300.391014</ele>
        <time>2021-11-22T01:08:29.282Z</time>
      </trkpt>
      <trkpt lat="47.552566" lon="7.810386">
        <ele>299.723788</ele>
        <time>2021-11-22T01:08:42.293Z</time>
      </trkpt>
      <trkpt lat="47.552711" lon="7.812955">
        <ele>298.600889</ele>
        <time>2021-11-22T01:09:04.902Z</time>
      </trkpt>
      <trkpt lat="47.552844" lon="7.816432">
        <ele>297.406520</ele>
        <time>2021-11-22T01:09:35.395Z</time>
      </trkpt>
      <trkpt lat="47.552948" lon="7.819358">
        <ele>297.803730</ele>
        <time>2021-11-22T01:10:06.625Z</time>
      </trkpt>
      <trkpt lat="47.552896" lon="7.820699">
        <ele>298.361619</ele>
        <time>2021-11-22T01:10:22.709Z</time>
      </trkpt>
      <trkpt lat="47.552567" lon="7.824508">
        <ele>300.247140</ele>
        <time>2021-11-22T01:11:09.194Z</time>
      </trkpt>
      <trkpt lat="47.552491" lon="7.827227">
        <ele>301.754343</ele>
        <time>2021-11-22T01:11:40.933Z</time>
      </trkpt>
      <trkpt lat="47.552515" lon="7.828094">
        <ele>302.519108</ele>
        <time>2021-11-22T01:11:52.643Z</time>
      </trkpt>
      <trkpt lat="47.552477" lon="7.828294">
        <ele>302.702228</ele>
        <time>2021-11-22T01:11:55.260Z</time>
      </trkpt>
      <trkpt lat="47.552421" lon="7.828481">
        <ele>302.882534</ele>
        <time>2021-11-22T01:11:58.192Z</time>
      </trkpt>
      <trkpt lat="47.552404" lon="7.828582">
        <ele>302.974276</ele>
        <time>2021-11-22T01:11:59.876Z</time>
      </trkpt>
      <trkpt lat="47.552416" lon="7.828822">
        <ele>303.186377</ele>
        <time>2021-11-22T01:12:03.110Z</time>
      </trkpt>
      <trkpt lat="47.552554" lon="7.829266">
        <ele>303.701657</ele>
        <time>2021-11-22T01:12:10.462Z</time>
      </trkpt>
      <trkpt lat="47.552645" lon="7.830686">
        <ele>306.218540</ele>
        <time>2021-11-22T01:12:33.767Z</time>
      </trkpt>
      <trkpt lat="47.552690" lon="7.832598">
        <ele>309.754855</ele>
        <time>2021-11-22T01:13:09.244Z</time>
      </trkpt>
      <trkpt lat="47.552616" lon="7.832891">
        <ele>310.372070</ele>
        <time>2021-11-22T01:13:14.608Z</time>
      </trkpt>
      <trkpt lat="47.552556" lon="7.832977">
        <ele>310.616102</ele>
        <time>2021-11-22T01:13:17.340Z</time>
      </trkpt>
      <trkpt lat="47.552511" lon="7.833072">
        <ele>310.845085</ele>
        <time>2021-11-22T01:13:19.365Z</time>
      </trkpt>
      <trkpt lat="47.552467" lon="7.833198">
        <ele>311.124979</ele>
        <time>2021-11-22T01:13:21.767Z</time>
      </trkpt>
      <trkpt lat="47.552452" lon="7.833284">
        <ele>311.300225</ele>
        <time>2021-11-22T01:13:23.378Z</time>
      </trkpt>
      <trkpt lat="47.552696" lon="7.833789">
        <ele>312.525550</ele>
        <time>2021-11-22T01:13:34.410Z</time>
      </trkpt>
      <trkpt lat="47.552700" lon="7.833938">
        <ele>312.819747</ele>
        <time>2021-11-22T01:13:37.354Z</time>
      </trkpt>
      <trkpt lat="47.552714" lon="7.835010">
        <ele>314.430617</ele>
        <time>2021-11-22T01:13:55.831Z</time>
      </trkpt>
      <trkpt lat="47.552719" lon="7.836790">
        <ele>316.713737</ele>
        <time>2021-11-22T01:14:21.114Z</time>
      </trkpt>
      <trkpt lat="47.552697" lon="7.838068">
        <ele>318.045668</ele>
        <time>2021-11-22T01:14:38.838Z</time>
      </trkpt>
      <trkpt lat="47.552736" lon="7.838578">
        <ele>318.563475</ele>
        <time>2021-11-22T01:14:45.969Z</time>
      </trkpt>
      <trkpt lat="47.552802" lon="7.839009">
        <ele>319.009341</ele>
        <time>2021-11-22T01:14:52.106Z</time>
      </trkpt>
      <trkpt lat="47.552802" lon="7.839009">
        <ele>319.009341</ele>
        <time>2021-11-22T01:14:52.131Z</time>
      </trkpt>
      <trkpt lat="47.552939" lon="7.839526">
        <ele>319.569679</ele>
        <time>2021-11-22T01:14:59.911Z</time>
      </trkpt>
      <trkpt lat="47.553231" lon="7.841529">
        <ele>321.769276</ele>
        <time>2021-11-22T01:15:29.958Z</time>
      </trkpt>
      <trkpt lat="47.553216" lon="7.841849">
        <ele>322.113897</ele>
        <time>2021-11-22T01:15:34.467Z</time>
      </trkpt>
      <trkpt lat="47.553123" lon="7.842222">
        <ele>322.508925</ele>
        <time>2021-11-22T01:15:39.696Z</time>
      </trkpt>
      <trkpt lat="47.553133" lon="7.842431">
        <ele>322.641028</ele>
        <time>2021-11-22T01:15:42.826Z</time>
      </trkpt>
      <trkpt lat="47.552833" lon="7.842495">
        <ele>322.924174</ele>
        <time>2021-11-22T01:15:50.135Z</time>
      </trkpt>
      <trkpt lat="47.552380" lon="7.842592">
        <ele>323.351757</ele>
        <time>2021-11-22T01:16:01.183Z</time>
      </trkpt>
      <trkpt lat="47.551922" lon="7.842704">
        <ele>323.785403</ele>
        <time>2021-11-22T01:16:11.749Z</time>
      </trkpt>
      <trkpt lat="47.551668" lon="7.842770">
        <ele>324.026308</ele>
        <time>2021-11-22T01:16:17.708Z</time>
      </trkpt>
      <trkpt lat="47.551454" lon="7.842815">
        <ele>324.228945</ele>
        <time>2021-11-22T01:16:22.395Z</time>
      </trkpt>
      <trkpt lat="47.551344" lon="7.844621">
        <ele>325.381956</ele>
        <time>2021-11-22T01:16:44.906Z</time>
      </trkpt>
      <trkpt lat="47.551205" lon="7.846694">
        <ele>327.186808</ele>
        <time>2021-11-22T01:17:12.897Z</time>
      </trkpt>
      <trkpt lat="47.551186" lon="7.847144">
        <ele>327.632016</ele>
        <time>2021-11-22T01:17:19.343Z</time>
      </trkpt>
      <trkpt lat="47.551184" lon="7.847206">
        <ele>327.693306</ele>
        <time>2021-11-22T01:17:20.283Z</time>
      </trkpt>
      <trkpt lat="47.551196" lon="7.847517">
        <ele>328.000895</ele>
        <time>2021-11-22T01:17:24.825Z</time>
      </trkpt>
      <trkpt lat="47.551669" lon="7.848083">
        <ele>328.899747</ele>
        <time>2021-11-22T01:17:37.923Z</time>
      </trkpt>
      <trkpt lat="47.551242" lon="7.848702">
        <ele>329.793142</ele>
        <time>2021-11-22T01:17:50.498Z</time>
      </trkpt>
      <trkpt lat="47.550975" lon="7.849066">
        <ele>330.335756</ele>
        <time>2021-11-22T01:17:57.831Z</time>
      </trkpt>
      <trkpt lat="47.550810" lon="7.849346">
        <ele>330.710945</ele>
        <time>2021-11-22T01:18:04.224Z</time>
      </trkpt>
      <trkpt lat="47.550488" lon="7.850081">
        <ele>331.404385</ele>
        <time>2021-11-22T01:18:19.652Z</time>
      </trkpt>
      <trkpt lat="47.550333" lon="7.850434">
        <ele>331.643274</ele>
        <time>2021-11-22T01:18:26.971Z</time>
      </trkpt>
      <trkpt lat="47.550009" lon="7.851173">
        <ele>332.143162</ele>
        <time>2021-11-22T01:18:41.583Z</time>
      </trkpt>
      <trkpt lat="47.549750" lon="7.851749">
        <ele>332.535778</ele>
        <time>2021-11-22T01:18:51.859Z</time>
      </trkpt>
      <trkpt lat="47.549652" lon="7.851969">
        <ele>332.666153</ele>
        <time>2021-11-22T01:18:55.466Z</time>
      </trkpt>
      <trkpt lat="47.549535" lon="7.852225">
        <ele>332.607308</ele>
        <time>2021-11-22T01:18:59.505Z</time>
      </trkpt>
      <trkpt lat="47.549285" lon="7.852784">
        <ele>332.479672</ele>
        <time>2021-11-22T01:19:08.149Z</time>
      </trkpt>
      <trkpt lat="47.549708" lon="7.853279">
        <ele>332.327666</ele>
        <time>2021-11-22T01:19:18.547Z</time>
      </trkpt>
      <trkpt lat="47.550221" lon="7.853833">
        <ele>332.134745</ele>
        <time>2021-11-22T01:19:30.496Z</time>
      </trkpt>
      <trkpt lat="47.549883" lon="7.854434">
        <ele>331.848739</ele>
        <time>2021-11-22T01:19:37.174Z</time>
      </trkpt>
      <trkpt lat="47.549566" lon="7.855225">
        <ele>331.512413</ele>
        <time>2021-11-22T01:19:48.319Z</time>
      </trkpt>
      <trkpt lat="47.549362" lon="7.855774">
        <ele>331.283289</ele>
        <time>2021-11-22T01:19:56.240Z</time>
      </trkpt>
      <trkpt lat="47.548887" lon="7.857308">
        <ele>331.202561</ele>
        <time>2021-11-22T01:20:18.348Z</time>
      </trkpt>
      <trkpt lat="47.548743" lon="7.857692">
        <ele>331.206578</ele>
        <time>2021-11-22T01:20:24.320Z</time>
      </trkpt>
      <trkpt lat="47.548701" lon="7.857893">
        <ele>331.208503</ele>
        <time>2021-11-22T01:20:27.291Z</time>
      </trkpt>
      <trkpt lat="47.548686" lon="7.857973">
        <ele>331.209262</ele>
        <time>2021-11-22T01:20:28.415Z</time>
      </trkpt>
      <trkpt lat="47.548611" lon="7.858381">
        <ele>331.213129</ele>
        <time>2021-11-22T01:20:34.629Z</time>
      </trkpt>
      <trkpt lat="47.548334" lon="7.859801">
        <ele>332.194615</ele>
        <time>2021-11-22T01:20:57.666Z</time>
      </trkpt>
      <trkpt lat="47.548049" lon="7.860929">
        <ele>333.038384</ele>
        <time>2021-11-22T01:21:18.685Z</time>
      </trkpt>
      <trkpt lat="47.547930" lon="7.861711">
        <ele>333.921628</ele>
        <time>2021-11-22T01:21:33.448Z</time>
      </trkpt>
      <trkpt lat="47.547568" lon="7.863151">
        <ele>335.664900</ele>
        <time>2021-11-22T01:22:02.576Z</time>
      </trkpt>
      <trkpt lat="47.547320" lon="7.863864">
        <ele>336.160352</ele>
        <time>2021-11-22T01:22:16.516Z</time>
      </trkpt>
      <trkpt lat="47.546974" lon="7.864423">
        <ele>336.263726</ele>
        <time>2021-11-22T01:22:27.339Z</time>
      </trkpt>
      <trkpt lat="47.546885" lon="7.864500">
        <ele>336.284537</ele>
        <time>2021-11-22T01:22:30.424Z</time>
      </trkpt>
      <trkpt lat="47.546894" lon="7.864837">
        <ele>336.330505</ele>
        <time>2021-11-22T01:22:34.308Z</time>
      </trkpt>
      <trkpt lat="47.546889" lon="7.865225">
        <ele>336.383398</ele>
        <time>2021-11-22T01:22:39.733Z</time>
      </trkpt>
      <trkpt lat="47.546819" lon="7.865489">
        <ele>336.422057</ele>
        <time>2021-11-22T01:22:43.678Z</time>
      </trkpt>
      <trkpt lat="47.546510" lon="7.865766">
        <ele>336.466944</ele>
        <time>2021-11-22T01:22:50.312Z</time>
      </trkpt>
      <trkpt lat="47.546327" lon="7.865959">
        <ele>336.466944</ele>
        <time>2021-11-22T01:22:53.827Z</time>
      </trkpt>
      <trkpt lat="47.546096" lon="7.866147">
        <ele>336.466944</ele>
        <time>2021-11-22T01:22:58.382Z</time>
      </trkpt>
      <trkpt lat="47.545240" lon="7.866887">
        <ele>336.466944</ele>
        <time>2021-11-22T01:23:14.802Z</time>
      </trkpt>
      <trkpt lat="47.545160" lon="7.866985">
        <ele>336.466944</ele>
        <time>2021-11-22T01:23:16.508Z</time>
      </trkpt>
      <trkpt lat="47.545003" lon="7.867278">
        <ele>336.466944</ele>
        <time>2021-11-22T01:23:21.083Z</time>
      </trkpt>
      <trkpt lat="47.544792" lon="7.867479">
        <ele>336.466944</ele>
        <time>2021-11-22T01:23:25.676Z</time>
      </trkpt>
    </trkseg>
  </trk>
</gpx>